GFSMW_sfc_rhum_018.txt.gz
RH
35 34 35 34 35 36 39 46 52 50 46 48 52 51 49 46 42 39 35 34 34 34 36 36 34 34 36 36 35 37 39 38 38 39 40 41 39 43 37 43 47 42 42
32 35 35 34 33 35 35 38 46 54 54 56 52 43 41 40 40 40 38 34 33 33 33 35 35 35 35 36 38 40 43 39 37 42 45 43 37 30 36 34 32 33 31
32 33 35 40 41 41 40 40 41 44 42 40 39 40 42 41 41 40 39 37 34 33 34 36 35 36 38 39 40 40 46 44 40 37 45 50 50 49 36 33 31 29 33
32 34 38 41 45 47 46 45 43 43 41 40 41 42 42 45 42 38 37 35 34 32 29 30 32 32 32 34 35 30 36 36 41 38 33 44 44 53 53 34 36 32 36
35 39 43 46 47 52 51 47 45 43 42 40 39 39 42 41 38 34 34 32 30 30 26 26 29 28 27 29 31 31 31 32 37 39 41 44 44 42 50 58 39 33 29
37 41 46 47 51 54 52 50 46 45 43 42 40 41 40 36 34 33 28 26 23 25 25 23 23 24 26 27 25 28 33 40 39 37 40 48 52 50 47 42 43 42 34
40 44 46 47 49 53 54 48 44 44 40 39 37 36 35 33 30 26 23 22 20 22 24 23 20 21 24 23 25 32 40 43 41 40 43 42 34 33 33 37 42 44 41
39 42 44 48 51 52 49 45 44 43 38 35 32 29 28 26 22 22 20 19 19 20 22 22 20 20 20 20 22 27 34 34 33 31 34 36 30 34 38 48 58 66 58
42 42 46 47 49 48 47 46 45 43 37 32 26 23 21 21 21 19 18 20 19 17 19 20 19 20 20 20 23 24 23 24 26 27 31 31 32 36 38 42 52 62 67
41 43 45 49 48 46 46 43 40 38 34 27 23 21 18 16 17 17 19 20 18 18 19 18 18 18 18 18 20 20 21 22 25 26 30 32 33 36 35 37 35 39 45
43 44 45 50 48 45 43 39 39 36 30 24 21 20 18 16 16 17 17 18 17 18 18 17 17 17 18 18 18 19 21 25 28 29 31 34 37 35 32 34 34 36 40
42 44 48 51 47 44 40 36 36 32 28 22 19 19 19 17 16 17 18 17 17 17 18 18 18 18 18 19 20 21 23 27 30 31 33 34 29 36 34 34 38 42 42
46 47 52 50 46 42 37 34 34 30 24 20 18 18 18 18 18 18 19 18 19 19 19 20 20 20 22 23 22 21 26 29 31 32 35 36 37 37 38 40 43 44 45
48 49 53 50 45 40 35 32 31 27 22 20 20 20 21 21 21 21 21 21 21 22 22 22 22 23 22 24 21 29 32 33 33 36 38 37 38 40 43 44 45 54 57
49 53 54 51 46 40 35 31 28 24 19 19 22 23 24 23 23 24 24 23 24 24 24 25 23 23 25 19 35 39 39 39 38 38 36 37 45 55 52 49 58 63 59
46 51 56 52 46 41 37 35 26 22 19 20 21 24 24 25 27 26 25 25 25 25 26 25 23 24 22 40 50 53 46 42 40 40 37 36 44 44 58 62 58 56 65
45 54 57 54 48 41 38 32 22 19 19 20 21 22 24 26 26 26 25 27 28 27 26 25 24 24 26 42 55 60 48 43 39 38 38 37 33 49 54 53 56 61 83
49 57 58 55 45 39 34 23 20 19 20 21 21 24 26 25 25 24 24 26 25 26 25 25 26 29 26 46 55 63 46 40 39 38 39 39 46 54 50 48 63 79 52
52 59 56 48 41 36 27 23 20 21 20 22 22 24 25 26 25 25 26 26 27 27 26 28 29 29 30 48 58 56 44 42 40 38 39 50 51 52 56 67 94 66 54
62 60 49 42 36 28 23 22 22 20 20 23 25 25 25 26 25 26 27 28 28 29 29 29 27 37 33 48 57 54 45 46 43 47 50 55 49 56 68 72 51 73 58
57 48 42 38 31 24 22 23 22 20 23 26 27 26 25 25 25 27 28 29 30 31 30 29 28 32 38 42 56 59 48 48 60 64 54 46 58 67 59 56 50 59 55
52 44 40 34 27 23 24 25 20 24 26 28 28 27 26 26 26 30 30 28 29 31 30 30 36 36 36 49 53 59 59 60 64 59 50 55 70 56 56 55 61 60 61
49 41 38 32 27 26 22 21 24 27 28 28 27 26 27 27 28 29 31 30 30 32 34 38 42 41 41 40 54 57 62 65 56 49 64 69 56 56 54 61 60 60 61
50 43 38 35 31 27 27 25 28 29 30 28 27 27 28 32 29 31 30 31 32 37 40 45 47 50 47 46 47 55 60 60 56 77 69 52 52 54 56 53 53 57 63
47 42 41 36 27 26 26 28 30 31 30 28 27 28 30 30 31 30 30 35 38 49 55 54 54 57 58 52 58 62 52 57 68 62 50 46 47 57 55 55 58 61 64
46 44 37 28 27 27 28 30 32 33 33 31 30 32 35 32 32 32 33 43 51 56 58 62 59 51 59 62 63 61 64 74 63 53 51 57 65 67 60 62 64 68 78

GFSMW_sfc_rhum_021.txt.gz
RH
28 29 30 30 32 36 42 44 44 44 43 46 49 47 47 43 39 36 32 32 32 32 34 34 32 34 34 34 35 38 44 43 39 42 42 40 37 35 34 36 33 34 33
28 30 29 28 28 32 37 45 47 48 48 43 44 41 40 39 39 39 35 31 30 30 30 34 35 34 36 36 37 39 42 40 38 43 45 47 39 36 36 32 32 32 33
28 30 31 34 36 36 36 39 39 39 41 42 41 41 40 41 38 36 36 34 29 27 28 30 30 31 33 36 37 36 43 41 38 36 42 47 46 47 38 36 32 32 31
27 29 34 38 41 42 41 39 38 38 36 36 38 39 39 41 38 35 34 32 30 28 24 25 26 27 28 29 33 26 32 35 41 39 28 43 42 52 52 35 35 30 26
28 33 37 41 42 46 46 42 39 37 35 34 34 36 38 37 34 31 30 28 26 25 24 22 24 24 26 27 30 30 31 31 40 41 40 40 42 42 44 45 38 31 28
30 35 41 44 49 49 46 44 40 38 36 36 35 36 36 33 33 31 27 25 22 23 24 21 21 22 25 27 26 29 34 37 46 42 39 41 49 45 41 42 42 42 37
34 40 43 45 47 49 47 41 38 37 34 33 32 32 33 31 30 26 24 22 21 22 23 21 19 20 24 24 26 34 43 44 46 42 36 34 37 38 36 40 45 48 45
35 39 40 44 47 48 42 40 38 36 32 30 29 28 28 26 23 21 21 20 20 20 20 19 18 18 19 19 23 31 36 38 36 37 34 34 34 34 36 42 48 56 49
36 37 40 43 46 44 42 42 38 35 31 28 26 23 21 22 22 19 19 20 18 15 17 18 18 18 18 18 24 26 24 25 28 30 33 33 34 37 37 42 45 50 55
36 37 40 43 42 42 41 40 35 33 30 26 24 22 19 17 17 18 18 18 16 16 17 17 17 17 17 18 20 22 23 23 26 27 30 32 33 34 40 44 40 41 46
36 38 39 42 42 42 41 38 34 32 29 26 23 22 19 17 17 17 16 16 15 15 16 16 16 17 18 18 19 21 22 23 27 30 32 34 33 36 36 40 41 43 45
36 38 40 44 43 42 38 36 35 30 28 24 21 21 21 19 18 17 17 15 16 16 17 17 18 18 19 20 20 22 22 24 29 31 34 35 29 39 40 40 43 45 45
37 38 42 44 42 40 36 35 33 30 26 22 21 21 21 20 18 17 18 17 18 18 18 20 21 21 22 22 21 21 22 28 31 33 36 37 39 40 42 43 48 48 46
39 40 44 43 40 39 36 33 32 28 24 22 22 23 22 21 20 19 20 19 19 21 22 22 23 24 22 23 23 25 32 35 35 38 39 39 39 40 43 45 50 55 65
41 42 46 43 41 39 35 31 31 25 22 21 23 24 23 22 21 23 23 21 22 23 24 25 24 24 25 19 30 36 41 44 43 41 37 37 45 50 47 42 53 63 75
40 41 45 44 42 39 36 33 29 25 22 21 21 22 22 22 24 24 24 23 24 25 26 26 25 25 22 36 42 44 47 47 46 44 39 36 46 42 48 53 56 57 60
38 43 46 47 44 40 36 34 27 22 21 21 20 20 21 22 23 23 23 25 26 26 27 25 25 25 27 39 44 50 48 50 45 41 40 37 32 46 50 57 59 58 60
38 44 47 48 44 38 36 28 24 22 22 22 20 20 21 22 22 22 23 25 24 26 25 26 26 29 25 40 45 52 49 45 44 41 40 41 47 53 55 52 75 78 72
43 48 48 47 42 38 30 27 24 22 21 21 19 20 21 22 23 23 25 25 26 27 27 28 29 28 27 40 47 50 47 49 46 42 43 48 51 56 59 69 92 64 54
53 55 50 44 39 33 28 28 24 20 20 20 21 20 21 22 23 24 26 27 27 28 28 28 26 31 28 42 49 49 48 53 50 52 56 59 51 58 70 68 54 68 59
54 48 45 41 34 28 27 26 23 21 20 21 22 22 22 22 23 26 27 28 28 29 28 27 25 28 32 37 48 52 47 50 55 70 60 52 58 68 69 55 51 58 65
51 44 41 36 30 27 28 25 22 21 22 23 24 24 24 24 24 28 28 27 28 29 27 28 33 34 33 45 48 53 55 54 61 65 56 53 84 63 54 54 57 59 59
47 42 39 34 30 27 22 23 22 23 23 24 24 24 25 26 26 28 29 29 28 28 29 34 41 43 43 43 53 55 57 61 56 52 59 88 58 54 52 56 58 59 62
47 43 38 36 33 28 24 22 23 24 25 24 24 26 27 29 28 30 28 27 28 35 39 47 53 56 54 52 50 51 59 62 61 76 88 54 53 54 55 56 56 59 63
48 44 42 39 33 26 23 23 25 25 27 26 27 28 30 29 30 29 26 27 30 42 51 56 57 62 61 55 57 58 53 62 70 65 54 52 53 61 60 59 61 64 67
48 48 46 36 28 24 23 24 26 28 30 31 31 31 33 30 31 29 28 37 44 46 48 52 52 48 56 59 59 60 63 71 62 55 56 62 68 70 65 66 67 74 80

GFSMW_sfc_rhum_024.txt.gz
RH
38 40 45 48 55 60 61 64 64 64 65 71 71 60 61 58 55 52 43 42 42 45 49 55 51 51 53 52 46 53 56 58 57 60 50 51 44 46 42 32 32 38 32
41 42 43 46 50 61 66 66 67 62 57 58 58 56 56 57 57 53 46 40 38 38 36 44 47 44 49 48 48 48 56 55 52 59 55 65 50 49 36 41 43 36 43
41 43 47 51 54 59 59 57 58 58 58 55 50 51 60 61 59 58 54 46 36 34 35 38 39 42 45 49 46 48 48 56 54 51 58 69 69 51 49 42 43 35 30
38 42 49 57 60 62 59 56 54 54 55 56 61 60 60 61 58 54 51 47 37 34 31 33 35 37 43 42 43 34 45 48 59 60 41 54 58 58 61 56 39 35 30
38 47 55 56 60 65 64 58 53 51 50 50 52 57 58 57 53 49 43 36 37 34 31 31 34 35 42 40 39 40 45 50 58 66 61 55 59 53 62 61 47 37 37
42 51 58 61 68 67 64 59 53 52 51 50 50 52 51 49 49 42 42 39 38 39 33 29 30 32 36 38 39 40 44 52 57 62 57 57 56 48 52 55 48 45 39
47 56 64 69 68 66 61 54 52 50 47 46 44 44 43 41 37 37 36 33 34 37 32 30 28 31 33 33 34 44 48 55 55 61 50 54 48 43 47 46 48 49 44
50 56 62 67 68 63 57 52 49 46 42 40 38 38 37 39 34 31 33 32 32 31 27 28 27 26 27 28 30 42 49 41 48 41 48 46 44 47 44 47 54 54 56
52 54 60 64 66 61 58 54 48 44 40 38 34 30 29 29 30 28 28 30 27 19 24 26 26 26 26 26 30 39 35 35 37 41 44 44 43 46 47 49 49 60 63
50 52 57 62 61 59 58 51 45 42 39 35 32 27 25 25 25 26 25 24 23 22 24 24 24 25 26 27 28 34 35 31 36 32 36 37 41 43 44 53 49 53 55
47 52 56 58 59 58 56 49 43 40 38 34 31 30 27 26 25 25 24 23 22 23 23 24 25 26 27 27 30 31 29 30 34 34 35 40 38 43 45 48 51 52 53
47 52 56 57 61 59 54 49 44 40 37 31 30 30 29 27 26 24 24 23 24 24 25 26 28 28 30 31 31 30 31 34 37 38 41 42 36 45 45 50 48 53 53
51 53 58 58 60 57 52 50 44 39 33 31 30 30 30 28 27 26 26 25 26 27 29 30 32 32 34 33 32 29 34 39 42 45 47 48 47 48 49 49 52 51 47
48 52 60 59 59 54 49 47 42 35 32 31 32 33 31 30 29 28 30 30 29 30 33 34 34 36 34 31 30 34 41 45 46 51 52 50 49 48 47 46 48 48 61
51 53 60 60 59 54 48 45 39 34 30 31 34 34 31 29 30 33 33 31 33 33 35 36 36 36 33 25 33 38 45 50 53 54 51 50 51 54 48 43 50 58 60
51 55 58 59 57 54 47 42 38 33 31 31 31 30 29 29 33 33 33 34 36 36 36 37 37 37 27 39 43 41 44 50 55 58 53 46 48 48 53 55 56 54 70
52 55 61 59 55 52 42 42 36 31 29 29 27 26 27 30 32 32 33 35 37 38 38 38 36 37 38 41 42 44 42 53 56 55 52 48 40 53 53 60 65 90 79
52 59 64 63 55 49 47 35 32 31 31 29 24 25 28 29 31 32 33 36 37 38 38 38 38 40 32 40 42 46 47 53 55 54 53 53 54 59 57 58 80 83 78
62 67 62 58 52 46 34 34 31 30 29 27 25 25 27 30 32 34 36 37 39 41 41 38 38 38 33 42 44 45 48 51 54 52 53 59 61 61 60 65 95 80 65
66 63 56 51 45 39 36 32 31 28 27 26 27 27 29 31 33 35 38 39 41 38 36 34 34 40 34 44 46 46 47 53 55 58 65 69 59 59 67 69 59 72 62
60 55 53 50 43 38 36 33 29 29 27 28 29 30 31 33 33 37 40 41 41 40 41 36 34 38 42 45 51 55 49 53 58 80 74 67 62 76 69 58 54 58 57
60 53 43 39 37 36 34 32 30 29 29 31 32 34 34 32 30 39 42 41 42 43 40 39 43 45 48 55 57 58 57 58 64 66 61 59 75 60 58 56 59 60 60
54 46 42 40 37 35 32 32 32 30 30 32 33 34 35 36 36 41 43 43 42 42 41 44 52 58 57 57 60 60 61 66 61 59 66 80 62 57 56 59 61 61 66
59 48 44 42 40 34 30 32 32 31 33 34 35 38 40 41 41 44 44 43 42 44 44 52 59 62 59 60 57 53 63 62 65 79 88 62 57 58 60 60 60 64 67
59 53 51 46 42 34 32 34 33 35 39 39 41 42 45 45 46 44 41 41 42 50 49 54 56 60 60 56 54 54 51 59 70 61 61 56 59 67 64 63 65 67 74
62 62 57 44 37 32 32 34 36 39 42 45 47 50 51 50 50 46 40 43 45 48 49 50 49 47 51 54 56 56 60 64 61 58 61 70 74 74 69 72 80 80 86

GFSMW_sfc_rhum_027.txt.gz
RH
47 48 54 59 69 73 72 74 76 76 70 61 59 52 61 51 48 44 40 40 43 42 46 52 48 49 55 50 43 53 53 56 57 64 48 57 52 47 42 26 50 39 41
51 53 54 62 71 78 79 78 71 68 65 61 63 65 58 58 57 54 43 37 37 39 36 44 46 43 50 45 45 49 55 58 57 65 68 67 61 52 32 47 38 46 39
50 56 59 65 70 70 70 66 65 59 55 52 52 55 61 64 63 59 53 40 34 34 37 37 41 44 49 50 45 48 50 58 60 62 61 67 73 49 56 36 50 41 37
49 52 59 66 66 70 68 65 63 59 60 57 60 63 64 64 63 61 54 45 34 33 34 35 38 40 46 43 46 39 49 56 62 67 53 59 64 74 64 60 36 42 39
48 57 62 64 70 67 66 63 59 59 59 59 59 60 63 62 59 51 46 42 38 33 33 33 36 37 44 41 41 44 45 50 61 64 69 61 64 65 64 53 49 43 40
56 62 66 66 72 68 64 62 55 56 55 56 57 57 54 49 45 42 42 42 41 40 34 30 32 34 38 39 40 44 42 49 57 57 65 62 58 56 51 48 48 49 40
62 69 71 70 72 68 63 57 53 53 49 46 46 44 41 38 38 39 37 35 36 36 32 31 30 33 34 34 36 43 47 51 53 55 52 51 60 53 46 50 49 48 45
65 71 71 72 72 64 60 55 50 48 44 42 42 40 37 40 36 34 34 34 32 32 29 29 28 28 29 31 34 44 50 42 48 41 44 53 49 47 51 49 55 59 49
67 72 72 70 72 67 59 53 48 46 42 38 35 32 32 32 31 30 30 32 28 21 26 27 27 28 30 30 34 43 38 40 42 45 50 50 41 49 53 56 52 60 70
65 69 70 70 69 63 58 51 46 44 40 34 30 28 28 28 28 27 26 25 25 25 26 27 28 29 31 32 33 38 39 38 42 39 45 43 43 46 48 56 62 56 60
62 67 68 65 67 61 54 51 45 42 39 34 31 30 30 28 27 26 26 25 26 26 27 29 30 31 33 33 35 35 34 36 42 47 44 49 47 51 51 53 54 59 61
61 66 66 64 63 60 50 46 46 42 37 34 33 33 31 28 27 27 27 28 28 28 30 31 32 33 35 36 37 37 37 42 48 50 55 52 46 56 55 54 55 57 54
63 66 65 63 62 57 51 48 45 39 35 34 34 33 32 30 29 29 30 29 30 31 33 34 36 37 39 41 39 38 38 46 50 56 58 57 58 60 59 57 55 54 48
60 65 64 64 62 57 52 46 43 37 36 36 36 34 32 32 31 33 33 34 33 34 35 36 39 41 41 39 38 38 47 52 52 59 61 57 60 60 56 52 52 52 60
61 65 66 65 61 57 52 43 38 36 36 37 39 37 34 32 33 35 35 34 36 36 39 40 41 42 39 27 38 41 48 55 59 61 56 56 58 57 53 49 53 57 64
59 65 62 63 60 54 47 38 38 37 36 37 37 34 32 32 35 34 35 35 38 39 41 42 42 42 31 42 45 43 43 50 58 62 55 56 57 56 58 59 60 59 65
62 64 61 60 55 49 41 38 36 35 33 33 31 30 28 31 33 33 34 37 39 42 43 42 42 43 44 44 44 46 41 52 62 59 59 56 48 60 63 67 66 68 76
59 63 63 58 53 46 40 35 34 34 35 32 29 28 30 30 32 34 36 39 41 43 44 44 44 46 36 44 44 48 46 56 61 61 59 60 63 70 62 61 68 90 88
63 70 62 56 48 40 34 33 34 35 34 30 28 28 29 31 34 36 39 40 43 46 46 44 45 45 42 47 49 50 53 54 56 56 59 66 65 64 60 66 97 87 78
63 59 53 43 37 35 30 31 34 32 31 29 30 28 31 33 36 38 41 43 46 44 44 41 43 45 44 54 56 56 55 60 59 70 75 67 58 59 76 74 66 76 60
57 52 44 40 39 35 32 33 32 31 30 30 31 32 34 36 36 41 44 46 47 47 49 47 45 47 52 58 59 59 54 58 78 79 67 62 64 92 61 60 55 59 61
56 46 43 42 42 36 33 36 32 32 33 33 33 35 36 35 34 44 46 47 48 50 49 49 52 56 60 61 58 59 58 62 61 66 63 66 85 60 59 59 63 64 64
46 42 41 43 42 38 33 34 34 34 33 33 35 37 38 40 43 46 48 51 49 49 45 48 54 58 57 61 60 61 60 58 56 65 73 74 61 60 60 64 65 65 69
50 44 41 40 38 36 35 36 36 35 35 37 39 43 46 48 47 50 50 50 50 55 49 54 58 61 57 58 55 52 56 57 78 79 71 59 59 62 63 62 61 65 77
51 46 45 42 39 36 37 37 37 38 40 42 46 50 53 53 54 52 50 53 52 56 55 58 57 60 59 54 54 54 53 62 67 60 59 57 63 70 66 64 66 71 75
61 58 52 47 40 37 38 40 41 43 46 48 51 55 59 59 57 55 53 50 50 52 51 52 52 50 54 56 57 58 65 64 62 60 63 73 76 76 70 73 79 78 81

GFSMW_sfc_rhum_030.txt.gz
RH
50 53 62 71 79 78 79 84 85 80 59 57 56 60 60 45 41 39 39 41 42 43 47 52 47 52 49 46 44 50 55 56 62 66 58 59 59 49 34 43 47 45 41
56 61 69 82 82 87 89 85 84 78 69 60 64 58 60 56 45 43 38 37 38 38 36 45 46 46 47 43 46 51 53 57 65 67 74 70 63 52 27 49 41 49 37
56 65 77 84 87 86 83 75 72 67 61 54 51 52 50 56 53 53 47 38 34 37 38 40 42 46 48 49 48 52 53 59 62 62 64 64 71 58 55 37 48 31 48
56 64 76 80 80 81 76 70 65 61 58 54 53 50 54 59 68 61 49 41 34 35 35 37 39 42 47 43 46 44 49 54 62 65 53 64 65 68 68 58 38 49 32
54 63 72 70 75 75 74 70 67 67 70 67 59 60 64 67 64 55 46 38 36 34 34 34 37 38 45 42 41 46 44 52 63 63 70 70 65 67 79 56 48 39 39
57 68 74 71 73 70 68 66 64 67 65 60 61 59 55 50 48 48 47 44 40 40 34 31 34 35 38 40 41 43 43 49 53 56 59 60 59 63 58 47 47 49 41
67 75 73 68 66 65 64 59 57 59 56 53 50 47 44 40 39 40 39 36 35 37 32 32 31 35 36 36 39 44 49 51 51 49 50 54 60 61 49 51 53 52 47
67 71 69 67 64 61 61 54 51 50 46 42 42 39 38 42 40 36 36 34 34 33 30 30 30 30 32 34 37 47 50 44 49 44 47 56 55 55 51 57 62 64 54
72 73 70 66 64 62 56 50 47 45 41 39 36 36 35 34 34 31 32 32 30 23 28 30 30 32 34 34 38 46 41 42 45 48 52 54 55 57 54 58 61 69 77
77 75 69 68 65 57 56 50 43 40 37 34 31 32 31 30 29 28 26 26 27 28 29 31 32 34 36 36 38 43 43 41 46 44 51 54 57 55 58 64 62 62 68
78 75 72 68 63 57 50 48 42 37 34 31 32 32 31 29 28 28 27 27 28 29 30 33 34 36 37 38 41 41 39 40 46 51 54 60 59 59 60 63 64 66 65
76 76 71 69 61 54 50 46 42 37 35 34 34 34 31 28 29 29 29 30 30 31 34 35 36 38 40 42 43 44 43 44 50 54 60 63 49 62 64 65 65 65 62
77 76 72 67 61 54 49 46 41 38 37 36 36 34 33 31 31 32 32 32 34 35 36 38 40 42 45 45 45 44 43 48 52 57 62 66 63 63 66 66 66 62 54
74 75 71 68 60 52 48 45 41 37 38 37 36 35 34 33 33 35 35 35 35 37 39 41 43 44 44 44 43 46 51 54 53 60 66 66 66 64 66 59 58 58 62
76 72 71 69 62 55 49 41 39 38 38 39 41 38 36 35 36 37 36 37 38 39 41 43 43 44 42 29 43 48 54 57 59 61 61 61 60 59 56 52 57 61 74
72 70 68 68 62 54 45 37 39 40 39 41 40 38 36 34 36 36 37 37 39 40 42 44 45 47 34 46 46 46 48 52 58 60 59 58 60 61 62 64 63 62 64
70 69 68 64 59 49 39 38 38 39 38 38 36 34 32 32 36 35 36 38 40 43 45 46 46 47 49 46 49 51 50 59 62 64 61 59 52 66 70 70 62 65 72
68 66 66 63 55 44 40 37 35 36 37 36 33 31 32 32 34 35 37 40 42 45 47 47 47 50 41 49 54 57 59 63 64 64 66 68 72 69 58 56 75 95 77
67 66 64 57 48 40 35 34 37 38 36 34 30 30 31 33 35 37 40 42 45 49 49 48 50 49 50 52 56 57 61 61 64 60 67 75 66 62 62 90 83 72 66
70 64 55 48 40 37 33 34 37 36 34 31 32 31 34 34 37 40 44 45 49 48 49 47 46 50 50 55 57 56 57 64 63 70 82 68 60 63 77 58 61 73 63
55 48 45 42 37 34 33 35 35 34 33 34 34 35 36 37 39 44 48 50 51 50 52 48 49 50 54 63 59 57 54 59 79 76 63 62 72 70 60 60 62 64 66
50 45 42 40 38 35 34 36 35 36 36 37 37 38 38 38 39 48 50 51 53 54 54 55 56 58 61 63 59 58 57 59 57 66 71 78 70 61 62 63 67 67 66
48 44 42 41 42 40 33 35 37 37 37 37 38 41 43 47 48 53 54 55 54 58 60 58 64 61 57 67 61 59 59 58 61 73 67 67 63 63 64 67 68 66 69
48 44 41 41 43 38 36 37 39 38 37 39 45 49 51 56 54 53 51 58 62 66 59 59 62 66 60 60 58 55 58 64 69 71 70 62 62 65 66 63 62 65 68
47 44 41 39 42 40 40 40 40 40 42 46 48 51 56 61 59 55 58 66 64 64 61 65 64 65 64 58 56 55 55 60 61 61 61 60 65 71 67 66 68 69 70
54 50 46 40 42 41 42 44 44 45 48 47 51 56 64 64 58 62 65 57 54 54 53 54 55 54 57 58 59 59 62 63 65 64 67 75 78 78 74 76 78 77 79

GFSMW_sfc_rhum_033.txt.gz
RH
45 50 53 66 76 80 78 75 84 70 61 59 57 56 50 43 40 38 35 35 40 43 46 51 48 48 44 45 44 50 53 56 62 60 58 63 61 54 40 48 45 43 38
54 54 65 85 85 86 90 93 79 74 69 62 61 57 50 43 40 40 33 36 38 38 38 46 47 44 45 44 48 52 53 56 66 70 78 66 55 54 32 48 49 40 45
52 61 76 88 91 92 94 92 81 71 64 56 50 47 40 39 37 35 42 39 37 38 40 41 43 45 47 50 51 52 51 56 60 65 54 52 64 69 57 42 52 35 52
50 56 84 91 93 92 91 81 72 63 55 51 48 45 45 48 61 52 43 40 36 36 38 39 40 43 47 44 46 44 49 56 61 63 48 64 71 63 64 60 40 48 31
53 65 80 85 89 87 86 78 70 66 66 59 54 54 61 58 56 45 39 36 37 35 35 36 37 40 47 43 43 44 45 54 61 63 68 71 67 69 78 55 51 35 33
55 65 84 81 84 82 80 76 72 74 67 63 62 56 55 50 47 51 46 43 40 40 35 32 35 36 41 41 43 44 43 49 51 55 55 59 60 66 65 56 47 46 39
66 82 81 80 77 76 76 72 68 70 65 60 58 53 49 45 44 44 44 38 36 37 33 32 32 37 38 39 42 46 49 51 51 50 50 57 61 63 61 55 54 52 48
70 76 77 75 73 70 69 67 64 60 54 50 47 44 42 44 42 40 38 36 35 35 31 31 32 34 35 37 40 49 52 47 50 46 50 56 57 60 61 61 66 72 58
72 75 73 70 68 65 63 60 56 51 46 42 40 40 39 37 35 33 32 34 32 26 30 32 34 36 37 38 42 49 44 46 47 50 54 56 59 63 67 67 69 76 82
75 76 70 67 64 60 57 52 46 43 40 37 34 34 33 32 31 29 28 29 29 30 32 34 36 38 39 40 42 47 47 45 48 47 54 58 62 66 70 74 71 72 78
80 74 69 65 60 56 51 46 41 37 35 33 33 32 32 30 29 29 29 30 31 32 34 36 38 40 42 43 46 46 44 46 47 50 57 61 63 70 68 70 72 75 75
76 74 70 64 57 54 48 43 38 35 34 34 33 34 32 30 31 31 32 32 33 34 37 39 40 42 44 46 46 48 47 49 52 55 61 63 49 68 69 72 72 72 69
82 76 70 63 58 52 48 41 37 36 37 35 34 34 34 33 33 34 34 35 35 38 40 42 44 45 47 46 46 46 49 53 56 60 63 62 67 71 69 68 70 72 61
80 76 71 64 58 51 46 41 40 37 38 36 37 37 36 34 36 37 37 37 38 41 43 44 44 46 46 46 44 49 56 60 56 61 65 66 69 70 69 62 61 66 68
84 76 73 67 59 53 46 40 40 39 37 39 42 41 39 39 39 38 37 39 41 41 44 44 45 46 44 31 51 55 58 61 62 63 63 62 63 60 57 54 58 62 72
81 76 71 66 57 50 44 39 41 41 40 42 43 41 40 38 38 35 38 39 41 42 45 46 47 48 36 48 49 52 63 64 66 68 64 65 62 64 64 65 63 60 62
79 76 72 62 55 48 39 40 40 42 42 42 40 38 37 37 36 36 38 39 43 46 47 47 48 49 51 48 52 55 64 69 72 71 66 63 54 67 76 74 64 76 88
75 74 70 64 53 44 41 40 40 41 42 40 37 36 36 34 36 37 40 43 45 47 47 48 50 53 43 52 54 57 66 72 72 71 71 72 70 80 62 66 97 79 70
71 71 67 59 48 42 38 38 41 41 39 38 35 32 32 35 38 40 43 45 47 48 51 51 51 52 52 55 56 58 63 64 70 69 67 76 73 64 64 77 77 64 63
74 70 59 50 43 40 36 37 39 38 38 35 32 32 37 37 40 43 47 47 51 49 50 47 50 55 55 58 59 57 58 64 62 76 80 66 60 63 73 59 62 76 65
65 56 51 46 41 36 35 38 38 38 36 35 36 39 39 41 44 48 49 53 54 52 56 53 58 58 60 69 60 58 56 60 63 60 67 66 70 71 61 62 63 67 70
57 48 45 41 38 36 36 39 37 38 39 40 41 41 45 41 42 51 55 54 56 60 62 65 62 64 67 64 59 59 58 57 57 66 69 71 68 63 63 64 69 68 66
50 44 42 41 42 41 34 36 41 41 41 40 43 47 49 50 52 56 56 58 62 68 70 64 70 66 60 69 62 62 61 58 62 64 63 66 65 64 65 69 69 68 70
47 42 40 41 43 40 39 39 41 40 40 45 50 52 56 59 59 53 53 66 70 75 63 65 66 72 64 65 62 60 62 63 64 67 69 64 63 66 68 65 63 67 69
46 43 42 41 43 42 42 42 42 41 44 49 49 57 59 64 62 57 64 76 71 68 66 70 69 69 68 61 58 58 57 62 61 63 64 63 67 73 69 68 68 70 71
48 46 45 42 46 43 45 46 45 46 48 49 51 61 64 66 61 67 69 57 55 56 55 55 56 55 58 59 61 61 63 63 67 67 71 77 79 80 76 78 78 77 81

GFSMW_sfc_rhum_036.txt.gz
RH
47 47 46 53 59 68 74 86 89 82 67 64 62 59 58 50 42 39 36 36 38 41 44 49 45 45 44 46 42 50 48 59 64 58 58 62 58 60 49 47 50 42 41
55 50 55 76 79 78 81 90 83 78 70 66 65 58 69 47 40 39 36 34 34 40 40 44 45 42 45 46 47 46 48 55 68 64 74 60 48 52 35 49 50 45 50
53 55 63 80 89 90 92 92 84 77 69 57 49 44 44 36 36 35 36 36 38 41 41 42 44 45 49 53 52 49 52 55 57 68 53 45 51 75 56 49 60 41 50
56 54 64 87 92 93 96 92 78 70 60 54 50 45 45 40 40 38 35 36 38 39 40 41 42 44 48 46 47 43 52 56 60 58 49 62 73 59 62 57 41 49 33
51 56 66 71 92 96 96 87 73 67 64 55 50 51 54 46 38 36 34 37 38 37 38 38 40 42 48 44 44 45 47 55 57 62 65 66 66 71 79 55 56 39 37
58 55 69 91 95 96 90 79 71 74 67 60 54 48 41 37 38 43 40 43 43 43 37 35 38 40 44 43 46 46 44 49 51 55 56 59 61 67 66 65 53 53 44
64 84 92 93 94 93 86 79 71 74 59 55 51 43 39 38 39 42 40 38 38 40 35 34 36 40 41 42 45 48 50 51 51 50 51 59 61 63 65 67 62 59 53
76 82 86 88 89 87 82 76 72 69 57 54 53 48 44 46 44 41 39 38 38 38 34 34 36 36 38 40 44 52 53 49 52 47 50 57 58 62 64 69 71 71 61
83 86 89 86 85 83 79 72 66 59 53 48 45 44 42 40 37 35 36 37 35 30 34 36 37 38 39 41 45 51 47 49 50 51 54 58 62 66 70 73 76 77 81
86 91 88 83 79 74 69 61 53 49 45 42 38 36 35 33 32 31 32 32 32 34 36 37 38 40 42 44 46 49 50 47 51 48 54 58 64 67 73 78 77 78 80
85 86 82 74 68 63 58 52 45 41 39 36 34 32 31 30 30 30 32 33 34 35 37 39 40 42 44 46 47 48 45 49 54 55 58 62 63 70 74 78 74 76 78
86 80 74 67 62 57 51 45 40 37 36 34 32 32 32 31 32 33 34 34 36 38 39 41 42 44 46 47 47 47 49 54 58 59 63 65 50 67 71 73 74 77 73
84 76 69 65 59 52 45 40 37 36 35 33 32 33 35 35 36 37 37 37 38 41 42 43 44 45 48 47 46 46 52 58 62 64 67 68 70 72 75 74 75 74 67
82 75 68 62 55 47 42 38 38 36 35 34 35 37 38 38 39 39 39 40 41 41 44 44 45 47 46 46 44 53 62 64 62 66 68 69 70 73 73 72 67 61 67
82 74 67 61 53 47 41 38 38 37 36 38 41 42 43 43 42 42 41 42 42 43 45 45 46 47 45 32 54 60 66 70 69 70 67 67 68 64 61 57 62 64 74
77 72 63 58 53 44 40 38 40 41 40 42 43 44 44 42 43 41 40 40 43 45 47 47 48 49 36 47 50 54 69 71 70 73 68 71 67 69 66 66 64 62 70
76 70 63 56 50 43 38 40 41 43 42 42 42 42 42 42 42 38 38 41 45 48 49 49 50 50 52 50 54 54 65 71 76 75 72 66 57 69 73 78 73 76 79
77 71 63 57 50 43 42 42 42 44 44 42 40 41 41 39 37 37 41 45 48 50 52 51 52 54 46 56 55 57 69 73 76 74 75 77 74 78 67 65 97 88 73
75 71 62 54 46 43 41 41 45 44 41 40 40 38 37 35 37 41 46 49 51 53 53 52 53 56 60 59 58 60 70 71 71 68 75 78 71 66 66 84 84 67 64
75 71 59 50 44 42 39 40 43 40 40 39 37 36 35 37 43 48 49 52 54 48 48 49 55 60 63 62 61 58 63 70 64 66 66 64 62 64 75 60 64 76 66
70 59 54 49 43 39 38 41 41 40 39 37 38 37 38 46 49 52 54 55 54 54 61 59 66 66 67 74 61 60 60 64 63 60 62 67 66 66 62 62 65 68 69
64 54 50 45 41 38 38 40 40 42 40 43 40 44 49 42 46 54 56 56 61 67 69 73 68 68 72 65 62 60 61 60 59 64 70 64 66 64 64 65 70 69 68
54 48 45 44 45 43 34 37 45 41 42 42 49 52 52 53 53 56 59 62 68 74 76 69 73 68 60 72 64 64 65 60 62 66 63 68 66 65 66 70 70 69 72
51 46 43 42 43 42 39 39 42 41 43 51 54 57 65 60 61 53 55 72 74 78 66 70 70 75 68 69 63 64 66 64 69 66 71 66 64 67 69 67 64 67 69
47 44 43 42 44 40 42 42 42 43 47 52 54 61 62 63 63 59 67 77 78 72 69 73 70 72 69 61 59 60 59 62 62 64 67 65 69 75 71 69 69 69 70
47 46 44 42 44 42 46 47 47 48 51 52 55 67 63 69 63 70 73 59 56 56 56 55 56 55 59 60 62 63 64 64 67 69 73 79 80 81 77 78 78 77 82

GFSMW_sfc_rhum_039.txt.gz
RH
42 41 41 38 41 47 55 58 76 82 72 68 65 61 60 70 55 48 38 38 40 35 34 33 32 32 31 28 25 31 32 34 37 30 29 32 34 40 38 25 30 31 31
46 44 42 42 46 47 58 69 77 76 68 65 63 58 72 72 68 45 39 38 37 34 31 32 33 31 32 30 29 31 32 34 43 33 38 32 24 31 26 35 32 30 28
39 40 44 47 59 62 64 71 74 70 66 57 57 54 61 55 51 40 44 44 33 31 32 33 32 34 34 34 35 36 39 34 40 37 30 28 28 38 29 28 33 27 27
36 39 45 49 64 65 73 74 72 66 58 53 55 56 63 57 45 44 42 36 32 33 30 32 31 32 34 33 33 32 34 37 35 36 31 39 36 31 30 31 28 29 25
36 42 47 48 55 77 82 76 70 62 56 52 54 55 55 53 40 34 33 32 33 30 31 32 35 33 33 33 33 33 34 32 36 37 38 38 35 42 45 33 30 29 28
41 43 46 53 70 84 85 77 68 62 56 54 50 49 44 38 34 34 34 36 29 31 32 31 33 32 33 34 34 34 36 34 38 38 38 36 36 35 37 38 38 40 30
54 56 66 73 82 89 84 74 66 63 55 51 46 40 35 31 31 32 32 29 28 30 30 30 29 31 35 36 36 40 44 42 40 37 34 38 40 40 41 44 42 42 38
55 59 64 74 80 87 79 69 65 62 53 48 40 35 37 37 36 33 30 27 26 28 30 29 29 30 32 32 35 40 41 43 40 38 37 38 38 41 44 45 49 52 38
50 65 74 78 82 84 76 70 64 59 52 47 41 39 36 36 33 30 27 27 27 26 29 30 31 32 32 33 38 37 34 35 36 37 39 40 41 44 45 47 49 54 56
54 71 79 83 83 80 72 65 57 52 47 42 38 35 31 28 28 26 27 27 26 28 30 30 31 32 33 33 33 33 36 34 38 38 40 41 43 45 47 50 50 52 57
60 75 83 81 79 71 64 56 49 45 41 36 32 30 27 26 24 25 26 26 27 28 30 30 31 32 32 32 31 32 34 38 42 43 44 47 46 48 47 50 52 54 54
83 85 78 73 70 62 55 48 42 38 35 31 28 27 26 26 25 26 27 27 29 30 31 31 31 31 33 32 31 33 38 42 45 47 49 49 44 50 48 49 52 56 54
82 75 71 69 62 55 46 40 36 34 31 28 28 27 28 28 27 28 29 29 31 32 32 32 32 32 34 34 32 36 41 46 48 50 52 52 50 49 50 53 57 58 56
77 74 68 62 54 46 39 36 34 31 30 29 30 31 30 30 29 30 31 32 32 33 34 33 34 35 34 34 34 43 48 50 50 53 53 52 52 53 56 58 58 59 60
76 70 64 54 46 40 36 34 32 31 30 32 35 35 35 34 34 35 34 34 34 35 36 35 35 35 34 27 42 47 51 54 55 54 51 50 56 63 60 55 57 57 65
74 66 59 49 44 39 36 35 34 34 34 36 38 39 36 35 37 35 36 36 36 36 36 36 37 36 30 48 51 51 50 53 55 54 50 51 62 62 64 64 64 63 66
71 63 55 48 41 38 35 35 34 35 36 37 37 36 34 36 36 35 35 36 37 36 37 36 37 37 38 52 54 54 50 54 53 52 52 52 50 61 60 67 69 68 89
68 60 52 46 40 36 36 36 36 37 38 37 36 35 35 35 35 35 35 37 36 36 36 37 38 40 39 58 55 57 51 54 53 54 54 56 57 59 62 58 90 88 62
64 57 50 44 39 38 36 38 39 38 36 36 35 33 32 34 34 36 37 38 37 37 38 39 41 44 48 60 59 56 52 53 53 54 54 57 53 61 61 74 88 58 53
64 58 49 42 39 38 36 38 39 35 36 35 34 32 33 34 37 38 39 40 39 37 39 40 44 56 49 61 60 56 52 56 54 54 50 58 59 62 69 62 59 68 55
63 52 46 42 40 37 36 38 37 36 35 34 33 34 35 38 39 40 41 40 41 43 45 47 50 51 53 54 61 60 53 55 58 53 52 56 64 70 64 63 55 61 66
60 50 47 43 39 36 37 37 37 35 34 35 38 39 40 37 40 41 42 43 47 49 50 55 52 51 53 60 60 61 61 60 54 56 60 58 67 64 64 62 70 70 67
54 47 44 44 41 38 33 36 36 35 36 38 42 43 42 43 42 42 45 45 51 54 55 56 57 55 51 52 64 64 64 60 59 62 61 67 67 65 62 68 70 70 60
50 46 43 42 40 35 34 35 35 36 38 42 49 49 47 48 46 44 45 52 55 58 57 58 58 59 55 54 53 54 55 61 68 63 64 63 63 66 66 62 58 57 59
48 44 42 41 41 38 36 35 38 39 42 46 48 50 50 49 49 49 51 57 58 60 55 57 56 57 58 53 58 59 56 62 60 62 59 54 57 63 60 60 60 61 61
45 44 42 40 40 38 39 41 43 42 44 49 52 52 50 52 51 54 54 57 54 56 55 54 54 50 58 61 64 64 67 64 67 62 60 66 68 70 67 70 70 69 77

GFSMW_sfc_rhum_042.txt.gz
RH
24 26 26 27 29 28 28 29 33 40 48 53 56 60 60 65 66 64 52 46 39 34 34 28 25 25 24 22 20 23 25 26 25 22 20 23 24 31 29 24 20 24 23
18 21 24 25 27 29 30 32 38 45 52 52 53 52 59 70 74 58 50 43 34 34 33 26 26 24 23 23 22 24 26 26 28 25 28 24 20 23 26 20 23 20 21
19 17 17 23 30 32 31 35 40 50 53 53 54 56 59 55 54 48 45 40 30 26 30 26 25 25 25 27 27 28 30 27 28 26 25 25 24 24 19 21 19 21 20
21 20 19 18 27 31 35 37 44 52 54 56 55 58 60 63 57 46 47 46 37 29 25 24 24 25 25 26 26 23 24 26 27 27 22 29 24 24 23 20 19 20 19
19 21 23 23 22 34 40 45 49 54 54 53 53 56 57 52 48 46 40 41 33 30 27 24 26 25 25 26 27 26 25 22 27 28 27 26 25 26 31 30 22 21 21
20 21 23 26 27 34 50 54 54 54 53 54 53 56 55 51 47 40 46 45 42 32 25 24 25 25 26 27 27 27 28 26 30 28 27 28 28 26 29 29 30 30 23
21 25 28 32 33 38 56 58 54 55 53 53 53 51 49 50 48 38 40 36 27 30 26 24 22 24 28 28 28 33 38 36 33 30 26 27 28 29 31 33 32 31 26
24 22 29 37 39 46 56 57 54 54 51 51 49 46 42 34 31 30 30 30 28 26 24 22 22 24 25 25 28 32 33 37 32 31 29 29 28 30 33 36 38 39 30
28 28 25 36 40 48 56 56 53 52 50 48 43 36 32 33 30 29 28 26 24 21 23 23 23 24 24 24 30 27 25 26 28 28 31 32 32 34 34 35 37 42 44
37 29 25 38 44 49 55 54 50 50 48 41 37 34 32 29 27 26 27 23 20 21 23 23 23 24 24 24 24 23 25 25 26 29 32 33 32 34 35 38 38 39 42
46 34 29 41 50 55 58 54 50 48 44 39 34 30 29 26 25 24 22 21 20 21 21 21 22 23 23 22 21 22 24 28 31 33 35 37 36 37 34 36 36 39 40
57 50 46 54 60 61 57 51 47 44 40 34 30 28 26 24 23 22 21 20 20 20 21 21 21 22 23 21 20 22 26 31 34 35 38 38 33 37 34 35 38 40 41
59 62 60 60 60 57 52 47 42 38 33 29 28 27 25 23 22 22 21 20 21 22 23 23 23 22 24 23 21 25 28 33 35 38 40 40 38 37 38 40 44 45 42
63 62 60 58 56 54 46 40 35 30 29 28 27 27 25 24 22 22 22 22 22 24 24 24 24 25 23 24 26 32 35 36 36 40 42 41 40 40 42 43 44 43 49
69 65 62 58 54 44 38 34 31 29 28 30 31 29 26 25 24 25 24 24 25 26 26 26 25 25 27 20 35 36 37 38 38 38 38 38 44 57 57 51 50 50 55
72 63 59 53 45 40 36 34 32 32 32 35 33 30 28 26 28 27 26 28 29 28 28 27 26 27 23 42 51 50 40 38 39 38 37 36 46 46 57 59 60 62 71
68 62 54 48 42 40 36 34 32 32 32 31 29 27 26 28 28 27 28 30 30 28 28 27 27 26 28 46 54 54 43 40 39 40 40 38 37 48 45 53 60 63 67
60 55 50 46 40 37 37 33 32 30 30 29 27 26 26 27 27 28 30 32 28 27 26 27 28 30 28 53 56 57 42 39 40 40 41 44 45 45 49 51 74 78 58
52 50 46 42 35 32 29 29 29 30 30 29 27 25 25 26 27 30 31 29 28 27 26 29 30 30 31 47 58 55 41 40 41 40 40 44 45 52 60 65 91 51 44
48 44 39 35 32 30 28 30 31 30 30 28 25 23 24 26 30 32 31 30 28 29 29 28 29 36 33 43 57 54 43 43 41 42 40 49 49 58 64 66 53 58 44
47 39 36 34 31 29 30 32 32 31 28 26 26 28 29 31 31 30 29 30 30 31 28 29 29 32 35 38 54 58 48 45 47 44 41 42 56 62 63 62 51 51 58
48 42 40 37 33 31 32 33 33 31 30 31 34 35 33 30 29 31 30 31 31 30 28 31 30 29 31 41 48 59 61 58 49 47 47 49 62 63 64 60 63 68 67
50 42 38 35 32 32 31 34 33 32 34 36 36 33 31 31 30 30 32 30 31 30 31 34 34 33 33 33 47 56 56 55 51 58 58 62 62 63 56 58 67 66 51
44 39 37 36 34 34 33 33 32 32 33 32 32 32 32 32 32 34 32 31 31 34 37 36 38 38 35 35 38 44 46 51 58 60 59 54 56 54 55 50 49 48 52
42 38 36 34 34 33 32 31 32 29 30 33 35 36 35 33 33 34 31 32 35 46 42 40 39 42 43 42 56 58 52 57 59 60 48 44 43 49 48 50 51 53 54
41 39 36 34 32 31 32 32 29 30 31 33 35 35 34 33 34 33 30 50 52 52 52 52 51 45 53 60 64 64 64 64 65 56 49 50 54 56 56 60 62 64 73

GFSMW_sfc_rhum_045.txt.gz
RH
19 19 20 22 21 20 22 23 24 26 30 38 45 47 52 74 88 83 62 57 50 44 41 36 32 30 28 26 23 26 28 30 28 30 31 30 30 34 34 33 26 26 26
17 17 18 21 22 23 26 26 25 27 34 39 44 45 59 79 84 74 58 50 47 41 35 35 32 27 26 25 25 26 30 30 31 29 36 38 32 30 32 29 25 24 26
17 14 14 18 26 26 25 27 26 30 37 41 45 49 66 67 68 66 61 55 48 46 45 43 31 30 31 34 32 33 37 36 33 29 32 36 36 31 26 26 24 24 27
16 16 15 15 18 25 28 29 30 33 39 46 50 59 68 70 67 71 67 56 42 39 34 31 29 29 31 31 31 26 27 34 33 33 23 36 30 30 30 28 25 24 21
15 16 17 20 18 22 31 35 33 36 44 48 53 60 60 60 59 65 55 55 50 34 29 33 34 30 30 28 30 28 27 24 31 32 32 30 30 28 34 38 31 26 25
15 15 18 21 22 27 33 42 40 43 47 54 52 56 58 55 54 58 64 64 49 37 31 30 30 29 31 31 29 30 31 29 33 31 29 31 33 31 35 35 36 36 28
16 17 18 21 22 28 31 42 43 46 50 52 51 52 56 53 55 59 66 51 45 39 36 29 26 28 32 30 30 38 44 41 39 34 29 28 30 31 32 36 39 38 32
18 23 23 24 25 32 32 41 46 47 48 50 52 53 50 50 52 47 40 36 36 34 29 25 24 26 26 27 32 38 38 41 38 35 34 34 31 32 34 39 44 46 39
23 28 28 24 25 30 33 44 48 47 49 51 52 50 49 46 43 34 32 31 31 27 26 26 24 24 24 24 33 31 26 26 28 31 34 35 35 37 38 39 41 48 52
28 31 28 26 22 30 34 45 45 47 50 51 48 44 37 31 30 29 29 30 28 30 25 24 24 24 23 23 24 24 25 24 27 30 32 34 35 36 39 43 42 42 47
30 37 30 25 26 32 40 45 46 49 50 46 40 36 32 28 28 28 28 26 26 26 23 22 22 22 22 21 21 21 22 26 29 32 34 36 36 39 38 40 40 43 44
36 42 37 34 37 42 51 49 48 48 45 39 37 33 28 28 27 27 26 25 24 21 20 20 20 20 21 20 19 20 23 27 30 32 36 37 31 40 38 38 41 44 43
35 46 46 47 49 58 55 49 47 44 39 36 32 29 29 29 28 27 29 25 23 21 20 21 21 21 23 21 20 22 24 28 32 35 38 40 40 40 41 42 45 47 42
47 51 50 51 54 57 51 47 44 39 35 32 29 29 28 26 25 24 24 23 22 23 23 22 23 23 22 23 24 29 32 34 34 36 39 38 41 41 42 46 51 48 53
57 59 58 56 58 54 46 40 37 33 30 32 31 31 29 27 26 26 25 24 24 24 25 25 24 24 27 20 35 37 38 37 36 37 36 37 44 48 50 49 56 57 61
74 68 61 59 50 44 40 36 32 33 30 33 36 32 30 28 30 28 27 28 28 28 28 27 25 26 22 43 48 51 44 40 38 40 36 36 43 42 48 54 54 54 61
71 64 59 50 45 38 34 34 33 34 38 40 34 32 29 30 30 28 29 30 30 29 28 27 26 26 27 42 52 54 46 43 40 39 40 39 34 46 45 50 53 58 63
63 57 50 49 40 38 38 39 40 37 39 38 35 30 29 28 29 29 31 32 29 28 26 27 27 29 26 44 52 56 46 39 39 39 41 43 44 45 48 51 70 74 73
52 49 43 43 45 47 44 44 45 40 36 34 31 27 27 28 28 30 30 29 28 28 26 30 29 29 28 41 50 55 45 42 42 39 40 42 45 48 53 60 81 74 56
51 53 55 62 76 73 65 64 57 50 47 32 26 24 25 27 30 32 31 30 30 31 31 30 27 28 32 34 45 53 46 46 44 46 43 48 45 52 57 58 63 67 57
59 56 52 64 56 49 39 35 32 30 26 24 25 27 29 31 32 31 30 30 32 35 30 31 26 27 30 35 43 51 51 50 53 54 48 45 55 58 61 61 59 60 58
43 37 35 33 30 28 30 32 30 27 29 32 34 34 33 29 29 32 30 31 31 33 28 28 32 29 27 34 39 48 54 55 52 51 50 56 61 61 60 59 59 62 64
59 49 40 41 41 39 36 37 33 34 35 36 36 34 31 30 31 30 33 31 30 29 28 34 35 34 34 31 39 44 51 54 51 52 59 61 61 58 54 54 58 57 55
61 51 46 39 36 33 33 33 34 34 33 33 33 32 32 31 32 38 34 30 29 31 36 35 37 38 36 36 40 48 52 55 58 64 65 58 55 49 50 50 50 53 56
40 37 36 35 35 33 33 32 32 31 32 32 34 37 37 32 33 34 30 29 33 45 45 43 42 45 47 46 58 60 57 60 61 61 60 52 46 53 52 53 57 59 60
40 38 37 36 35 34 33 32 31 32 34 35 37 38 36 33 35 33 28 50 48 48 52 52 52 50 55 59 65 65 64 64 64 62 56 53 60 61 60 64 68 70 77

GFSMW_sfc_rhum_048.txt.gz
RH
26 26 26 28 27 26 31 32 37 36 36 48 60 67 70 76 85 87 71 74 75 62 55 56 46 45 45 42 36 40 42 47 44 45 44 44 40 46 42 42 40 36 33
25 23 26 30 30 32 32 32 36 37 37 38 54 64 94 90 96 92 81 73 65 62 53 50 44 39 37 34 33 42 43 46 43 42 50 50 45 41 39 49 34 33 32
23 22 22 25 32 32 35 33 38 37 40 50 64 82 86 82 86 75 69 66 67 66 70 68 51 37 42 46 42 43 46 50 45 39 48 49 52 45 40 36 40 30 39
23 23 23 24 22 32 32 38 40 37 45 57 63 80 84 92 93 90 83 66 66 61 57 62 50 39 47 44 42 39 39 48 46 46 35 45 42 46 46 42 37 33 29
24 24 25 25 25 29 40 32 41 36 47 50 59 82 83 87 81 71 69 63 66 59 51 43 47 42 44 37 40 39 37 39 49 48 47 42 45 42 48 55 48 42 39
23 24 25 29 32 34 36 48 50 49 56 59 71 75 76 78 77 67 73 71 63 51 41 36 39 40 43 43 42 42 43 44 46 45 43 46 48 48 51 54 52 50 43
23 26 30 32 32 33 41 40 56 55 66 74 76 71 71 70 71 71 70 55 50 47 46 44 41 44 43 43 47 55 56 53 56 45 46 44 44 46 46 52 58 60 50
26 30 41 41 40 39 41 42 59 62 72 71 72 72 63 66 67 68 56 57 51 48 42 42 38 34 38 44 51 57 58 55 59 44 45 48 46 47 49 54 61 61 62
27 40 41 40 38 41 44 43 64 66 72 70 72 62 61 63 67 57 49 48 43 35 38 34 31 35 35 38 46 51 41 39 41 42 45 48 50 52 54 56 58 67 65
35 40 46 44 37 39 46 46 64 68 69 73 60 58 61 58 50 39 41 39 30 31 31 37 30 31 33 32 36 36 33 33 40 42 41 46 50 52 56 60 61 63 67
35 46 52 50 42 41 51 60 67 66 70 62 52 45 41 39 36 35 32 30 30 29 29 33 28 30 30 29 30 30 31 33 38 41 45 48 48 55 57 59 59 61 64
36 53 56 57 52 50 60 67 63 61 54 43 41 37 35 32 30 29 29 29 29 27 26 25 27 28 28 26 26 28 30 35 40 43 47 50 39 54 56 58 57 61 62
36 59 60 57 64 78 73 71 60 49 44 41 37 35 35 33 29 29 30 28 30 28 29 27 29 30 31 28 27 30 34 38 42 46 49 52 54 58 60 59 64 68 55
45 66 70 64 79 83 71 57 48 43 41 37 35 34 32 30 29 28 29 29 26 28 29 31 32 32 29 29 31 37 42 46 46 49 52 51 53 56 58 59 66 62 72
70 71 72 69 74 74 59 50 43 41 35 35 36 35 31 28 28 29 28 34 32 31 33 34 32 31 34 31 48 52 54 54 52 51 48 48 54 49 49 49 68 72 76
79 76 74 68 57 49 48 43 43 40 35 38 42 35 30 30 32 31 34 35 37 36 35 35 32 40 23 43 47 54 60 58 55 56 52 50 51 51 48 51 53 54 61
78 78 70 52 46 44 41 45 39 41 41 39 36 35 33 34 36 34 34 38 37 38 34 34 34 32 42 44 47 51 60 62 61 56 54 50 39 54 58 59 53 57 60
73 69 52 46 41 38 38 38 40 42 44 43 37 35 34 34 36 36 38 40 36 36 36 34 33 35 37 44 47 54 62 58 57 54 54 57 58 59 54 56 83 84 83
54 50 44 42 39 41 42 47 47 48 45 49 45 35 35 36 35 35 36 37 37 33 33 35 34 37 42 44 43 53 63 59 60 53 55 56 59 55 52 64 85 75 77
48 52 53 52 59 58 51 54 52 52 53 48 43 40 47 40 40 41 39 37 37 37 37 35 36 37 41 37 41 49 61 69 66 66 62 59 51 56 57 60 67 75 68
78 71 75 84 86 82 81 84 85 85 81 77 75 59 40 38 36 36 36 38 41 41 40 37 37 36 38 43 38 44 58 67 68 75 67 62 58 60 61 60 64 65 59
84 86 95 94 95 92 88 90 83 72 52 41 38 37 36 36 34 38 40 40 41 41 38 42 46 44 40 40 43 42 46 53 63 64 66 69 64 62 60 59 57 58 60
48 47 51 49 42 36 32 38 42 38 37 36 37 37 36 38 40 42 44 43 40 40 42 47 51 52 49 49 47 54 56 60 61 62 62 64 64 63 60 56 57 57 65
76 69 63 62 62 54 46 42 37 35 35 36 38 40 41 44 44 47 44 42 46 50 52 53 60 62 59 59 64 65 76 66 66 70 82 66 62 56 54 58 59 64 66
66 46 43 40 38 36 36 34 34 33 36 41 48 49 46 44 45 45 46 48 65 61 66 70 67 70 74 62 61 64 65 68 64 63 70 67 63 68 64 64 65 67 69
42 41 39 37 36 35 35 36 37 38 42 46 51 53 51 49 48 45 49 46 45 43 46 48 54 59 56 60 62 64 63 62 63 66 67 70 74 75 71 72 74 76 82

GFSMW_sfc_rhum_054.txt.gz
RH
34 37 36 34 34 33 34 42 51 70 78 89 93 96 95 95 93 93 78 74 79 75 73 67 58 53 48 47 39 45 39 43 47 42 45 47 48 46 47 50 45 44 39
34 35 35 36 36 35 35 38 47 50 72 75 77 90 92 95 93 94 91 81 77 75 76 60 53 48 48 44 43 45 50 47 47 42 54 45 40 46 42 53 46 44 41
29 30 33 33 34 37 40 39 41 50 63 69 87 99 98 98 99 99 96 89 80 79 78 66 61 56 52 48 44 48 47 49 48 44 46 52 44 47 41 46 44 39 43
31 29 30 32 32 34 34 40 42 47 52 84 92 90 86 95 97 95 97 94 83 82 78 70 66 69 66 48 52 51 56 56 47 49 39 48 43 34 29 39 44 44 36
35 34 35 31 31 32 33 36 43 48 54 72 86 89 85 93 99 98 95 93 93 88 78 69 65 69 71 56 54 56 54 54 54 53 50 46 50 47 43 37 46 47 45
35 35 35 34 36 39 37 39 47 51 55 63 78 86 96 98 98 97 97 92 92 91 80 64 70 73 64 64 61 47 46 49 47 51 49 50 48 51 52 54 55 54 50
31 38 46 46 45 45 45 43 42 40 54 64 81 85 94 94 93 93 93 92 86 83 77 70 67 68 58 50 50 56 60 50 48 44 49 51 50 53 52 54 55 57 58
33 32 46 49 47 51 50 48 47 47 47 68 88 93 91 93 93 90 89 85 80 77 72 63 58 57 47 52 57 63 64 55 54 44 47 53 52 52 54 55 58 64 66
39 36 47 50 50 47 47 51 51 51 52 75 96 96 95 94 92 92 88 82 78 66 64 60 53 50 50 51 57 57 50 48 46 45 45 53 57 60 60 62 64 65 69
45 42 47 53 53 52 54 59 60 58 59 93 95 94 94 93 90 86 84 74 64 56 59 54 48 49 47 47 46 43 39 39 46 46 43 49 56 57 62 64 66 72 72
54 50 48 49 56 58 58 60 67 74 96 91 91 95 95 91 86 86 77 61 49 49 44 40 42 42 41 39 38 41 34 36 39 42 44 49 51 57 62 66 67 69 74
59 60 52 60 66 66 77 83 86 96 89 85 89 92 88 86 84 78 64 51 48 41 41 37 38 39 40 32 34 37 42 47 44 43 48 49 42 56 60 66 66 69 70
66 71 70 68 72 88 91 90 88 79 79 80 83 81 82 79 75 60 50 46 40 35 34 34 33 32 32 31 31 33 36 40 46 51 52 52 57 61 66 68 70 72 60
64 64 68 72 90 82 77 70 65 68 67 72 68 71 68 61 47 42 37 37 37 38 39 38 35 33 34 44 50 55 62 66 56 54 56 56 58 59 61 62 66 65 75
72 70 78 84 88 75 69 69 70 73 73 68 62 59 52 47 41 40 39 39 38 38 40 44 53 61 65 61 67 71 69 59 53 58 56 57 58 55 53 55 69 74 78
73 78 77 80 66 66 69 72 71 66 73 66 62 51 46 49 49 46 48 46 52 59 64 77 77 63 52 65 63 59 58 56 58 64 62 58 55 58 56 55 53 54 71
78 65 51 49 52 61 62 68 67 69 66 57 55 55 50 51 53 54 57 63 66 65 70 56 49 60 64 56 52 60 59 64 64 63 64 59 51 67 68 66 60 62 61
54 56 49 51 54 58 68 73 73 78 74 72 70 62 67 73 72 74 75 83 88 75 73 70 67 66 55 51 51 59 63 66 65 67 67 72 73 72 65 70 83 84 83
56 51 49 51 51 54 55 62 69 76 82 80 78 80 79 83 78 81 80 62 51 60 58 46 41 52 56 48 47 60 67 63 64 65 68 72 75 66 60 70 89 84 82
53 54 55 56 63 64 63 66 72 77 87 85 92 91 96 93 91 82 85 93 94 82 63 52 43 43 43 44 38 48 65 64 63 68 70 67 62 61 62 67 78 83 73
78 72 73 76 73 71 71 89 91 98 100 95 98 98 96 91 95 99 99 92 77 57 42 43 46 48 48 50 42 46 60 64 75 77 73 70 67 66 64 61 71 68 62
92 90 96 99 92 88 93 98 98 100 100 97 97 96 94 96 94 92 77 58 47 48 50 52 58 55 55 56 56 56 59 64 76 75 75 76 68 64 63 63 63 62 64
92 94 94 98 98 96 92 97 99 97 98 96 93 87 66 48 42 44 48 48 49 50 53 55 60 59 60 69 64 64 62 64 70 75 69 68 64 62 66 66 64 65 72
88 90 90 89 85 81 86 95 88 72 57 56 52 46 49 50 50 51 48 51 53 55 54 58 64 73 72 70 73 72 79 72 72 76 83 63 62 65 66 66 66 67 71
58 54 53 52 51 50 50 47 46 54 59 46 55 58 53 49 51 53 59 62 61 50 56 69 66 70 72 63 62 64 64 74 67 70 66 69 71 76 72 70 71 72 74
63 59 49 48 47 47 45 42 42 46 49 54 54 57 56 52 54 57 56 53 48 46 46 52 57 55 52 55 60 62 61 65 62 69 75 81 84 83 80 81 82 82 87

GFSMW_sfc_rhum_057.txt.gz
RH
33 38 39 39 39 40 40 45 74 76 85 92 96 95 96 96 98 92 79 76 75 79 78 82 76 66 58 50 44 46 40 42 47 46 48 54 53 49 52 50 47 46 41
36 35 37 40 39 37 39 42 53 72 77 84 86 91 93 94 94 94 90 80 79 84 81 80 70 61 57 47 44 45 49 46 49 44 54 50 46 50 48 58 48 47 44
31 30 36 35 39 40 39 38 43 54 74 75 88 99 99 99 99 99 96 86 84 87 83 81 69 58 52 52 57 51 46 50 48 48 51 54 47 52 43 51 47 43 44
34 34 34 36 36 35 36 38 40 48 68 78 88 91 88 92 95 94 94 95 92 94 92 88 75 71 80 74 76 66 63 52 45 50 42 49 48 37 31 43 47 44 37
40 39 38 35 34 34 35 36 40 46 56 73 82 90 89 89 96 99 98 97 97 94 92 88 83 78 80 80 74 78 68 50 55 54 52 49 50 42 37 35 44 48 47
34 36 41 39 40 38 37 39 41 42 51 69 91 93 90 97 99 100 99 98 97 96 92 85 86 83 80 73 75 73 64 53 57 52 50 50 46 51 47 50 54 53 48
40 38 37 49 47 44 44 44 43 41 49 63 83 93 94 96 95 96 96 97 97 96 90 83 86 83 80 71 62 63 58 59 55 46 48 51 48 54 53 54 56 54 58
49 43 38 50 52 51 47 49 47 45 46 52 71 91 94 96 96 95 96 94 93 92 86 85 81 77 64 61 61 63 60 56 54 44 46 53 50 51 54 52 58 61 68
62 55 47 49 53 53 50 50 52 52 52 56 71 92 97 97 96 96 96 96 92 86 85 81 74 64 58 54 56 56 50 46 48 47 48 51 56 56 57 62 63 62 62
63 65 56 50 50 53 53 54 58 60 61 67 87 95 97 96 97 96 96 90 84 79 78 72 60 53 53 50 48 46 44 42 48 48 45 48 54 57 59 62 65 70 68
70 68 67 64 60 56 65 64 65 70 75 90 95 98 99 98 96 95 90 82 75 72 66 61 53 48 46 40 38 39 41 46 50 49 48 50 49 55 62 66 70 73 77
71 70 69 69 74 78 89 92 92 93 94 95 97 99 97 96 96 91 81 72 76 64 57 49 43 41 39 35 36 37 42 49 55 53 48 47 42 53 57 61 67 72 73
63 61 62 60 72 92 89 80 76 84 94 95 96 96 96 94 86 75 63 60 51 45 44 43 44 39 39 38 40 42 42 44 51 59 64 58 53 55 62 64 70 72 61
79 79 85 74 90 84 70 65 67 77 81 85 93 94 86 80 73 70 63 51 41 43 42 41 38 38 39 45 52 59 66 68 64 62 60 56 57 59 59 59 66 65 76
72 73 77 89 82 67 71 78 78 78 71 67 69 73 68 60 57 53 47 43 41 41 44 49 60 69 74 72 80 82 86 80 58 54 54 56 59 54 56 60 73 76 80
60 71 61 60 62 72 83 78 77 71 63 58 58 56 51 51 51 53 53 56 61 67 72 79 83 86 80 87 82 70 59 56 57 60 60 60 56 64 60 59 57 57 75
58 53 54 55 62 69 76 81 74 60 63 62 61 55 56 62 64 64 69 75 81 85 90 89 82 88 87 82 80 68 65 72 64 61 65 61 54 72 72 69 63 65 63
60 58 55 60 69 71 69 71 77 80 81 79 78 77 80 80 80 82 88 92 94 93 95 96 98 99 89 74 72 64 59 60 62 64 71 74 75 78 69 74 85 85 83
54 56 55 59 62 70 73 79 85 86 87 90 95 93 85 88 90 95 97 98 97 98 99 97 85 73 67 55 57 60 62 59 63 65 70 74 78 70 62 73 89 83 83
56 60 66 66 69 67 65 70 76 83 94 91 94 89 92 93 97 96 97 100 100 99 93 81 76 65 54 52 42 52 63 64 65 71 71 68 66 64 63 67 78 86 74
75 76 80 82 81 83 82 92 96 98 100 93 95 97 97 98 98 100 100 100 96 92 78 52 52 53 56 60 49 57 65 69 77 77 75 72 70 65 62 62 75 72 66
88 94 97 99 92 88 89 98 98 100 100 99 99 100 100 98 96 95 93 94 68 55 51 53 54 56 58 57 56 58 61 63 74 76 77 78 70 65 63 64 66 65 68
87 90 97 99 97 96 95 97 99 99 97 97 99 99 90 72 56 53 52 52 53 55 56 54 57 58 60 70 66 63 60 62 71 75 71 68 63 63 69 68 68 68 75
87 92 93 94 96 93 96 96 92 84 79 79 61 51 54 55 54 54 53 54 55 55 52 53 60 70 66 68 71 71 80 71 72 74 76 61 64 67 69 69 68 69 72
79 70 68 60 76 84 81 67 60 57 48 54 59 60 54 55 59 60 57 58 57 49 54 64 62 68 71 61 62 66 68 77 69 70 68 72 74 81 77 75 76 77 78
62 58 57 56 56 53 49 49 53 49 54 57 57 58 57 61 64 68 71 54 52 48 52 58 58 55 54 56 60 62 61 63 63 72 79 86 88 88 85 86 87 86 89

GFSMW_sfc_rhum_060.txt.gz
RH
40 41 39 42 41 46 46 46 76 90 94 97 96 97 95 94 94 97 89 91 81 86 86 90 93 85 77 68 51 50 44 46 46 48 52 56 57 52 58 63 54 53 48
39 37 37 40 41 40 45 46 47 68 91 92 90 87 90 90 91 96 95 90 86 90 85 87 88 82 76 62 49 48 50 46 52 46 54 48 48 55 52 60 50 53 48
36 33 38 38 40 42 43 44 46 49 81 86 92 99 98 99 98 97 98 94 90 90 88 88 89 78 69 69 65 63 51 54 49 49 53 56 52 55 48 56 56 50 49
38 41 40 39 40 39 41 42 44 49 64 90 93 93 90 93 92 92 93 96 91 92 90 90 89 83 80 79 80 74 76 76 68 60 43 44 46 47 38 46 49 47 41
41 40 43 41 41 40 41 41 40 48 53 77 89 96 94 94 96 97 96 96 96 92 94 90 91 85 84 88 80 82 78 78 73 68 71 57 46 40 36 33 45 51 50
52 48 46 50 50 49 48 45 42 41 50 65 89 95 94 97 98 100 99 99 99 97 96 94 88 85 86 86 85 81 74 66 66 63 58 57 50 45 44 39 47 48 43
58 53 50 49 52 52 51 50 49 45 49 61 80 92 94 96 95 97 98 99 99 99 98 93 90 88 88 85 83 78 79 70 64 55 54 52 48 53 50 46 51 46 55
70 64 56 56 57 56 56 54 51 50 49 53 67 86 94 98 96 96 96 96 97 96 96 95 94 93 88 84 78 76 71 58 55 44 48 51 52 49 49 50 52 53 62
70 71 68 59 58 58 58 60 56 55 57 59 62 71 89 97 97 97 97 98 97 96 95 94 91 87 78 73 72 68 60 47 48 47 49 54 57 58 56 56 55 51 52
69 74 72 66 63 64 65 67 66 64 66 75 79 81 89 94 96 98 99 98 97 94 94 91 86 80 70 61 54 48 42 42 50 52 49 53 54 57 62 65 66 66 58
74 76 74 72 72 76 87 92 93 94 94 95 95 96 97 99 98 98 98 96 94 90 86 78 73 65 55 48 44 42 42 46 48 51 52 61 64 76 72 72 65 66 68
78 78 75 76 79 91 90 83 79 88 96 97 98 98 93 95 95 93 89 84 82 71 69 59 52 46 39 37 37 39 46 50 57 59 61 64 61 70 65 66 67 62 70
86 84 82 88 91 90 80 78 78 84 94 96 97 94 93 91 87 79 74 69 64 58 50 45 42 41 40 40 44 52 58 58 66 71 76 76 74 71 66 62 72 76 60
74 71 83 94 92 82 81 82 80 81 85 92 93 90 87 81 78 70 62 56 51 52 49 44 42 45 47 52 59 67 75 78 82 80 75 72 70 70 66 58 61 64 73
67 64 73 81 81 80 72 72 82 78 72 78 79 72 70 68 66 62 60 60 62 58 52 56 60 66 69 73 84 88 89 90 90 92 92 92 82 60 57 62 71 74 77
61 54 59 64 71 73 86 78 77 73 67 68 61 59 60 64 69 69 71 79 73 66 72 77 83 90 88 87 86 88 92 93 90 86 64 59 59 72 65 57 57 61 78
62 58 63 67 69 71 71 78 71 66 67 63 62 65 67 74 77 79 82 81 83 85 91 91 90 94 92 89 90 87 91 92 81 63 63 57 54 71 74 71 65 68 64
59 59 60 69 75 73 76 79 83 81 81 77 76 75 79 84 85 88 91 94 94 92 94 97 98 99 97 92 85 83 75 62 62 63 69 74 75 77 70 74 85 85 84
56 60 65 65 69 73 77 80 83 87 89 91 93 87 85 90 92 98 99 99 99 100 100 100 100 96 91 82 81 77 62 59 60 62 71 74 76 69 64 76 91 89 82
60 68 69 68 70 74 73 82 95 96 99 97 96 92 94 97 99 98 99 100 100 99 96 95 95 90 90 74 60 64 62 65 70 72 72 69 67 64 62 67 81 86 77
76 79 83 88 86 84 86 97 97 99 100 94 97 98 98 98 98 100 100 100 99 93 84 73 63 64 60 61 60 61 70 74 80 76 74 72 70 64 63 62 77 74 69
86 91 92 98 90 87 92 99 99 100 100 98 98 100 99 99 100 99 96 90 70 60 59 57 56 58 62 60 60 60 60 62 73 75 78 81 65 64 62 66 67 66 70
85 92 97 96 96 92 95 97 100 99 97 97 97 99 98 76 62 59 53 55 54 57 57 52 58 63 63 74 65 64 61 64 73 73 70 67 62 64 72 71 69 69 79
87 90 95 96 97 96 97 99 98 91 95 90 66 56 57 56 56 55 54 55 55 57 51 51 61 70 68 71 72 71 81 69 70 74 74 62 66 70 72 71 71 73 76
87 82 80 90 96 91 88 81 73 57 51 58 62 59 57 60 60 53 53 56 54 52 57 64 62 68 72 63 64 66 68 78 69 71 70 77 80 86 82 80 80 82 82
70 64 66 73 78 67 58 60 54 55 59 58 55 60 64 71 72 77 79 56 55 56 57 60 59 57 55 56 60 62 61 62 62 73 84 92 94 92 89 89 89 88 90

GFSMW_sfc_rhum_063.txt.gz
RH
37 37 36 35 37 38 39 38 48 72 85 93 93 94 96 95 93 91 82 83 75 76 79 77 73 76 78 73 65 53 45 40 34 36 38 39 41 38 46 49 42 45 39
32 32 34 36 36 35 39 41 42 49 81 79 78 79 85 90 89 92 90 84 79 79 80 77 78 78 76 72 61 50 46 40 38 37 40 40 37 40 39 43 40 39 36
34 31 32 35 41 40 38 38 40 43 63 80 83 90 90 92 92 94 92 91 82 80 80 77 80 76 74 75 66 55 54 47 42 39 40 47 44 41 38 42 41 38 38
42 38 40 38 39 39 42 43 42 42 50 74 84 85 80 85 82 86 88 88 88 84 84 80 82 83 84 79 77 67 61 67 61 49 39 42 40 40 42 36 39 38 36
50 45 44 48 43 49 47 44 41 42 43 56 76 84 84 84 82 84 84 89 94 88 86 83 82 82 82 81 77 77 68 66 67 66 56 43 38 33 36 42 46 39 38
55 51 50 50 49 54 54 55 43 38 42 50 69 88 86 87 94 93 93 90 94 94 90 88 86 86 82 80 78 78 72 67 66 59 59 54 53 41 39 39 46 48 41
61 59 55 54 54 57 58 52 50 45 43 46 52 68 87 88 91 89 91 89 97 98 96 93 91 88 84 82 79 81 80 75 74 63 55 51 45 44 57 52 50 41 38
62 64 62 58 57 60 59 56 54 50 48 48 48 55 69 86 90 87 87 90 92 92 90 93 90 85 83 83 82 85 82 80 80 67 49 50 44 42 50 51 44 48 47
63 66 65 62 58 60 60 68 66 61 55 56 59 58 58 71 86 90 89 88 88 91 91 91 90 87 84 82 83 84 75 69 61 60 61 64 52 54 49 55 49 53 55
68 68 67 66 61 63 72 74 71 75 80 82 78 75 78 77 79 85 87 89 88 87 90 90 89 88 84 80 79 74 58 50 50 51 50 55 52 62 64 70 76 80 80
74 73 69 68 69 76 71 64 65 72 79 82 84 90 91 90 90 90 90 88 86 87 86 85 82 77 74 66 59 51 45 44 45 48 52 60 68 73 75 81 82 84 75
77 68 70 75 81 73 66 64 67 72 80 83 88 88 85 86 88 88 86 84 85 80 76 73 65 60 55 45 43 40 41 44 55 62 65 69 68 82 83 87 86 81 73
62 68 78 85 76 71 70 71 68 69 76 82 84 84 83 82 82 78 75 74 70 67 60 53 50 44 41 40 42 48 54 58 64 71 77 84 89 96 99 95 84 81 64
63 59 63 69 72 72 70 68 65 66 70 77 78 79 78 72 70 67 60 55 51 48 47 44 46 49 51 56 59 64 71 76 82 86 88 95 97 98 93 88 83 77 74
63 57 60 69 72 73 69 66 66 63 62 61 64 68 66 64 62 64 66 65 60 61 61 64 67 68 71 74 81 86 91 94 98 100 100 97 91 91 80 69 72 68 62
62 56 59 66 69 70 74 70 71 67 60 64 64 65 68 71 77 79 77 78 82 82 81 86 84 84 82 85 87 88 94 95 95 89 87 85 76 83 80 67 58 57 63
61 58 62 73 74 75 74 77 74 68 70 71 69 70 75 81 85 83 86 93 97 95 96 93 91 92 91 90 91 93 96 93 89 73 59 59 64 75 66 64 61 63 64
59 58 62 73 75 74 80 77 76 78 83 83 80 77 80 86 87 92 97 100 99 98 99 100 100 99 97 92 84 86 79 59 66 81 75 66 63 62 60 61 74 74 69
61 62 64 66 67 73 74 79 85 86 89 91 92 91 87 92 95 98 100 99 99 100 100 100 100 98 92 83 82 65 57 59 62 62 60 61 61 65 60 66 84 66 60
63 68 67 68 74 79 80 88 95 95 97 96 98 96 98 97 99 98 99 100 100 100 99 100 99 91 92 82 81 59 53 59 61 61 59 65 63 62 60 61 64 66 56
78 79 81 86 84 81 87 96 96 99 100 97 98 98 98 98 99 100 100 100 98 96 90 85 69 61 60 63 62 64 61 63 64 63 62 62 67 62 61 60 60 59 58
85 86 91 96 88 89 95 99 98 100 100 98 98 99 100 99 100 95 83 69 62 56 51 47 46 48 58 62 60 60 61 61 64 66 65 65 63 60 62 63 66 66 68
87 88 88 92 90 91 94 99 100 99 98 98 98 94 75 61 53 43 45 46 46 47 44 40 47 52 56 59 65 64 63 63 63 60 65 64 62 66 67 70 70 68 62
82 86 91 95 95 96 97 97 96 90 85 74 53 47 46 48 46 45 43 45 46 44 39 42 51 56 56 59 61 63 64 66 60 67 59 60 66 71 69 65 64 62 64
84 85 90 94 91 92 93 89 80 61 51 51 52 51 49 45 44 44 40 40 41 41 44 51 51 55 59 57 58 59 58 60 58 63 55 61 64 68 66 67 67 67 67
81 75 85 90 89 85 80 69 51 50 51 48 48 53 56 60 63 65 64 57 59 59 59 61 55 54 56 57 61 61 61 61 63 58 66 70 72 74 73 74 73 73 79

GFSMW_sfc_rhum_066.txt.gz
RH
21 23 24 23 26 25 25 23 25 33 45 74 90 91 90 86 86 82 64 60 57 55 58 55 53 52 57 64 63 58 55 50 42 36 37 33 31 30 31 34 33 35 34
23 21 20 21 21 23 24 27 25 26 31 45 66 66 72 80 81 88 84 70 67 63 61 62 58 55 58 60 65 61 58 52 42 47 46 48 36 31 29 33 33 32 32
26 25 24 23 27 27 26 26 28 28 28 35 44 59 65 80 84 90 87 81 76 71 67 68 67 67 61 62 65 64 62 59 46 41 48 53 54 37 33 33 34 33 34
30 29 32 30 31 30 32 31 29 29 29 33 43 54 62 69 70 69 71 74 75 84 74 73 69 72 73 68 71 68 61 60 55 43 34 40 35 38 40 34 34 33 32
36 35 37 38 36 42 41 36 31 30 30 30 39 51 58 56 59 62 66 68 76 86 86 78 76 74 74 73 72 76 67 66 61 56 48 41 36 32 44 40 38 37 35
39 38 40 39 41 43 42 42 34 30 29 34 35 48 54 57 65 66 68 69 76 88 90 89 87 83 81 77 74 77 74 72 68 64 55 49 49 44 38 37 37 37 37
44 43 43 41 44 47 48 42 38 34 33 34 33 35 46 56 63 64 66 69 76 89 90 90 90 90 86 82 78 78 82 79 76 70 63 54 46 46 44 49 52 46 38
47 48 48 48 44 47 48 49 48 42 36 36 35 34 40 44 58 66 64 66 69 82 81 85 88 90 88 85 82 83 83 82 82 72 64 53 51 53 49 50 56 50 54
52 52 50 48 44 47 52 53 49 50 51 53 48 41 40 45 49 56 63 68 70 77 77 83 89 90 89 87 87 88 85 80 82 78 66 63 66 62 64 63 57 59 59
54 51 48 52 52 54 52 49 47 52 57 59 55 55 58 58 59 58 58 59 62 70 78 87 89 88 86 86 87 90 84 82 77 77 75 72 63 62 69 74 80 81 81
54 50 51 52 59 53 50 48 49 53 57 59 64 72 70 68 69 70 70 71 70 74 78 82 85 87 86 82 81 75 72 72 77 71 77 76 73 74 71 75 78 89 91
51 56 61 60 54 52 51 50 51 53 57 61 64 70 67 66 69 69 69 70 74 72 74 77 78 76 74 66 59 53 50 52 55 60 64 70 68 82 86 88 92 95 98
52 53 54 55 54 53 53 52 49 52 56 61 63 65 64 62 63 61 61 62 66 65 65 63 58 54 50 52 46 48 55 58 61 67 73 76 81 93 98 99 98 98 98
53 52 51 53 53 54 52 50 47 48 51 55 60 64 62 59 57 55 50 49 47 46 46 46 45 48 50 54 57 64 72 79 81 86 86 90 94 98 100 100 94 82 72
53 51 56 56 53 54 50 50 51 51 51 54 59 62 62 60 60 64 64 61 60 61 62 64 63 68 70 71 80 84 89 93 98 99 100 99 98 95 86 75 66 63 65
55 51 56 57 54 55 56 56 56 53 52 56 59 61 64 70 75 78 81 81 84 83 82 86 84 85 84 84 87 89 94 94 93 94 93 92 82 79 79 73 69 61 62
53 53 57 63 60 59 58 58 56 56 58 62 60 65 68 73 77 81 84 94 96 95 96 95 93 95 95 94 93 93 98 96 92 87 83 78 68 73 58 60 61 59 62
53 52 57 64 61 60 62 61 60 62 67 66 67 72 74 80 85 93 97 99 99 100 100 100 100 100 100 99 98 92 80 72 75 71 68 59 56 55 58 55 62 65 60
50 52 55 62 64 64 65 70 70 70 74 78 81 79 80 93 95 99 100 98 99 100 100 100 100 100 99 89 81 70 75 82 75 61 52 53 50 58 62 59 80 58 51
52 58 59 61 63 69 70 74 81 86 93 91 96 95 94 97 99 98 100 100 100 100 98 100 95 78 77 80 76 56 49 47 47 49 49 60 60 60 60 57 55 57 45
64 68 68 68 69 75 81 92 94 99 100 95 97 98 98 99 98 100 100 100 99 91 83 70 59 58 60 58 65 59 50 50 52 52 50 51 63 61 59 59 50 51 56
69 73 77 82 76 78 89 98 100 100 100 98 98 100 99 94 92 86 72 60 55 50 44 42 41 45 50 57 60 62 62 60 53 52 51 52 60 60 62 61 65 66 67
73 75 71 76 79 82 92 96 100 96 96 95 94 85 70 46 32 31 34 34 33 32 29 30 32 38 44 46 62 61 61 61 52 52 60 58 59 61 58 64 69 66 53
74 76 77 81 87 90 92 94 94 83 73 65 52 38 32 32 32 33 30 29 28 25 26 29 36 40 43 47 49 51 48 56 49 61 48 53 60 64 63 56 53 53 54
73 77 80 82 92 94 92 84 77 64 52 37 34 36 34 28 27 28 24 24 30 31 31 40 39 41 46 51 55 56 51 52 52 59 41 45 49 54 52 54 55 55 56
73 78 76 83 82 78 76 71 59 49 35 33 36 36 36 37 40 42 46 60 59 61 61 59 48 46 54 57 61 60 62 59 64 44 46 52 57 60 59 60 61 63 70

GFSMW_sfc_rhum_069.txt.gz
RH
16 16 17 18 20 20 21 21 22 24 36 44 75 90 94 89 71 57 51 51 48 49 52 53 51 51 53 63 63 58 58 57 52 52 46 47 42 39 38 40 37 39 43
16 18 19 20 19 21 23 24 23 22 24 33 54 69 77 82 80 86 78 65 55 56 54 56 58 54 55 56 67 66 66 59 55 56 56 63 50 42 37 37 37 38 40
22 20 20 21 23 23 22 23 24 24 23 26 32 58 59 63 78 86 84 77 71 65 64 62 62 62 59 61 63 68 70 69 60 52 60 70 68 52 42 38 39 36 39
26 27 29 28 30 29 29 29 28 26 26 27 28 36 51 60 60 64 66 72 73 77 77 73 69 71 71 66 65 65 68 66 68 57 51 57 49 59 56 45 39 38 36
30 33 36 35 36 42 42 36 30 28 27 27 30 34 42 48 50 50 55 58 67 76 84 84 83 79 83 78 77 73 73 69 68 66 69 56 54 47 57 54 50 43 40
32 33 36 36 40 43 42 41 32 28 28 30 30 36 44 48 54 55 56 56 60 69 78 84 87 89 86 87 85 83 82 78 75 67 66 66 69 64 65 66 57 55 45
38 38 39 38 42 45 47 41 37 33 31 30 31 32 38 45 52 54 56 57 63 77 82 83 88 92 91 89 87 87 88 85 85 79 76 70 72 62 60 66 66 60 47
42 44 44 44 41 45 48 46 44 44 40 37 34 31 34 36 39 46 53 55 57 63 75 87 90 90 90 92 93 93 92 90 90 88 84 81 72 68 64 68 67 65 66
46 47 44 45 44 46 49 47 45 46 48 49 46 41 36 39 42 44 48 55 57 65 73 87 89 91 93 93 94 96 96 96 94 94 87 81 85 85 85 89 93 94 95
48 45 44 46 48 49 48 45 44 47 50 52 52 53 55 55 55 54 54 54 53 56 67 76 89 91 91 93 95 97 95 97 94 92 90 91 90 91 94 90 91 93 91
49 47 48 49 51 47 46 45 46 49 52 52 57 61 60 60 60 61 60 61 61 63 66 68 74 82 86 87 88 84 83 84 85 84 85 85 85 92 91 91 92 93 95
49 52 55 51 49 48 48 46 46 48 52 55 56 58 57 57 57 58 60 60 65 63 67 68 73 75 77 74 74 76 74 79 81 82 81 84 76 84 92 94 95 96 97
49 49 49 50 49 49 48 46 45 48 50 53 56 56 56 54 53 51 49 50 52 51 51 52 55 54 58 52 51 56 60 66 71 73 79 84 87 94 98 99 98 98 97
49 48 48 49 49 50 48 47 46 46 49 54 56 60 58 56 56 54 52 52 50 50 51 51 54 55 56 60 65 68 76 81 85 89 90 92 95 98 99 98 97 92 89
50 48 51 50 48 48 47 48 50 50 50 54 59 62 62 61 63 65 67 64 63 61 61 66 69 71 75 75 83 86 90 94 98 99 100 98 95 92 84 79 77 73 71
52 48 53 51 49 50 51 52 53 52 51 56 60 62 63 67 72 74 74 74 79 78 80 86 86 86 84 84 87 89 92 93 94 97 99 91 86 82 82 81 83 79 72
51 50 52 54 54 54 52 53 52 52 55 57 60 63 66 72 75 75 78 85 89 94 96 96 96 96 95 96 96 97 99 96 98 98 94 79 73 78 67 61 58 59 58
51 49 52 56 56 55 56 55 56 58 62 62 66 66 71 82 91 93 96 99 98 99 98 100 100 100 99 97 97 97 100 98 95 93 84 65 55 56 64 61 69 72 68
47 47 50 55 60 59 60 63 63 66 69 73 78 79 82 94 94 98 100 98 98 100 100 100 94 89 85 81 83 83 86 86 87 82 71 57 51 60 62 67 85 69 62
48 52 55 57 59 64 65 70 73 75 86 88 91 88 91 88 99 98 99 100 100 100 92 97 78 71 76 70 62 51 46 51 49 53 51 61 63 61 62 62 61 66 55
56 57 61 63 66 70 72 84 89 98 99 94 95 94 97 96 97 100 100 100 98 89 79 65 60 55 57 62 62 60 54 55 56 54 53 55 62 61 60 60 63 57 59
64 64 72 78 71 73 84 98 100 100 99 99 98 99 95 85 87 90 75 61 56 48 42 41 44 46 49 58 62 62 62 60 54 52 54 57 62 60 62 64 58 65 68
63 69 73 71 75 76 86 96 99 96 96 93 89 82 69 49 34 33 34 32 29 28 27 33 35 40 46 47 59 60 60 59 55 56 63 59 56 59 62 60 67 67 64
65 62 63 78 82 78 86 93 93 81 73 70 61 40 30 30 30 34 29 27 26 26 31 34 39 44 46 51 52 54 52 52 52 62 59 48 59 60 64 61 57 60 61
66 68 70 76 80 80 87 81 74 65 58 42 33 33 34 28 27 28 28 24 39 47 35 44 42 45 49 56 59 61 58 61 58 66 47 47 51 59 57 59 60 63 63
66 74 72 77 82 87 79 72 64 55 40 33 37 35 33 32 42 47 53 63 61 62 60 57 54 49 55 57 62 61 63 62 60 54 45 52 62 65 64 65 68 73 76

GFSMW_sfc_rhum_072.txt.gz
RH
24 24 22 25 28 30 33 33 35 40 63 75 94 97 91 96 95 86 69 66 64 63 68 70 73 70 74 81 79 81 78 82 76 72 66 64 55 51 52 56 54 54 54
23 22 26 32 28 29 33 34 34 35 37 52 79 89 94 91 84 95 93 90 80 74 68 71 72 79 80 82 79 76 81 80 81 80 73 74 68 58 48 52 51 53 57
32 29 28 31 35 33 35 35 35 34 35 36 52 87 89 94 97 92 86 85 88 90 86 81 81 84 81 88 83 86 83 77 84 70 77 90 86 65 57 48 56 52 60
37 36 38 40 44 51 49 45 42 40 37 40 42 63 84 88 93 95 91 86 83 85 90 92 88 90 91 87 94 87 90 92 84 90 62 76 69 70 65 56 50 52 50
40 44 44 45 51 56 57 50 42 40 38 37 41 50 55 66 80 82 88 91 92 90 90 89 96 91 90 90 89 94 89 90 89 80 93 80 80 72 74 68 59 55 54
44 47 48 50 58 60 58 53 44 40 38 40 43 46 52 58 73 80 80 82 84 94 93 92 91 92 96 96 96 94 95 96 87 81 85 89 89 82 85 86 75 68 60
49 51 53 54 58 63 64 56 56 51 47 46 43 44 49 57 67 74 81 81 84 88 92 94 95 96 96 95 96 97 97 96 93 86 87 91 93 87 84 84 80 73 65
58 59 60 59 59 61 65 61 59 61 62 63 61 54 49 60 62 62 69 81 82 85 87 92 94 95 96 97 96 98 98 97 96 96 97 96 88 86 86 85 84 90 91
61 60 59 61 63 66 63 61 60 63 65 67 70 71 74 75 76 71 66 74 82 81 93 91 95 95 96 97 98 99 99 99 98 98 98 92 92 90 90 90 90 92 98
60 59 60 63 65 62 61 60 59 64 66 70 76 75 77 78 80 81 84 81 81 83 88 90 93 93 93 95 96 98 97 97 98 96 94 95 94 94 95 96 96 98 98
60 62 64 66 63 62 62 62 62 65 69 71 77 82 82 80 83 85 84 84 84 85 86 83 77 87 88 90 88 89 88 90 92 92 92 93 90 96 96 96 96 98 97
61 66 68 63 62 63 61 60 62 65 69 71 74 74 73 70 68 66 69 71 74 66 68 67 68 67 65 73 76 77 80 83 85 86 88 91 85 94 94 95 96 96 97
60 66 62 62 62 62 61 60 60 64 67 70 73 73 72 71 70 67 62 58 58 59 57 57 56 58 58 56 60 65 72 78 80 82 84 88 90 96 98 99 99 98 93
57 58 63 64 64 62 62 62 63 63 67 72 75 79 78 76 75 73 70 69 69 71 70 69 68 68 71 74 76 81 87 91 92 93 94 94 95 97 99 98 97 90 90
59 60 63 65 64 63 64 65 66 67 68 73 77 81 80 81 82 84 81 83 83 81 76 77 79 79 84 83 89 88 92 94 98 99 98 98 93 91 94 95 86 82 79
60 58 61 61 64 68 66 64 68 67 68 74 78 77 80 81 82 81 82 79 87 88 85 91 90 87 83 84 87 89 92 92 96 98 98 98 98 97 90 84 78 76 82
56 55 62 63 66 67 64 69 69 68 71 75 75 77 78 82 87 85 86 92 92 93 97 97 96 95 88 88 88 88 95 96 97 98 100 98 91 91 88 67 56 61 64
54 53 58 67 69 66 68 69 71 75 79 81 80 76 84 93 93 96 96 97 98 98 98 98 100 100 97 88 87 89 98 97 99 98 96 92 76 72 77 72 78 78 76
56 54 66 70 73 65 66 75 76 81 84 87 88 87 92 96 95 98 99 98 98 97 100 93 92 90 91 76 77 88 96 95 93 87 81 68 64 60 61 77 88 78 67
58 68 70 65 66 70 70 73 77 84 92 88 93 87 88 97 99 98 97 99 99 99 89 97 91 78 86 60 55 64 79 77 73 65 68 61 66 62 62 73 78 77 66
67 69 71 69 74 76 79 89 91 98 99 93 90 92 92 98 98 96 100 99 97 96 93 88 83 84 79 74 64 62 74 75 73 67 67 68 61 60 60 60 80 68 71
73 74 80 84 79 82 90 99 99 99 99 97 98 99 97 92 93 95 92 87 82 72 64 64 68 71 78 64 63 61 61 65 69 66 74 77 60 57 59 66 62 67 72
77 82 82 80 79 81 93 97 98 97 97 96 95 87 91 94 92 69 61 53 47 45 43 48 58 63 62 78 56 57 57 56 68 72 66 58 51 56 66 58 63 64 78
80 81 81 83 82 83 86 96 96 91 85 84 82 80 50 44 44 45 41 41 40 39 44 47 56 63 65 74 79 74 78 65 69 73 82 52 52 54 63 66 65 70 73
77 77 80 81 80 85 89 91 87 79 75 73 51 46 48 45 48 74 54 60 73 64 56 63 60 67 72 75 66 69 73 80 69 72 66 57 62 71 71 70 72 75 77
80 80 72 77 78 85 87 83 76 68 56 46 52 53 47 43 62 73 82 63 63 59 58 57 63 63 56 58 62 62 64 65 58 72 60 72 86 89 79 81 85 88 76

GFSMW_sfc_rhum_078.txt.gz
RH
29 28 29 38 47 55 88 93 93 90 94 96 97 97 97 96 96 91 82 73 69 70 73 78 82 88 83 77 89 87 83 93 90 82 80 75 71 66 69 69 70 91 87
35 35 35 40 37 42 46 53 57 86 91 95 96 96 96 97 96 96 94 88 80 79 74 77 79 84 91 93 94 91 93 91 90 85 79 78 76 70 63 66 63 65 82
35 44 42 43 47 49 47 44 45 45 53 84 96 98 97 97 97 97 97 96 95 94 88 84 88 90 89 88 90 93 92 88 97 89 88 89 88 85 72 67 65 65 75
40 46 47 52 55 60 58 51 46 44 42 46 79 97 96 97 96 96 96 97 96 96 95 95 94 92 96 95 94 93 94 96 96 98 90 90 86 84 87 77 86 75 66
48 52 53 55 59 60 60 61 47 45 44 45 48 81 93 95 94 96 95 95 96 96 96 95 97 98 98 96 95 96 96 94 92 95 97 96 93 81 83 82 90 90 86
54 56 61 63 69 72 69 61 65 69 67 58 52 52 53 57 62 69 91 98 98 97 95 94 96 96 97 97 97 97 97 97 96 95 95 92 96 92 91 92 90 88 86
61 65 68 70 72 70 67 68 71 73 74 79 84 71 62 63 66 72 83 89 94 95 95 96 97 98 97 96 96 97 98 98 99 98 98 95 92 95 95 94 95 93 94
65 66 68 70 74 68 67 72 74 74 77 80 85 89 90 90 91 86 91 96 98 99 98 98 97 96 96 97 97 98 98 98 99 99 99 98 96 97 96 96 98 98 95
73 73 73 78 71 70 69 71 73 76 81 86 89 90 92 92 94 93 94 97 95 91 96 97 97 96 96 95 97 99 99 98 98 99 98 98 97 96 95 97 97 96 100
74 78 82 77 72 69 69 73 76 81 85 88 88 91 94 93 94 95 95 93 93 94 94 95 95 95 91 91 96 98 96 94 97 97 95 95 95 95 96 96 95 96 97
70 78 81 75 73 72 74 75 76 81 86 82 81 78 75 71 72 76 76 73 71 79 85 86 82 86 92 90 86 86 88 90 91 92 93 93 92 96 96 96 96 98 98
72 81 77 76 73 70 71 74 78 82 80 76 76 75 72 72 70 69 67 66 68 65 67 65 67 73 78 86 81 80 82 85 88 89 90 91 87 95 94 95 96 98 97
83 78 75 74 71 70 70 72 77 83 80 77 79 80 80 79 80 78 76 74 76 78 78 79 82 83 85 87 92 92 95 88 87 90 91 91 90 96 98 99 98 96 92
81 76 76 73 72 71 72 73 77 82 82 81 85 89 90 90 90 89 88 86 87 89 90 90 92 93 95 94 95 96 97 96 97 96 93 93 94 96 98 96 95 90 91
78 74 75 75 72 75 73 76 80 84 83 86 89 92 91 90 93 95 94 94 94 95 94 94 94 93 89 86 97 92 91 92 94 97 97 96 89 84 85 93 97 97 98
71 71 71 74 75 78 75 74 81 84 84 88 90 87 82 81 86 88 88 87 90 90 85 82 88 81 78 84 88 94 93 95 97 98 98 94 94 87 86 86 83 83 93
69 69 70 70 71 74 73 76 77 80 86 88 88 85 82 85 87 87 89 93 95 95 97 97 94 92 84 84 86 89 97 98 98 97 98 94 80 83 86 75 68 69 63
69 70 71 72 70 70 71 76 80 85 88 91 91 84 87 93 91 96 97 99 97 99 99 100 100 100 91 84 85 90 96 97 98 98 94 90 88 84 85 88 87 85 85
68 68 67 71 71 76 76 80 80 87 94 96 92 90 95 97 96 98 98 98 98 99 99 95 94 92 88 71 75 87 92 91 90 86 84 81 83 66 68 78 84 78 70
67 69 69 74 79 82 80 82 84 91 96 93 93 93 96 97 98 98 99 100 98 99 97 97 91 76 86 66 69 79 80 86 83 82 70 60 71 60 60 78 82 81 75
76 78 77 84 84 81 81 87 88 97 97 91 93 97 97 98 97 100 98 94 99 98 98 93 91 88 83 77 63 65 71 73 74 70 70 70 61 57 57 61 80 74 71
76 80 88 90 89 84 86 94 99 99 96 92 97 98 96 90 92 95 98 96 94 92 91 91 90 89 86 63 58 57 63 62 66 71 78 78 61 54 56 63 64 64 75
74 80 91 94 91 89 88 97 98 94 93 92 94 96 93 86 86 97 95 93 80 75 75 72 78 79 78 82 61 57 55 59 67 70 71 61 49 54 64 62 60 66 78
77 86 92 95 97 95 93 94 95 90 93 89 88 89 95 97 98 89 82 71 66 58 53 57 64 71 74 83 81 73 81 68 68 68 81 60 53 54 64 67 70 73 78
80 87 92 95 95 94 96 97 94 91 92 90 92 94 97 96 90 66 60 54 55 51 53 58 61 68 72 76 75 74 75 84 73 71 68 59 66 77 77 78 82 87 87
86 87 92 91 93 89 88 92 90 86 86 89 95 94 78 67 75 67 82 62 66 56 53 56 61 64 59 61 63 60 60 62 60 72 66 74 93 96 84 86 89 90 77

GFSMW_sfc_rhum_084.txt.gz
RH
34 31 32 49 84 90 94 95 94 95 96 98 98 98 96 98 96 91 89 85 87 88 85 85 86 89 88 86 92 94 94 96 95 93 94 92 86 87 83 78 77 76 86
41 36 30 32 42 70 90 94 95 96 95 97 97 96 97 97 96 96 90 90 90 91 89 87 89 91 92 93 94 93 94 94 97 93 89 88 80 85 81 81 74 74 83
39 38 38 37 42 46 54 82 94 96 96 95 97 98 97 98 98 98 98 96 93 91 89 89 90 93 92 93 95 95 94 95 97 92 91 93 93 87 78 67 77 77 82
42 41 45 49 52 54 52 49 51 54 62 97 98 97 98 97 97 97 97 98 97 96 92 90 91 93 96 96 95 96 95 94 94 98 91 93 87 94 92 85 83 85 70
41 40 49 53 62 62 62 54 52 52 49 48 67 98 99 98 98 97 96 96 97 97 97 97 97 96 97 95 95 97 98 97 97 98 99 98 96 89 93 95 93 82 88
42 42 55 69 78 72 70 72 71 76 73 61 58 58 83 96 98 96 95 96 96 97 97 97 98 98 98 97 97 96 97 98 98 97 97 96 97 98 97 98 96 95 92
44 50 69 80 82 80 82 78 78 83 85 84 85 80 69 65 69 74 76 76 87 94 96 97 98 99 98 98 98 98 98 98 99 98 99 98 97 95 95 96 98 98 93
50 58 70 81 80 82 85 84 85 87 88 89 92 93 93 94 94 92 94 97 98 93 92 98 98 98 97 98 98 99 99 99 99 99 99 99 98 98 98 98 98 99 98
72 75 82 82 80 83 83 86 90 93 93 93 94 96 96 96 97 96 97 98 97 88 92 93 94 94 95 98 98 99 99 96 97 98 97 98 96 97 97 97 97 98 99
89 91 89 82 81 84 88 90 91 93 93 93 91 88 90 91 91 88 89 92 95 95 90 88 89 89 88 92 94 96 94 97 96 96 94 96 95 96 96 96 95 96 98
90 92 90 85 84 87 89 91 93 90 88 85 83 81 79 76 76 78 78 78 80 81 80 82 85 86 88 89 92 93 89 91 92 92 92 93 91 95 95 97 97 97 98
91 92 90 87 86 88 84 92 92 88 85 80 80 80 80 80 82 82 81 78 81 79 79 80 84 88 93 94 94 94 93 91 89 90 90 91 86 93 93 94 95 96 95
93 92 90 86 85 84 82 90 91 88 83 80 82 82 84 86 91 90 88 88 89 90 90 91 94 96 96 96 97 95 86 86 87 88 89 90 90 94 96 96 96 96 94
92 91 91 86 83 80 79 86 89 86 84 85 88 91 94 95 96 96 95 95 94 95 96 96 96 96 97 97 96 94 92 93 94 94 94 95 95 96 96 96 95 92 96
92 90 89 88 80 81 78 83 88 88 88 91 92 96 97 97 96 96 96 96 96 96 95 95 95 95 94 89 91 91 91 93 96 96 94 94 87 84 87 93 95 94 95
88 88 86 87 83 81 82 82 90 88 89 94 96 94 96 95 94 91 91 93 95 94 93 93 89 86 85 88 88 88 93 94 94 95 90 85 84 81 76 73 72 82 91
83 85 81 81 80 80 79 84 91 91 93 94 95 92 84 86 87 86 89 93 97 96 97 93 87 88 86 86 93 92 98 98 97 96 93 89 85 85 87 75 79 74 70
77 82 81 83 78 79 79 86 88 92 95 96 95 91 89 89 90 92 95 99 99 99 99 100 100 100 90 84 86 90 95 95 94 93 91 88 88 86 81 88 90 82 73
76 74 77 79 78 74 76 86 94 94 94 96 94 94 89 94 95 98 99 97 99 100 100 95 92 92 91 78 76 81 89 89 90 85 85 86 84 63 69 77 84 79 70
72 78 81 79 79 82 79 84 92 90 96 94 92 92 92 96 98 98 99 100 97 96 89 94 92 80 88 67 68 73 74 85 78 73 71 64 74 56 59 78 78 78 76
80 81 80 79 80 82 82 86 90 95 94 92 94 96 95 98 98 100 100 98 95 92 96 92 93 90 85 78 64 63 68 70 77 69 70 69 63 55 55 71 75 72 75
84 84 89 90 90 89 88 93 95 96 96 95 97 98 98 96 96 97 95 93 94 94 94 93 93 90 86 65 65 64 64 63 64 68 74 76 63 51 55 72 59 62 73
82 84 89 92 93 92 91 94 95 94 94 96 97 97 93 92 89 89 94 99 96 94 94 83 89 91 78 86 60 56 58 65 68 67 69 63 58 53 65 60 61 72 78
84 86 89 90 93 94 93 91 94 89 91 95 96 93 93 94 89 87 92 97 96 93 81 76 78 82 78 78 80 74 78 65 67 67 82 62 58 62 67 69 72 75 80
81 85 83 89 88 96 96 95 89 87 90 91 94 93 90 93 93 94 96 94 87 73 68 66 61 68 70 65 73 76 72 83 73 81 65 60 67 76 79 82 85 90 89
82 86 83 85 91 96 95 91 90 88 88 91 95 97 93 96 96 97 91 77 68 63 60 53 57 54 52 53 65 70 66 63 63 77 75 74 90 95 82 85 88 93 89

GFSMW_sfc_rhum_087.txt.gz
RH
48 35 31 47 79 83 93 93 91 94 95 93 93 92 90 88 84 80 79 77 75 77 77 75 73 73 73 69 68 70 72 71 72 72 66 64 61 62 61 60 58 57 56
48 40 33 30 34 71 85 91 90 89 89 92 91 90 91 91 87 87 80 78 78 81 80 77 77 74 73 72 71 72 74 73 74 68 72 74 63 60 61 58 58 57 55
44 40 35 33 37 39 61 85 88 89 88 89 90 90 91 91 92 89 88 85 81 82 82 81 78 80 79 83 78 80 79 80 86 78 84 90 88 72 64 58 55 54 53
44 38 37 35 39 40 47 52 77 88 90 90 88 87 89 90 87 86 88 88 84 81 81 81 80 80 85 83 86 84 82 82 84 90 87 83 79 90 84 74 67 70 55
41 39 39 43 44 56 54 52 51 49 49 74 90 90 90 88 87 86 86 85 87 88 88 85 83 83 85 83 84 86 85 85 86 89 94 92 91 86 95 97 92 73 76
38 37 44 56 59 62 57 61 60 60 52 49 50 68 85 87 91 90 89 88 87 87 89 91 90 89 87 86 85 85 87 87 88 87 90 90 93 96 94 96 94 90 84
41 40 47 61 65 64 68 67 66 71 68 65 63 57 53 53 62 69 71 69 70 78 83 88 90 93 92 91 89 90 92 92 93 92 90 89 89 90 88 91 95 94 89
48 45 51 60 65 71 71 71 72 73 73 74 77 79 79 74 76 76 76 82 84 83 84 86 90 91 90 90 91 93 95 95 97 96 96 96 94 95 96 93 96 95 93
51 50 58 65 68 73 73 74 76 79 78 80 79 81 80 82 84 85 85 86 85 82 84 85 87 90 95 96 97 97 97 96 95 93 93 92 91 92 91 90 88 92 96
64 72 73 72 73 72 74 77 76 78 81 78 75 76 76 75 74 72 76 80 79 79 80 83 86 86 89 92 94 95 92 93 93 92 88 88 87 86 87 88 89 89 92
81 82 76 73 75 76 77 80 77 77 74 71 69 67 66 65 65 66 66 68 67 68 71 73 77 81 84 85 83 84 83 85 87 84 86 88 85 89 88 88 84 86 90
83 80 76 75 77 78 80 81 78 74 71 69 67 66 66 66 66 67 68 66 68 68 70 72 77 79 80 79 78 80 80 80 81 81 82 84 81 85 83 83 86 88 86
86 82 77 74 74 75 79 82 77 74 71 70 69 69 70 70 72 72 72 72 74 75 76 77 81 83 83 81 79 77 77 78 78 80 82 84 82 87 89 90 91 87 82
84 81 79 75 73 74 77 80 77 72 72 73 74 76 76 77 78 79 79 78 77 78 80 80 82 85 84 83 81 80 81 82 83 85 84 84 84 86 89 87 84 79 78
86 82 80 76 73 72 73 77 77 75 74 77 80 82 83 83 83 83 84 83 81 81 81 81 82 86 85 83 84 83 85 88 91 90 87 88 84 83 80 78 82 79 75
83 82 80 77 73 70 71 78 79 79 78 81 84 86 85 83 84 84 84 82 83 82 81 82 83 86 84 88 88 86 88 88 87 89 85 80 84 76 74 72 74 68 70
79 81 78 76 72 69 68 77 80 79 81 83 85 85 83 84 83 82 83 86 88 86 86 86 83 85 85 85 85 89 98 99 99 96 96 86 73 73 71 76 74 70 74
78 78 76 76 72 69 70 75 82 83 86 86 87 83 83 84 85 88 93 98 97 98 99 100 100 100 88 89 89 91 92 84 78 77 78 76 74 67 68 67 73 66 68
73 72 74 74 73 69 68 76 84 86 88 88 89 87 85 88 89 97 99 98 99 100 100 98 96 95 90 82 82 74 74 75 73 69 71 68 65 68 63 66 75 59 57
66 73 78 76 72 72 72 79 84 86 88 86 86 84 87 90 97 96 99 100 98 98 88 91 83 74 73 66 67 66 61 66 66 67 66 67 59 57 70 56 52 59 56
73 76 78 78 78 78 76 83 86 92 89 87 88 90 91 96 97 100 100 99 96 91 89 83 81 77 73 65 65 65 55 58 61 56 56 59 60 55 58 66 52 57 62
78 81 83 85 84 81 79 87 92 92 92 91 93 97 97 95 96 97 95 91 86 82 79 78 77 72 69 68 62 60 60 61 54 54 56 58 60 52 57 66 63 71 71
78 81 84 86 85 84 82 87 88 90 92 92 96 97 95 94 93 93 91 89 81 75 77 74 74 73 66 70 64 62 64 62 54 54 62 65 61 56 56 60 61 72 61
76 81 85 88 89 87 84 79 88 88 89 91 96 96 94 95 90 86 86 88 82 76 71 69 69 72 68 66 70 70 64 65 63 64 65 57 59 61 61 65 65 60 60
76 80 83 83 81 85 87 86 88 84 88 90 94 95 93 93 91 88 86 83 76 71 70 67 61 64 62 59 64 66 61 60 60 67 54 46 49 56 59 64 65 68 69
77 80 81 77 80 85 88 89 88 85 86 90 96 94 92 93 91 91 94 85 78 77 68 60 57 49 49 52 62 68 67 67 69 69 60 54 52 58 59 63 66 70 74

GFSMW_sfc_rhum_090.txt.gz
RH
23 27 29 31 66 64 62 62 65 77 83 90 91 88 90 80 69 64 64 59 56 56 59 57 56 57 59 57 56 56 60 59 57 59 55 54 50 50 48 47 46 46 49
26 29 31 27 50 66 67 68 66 67 77 76 84 83 85 90 85 82 71 64 63 63 61 61 61 60 62 62 61 60 62 58 56 60 62 66 52 48 48 46 47 47 46
32 30 32 36 34 42 63 76 75 80 81 80 84 82 85 90 91 88 85 77 72 72 74 68 65 68 67 68 66 65 70 67 68 65 69 80 76 62 52 52 47 46 46
31 29 30 34 34 32 32 44 76 77 85 85 88 88 88 86 86 82 79 76 73 72 72 70 68 68 71 72 74 71 72 71 72 76 68 67 70 82 89 67 56 52 51
31 32 34 33 31 39 41 40 45 65 77 82 85 86 85 83 82 85 82 76 75 73 76 74 73 72 70 72 71 74 70 69 73 74 78 82 86 83 93 94 74 66 61
30 30 31 35 38 43 44 48 46 48 50 68 80 84 88 82 86 85 81 76 74 73 75 78 79 79 75 73 71 71 73 73 75 76 79 81 81 82 87 94 88 84 75
30 29 30 37 42 47 47 46 45 51 44 44 47 54 63 64 69 66 62 63 62 69 73 76 81 87 88 83 80 80 82 81 83 81 85 78 75 75 76 84 81 85 78
30 30 29 32 44 52 49 47 45 49 48 49 50 50 49 48 50 51 51 51 55 60 68 69 75 76 81 80 84 90 92 90 93 90 89 86 90 91 91 91 90 90 85
32 32 32 35 39 45 46 48 48 50 52 53 53 54 55 59 62 65 63 64 69 68 70 72 72 74 80 89 91 96 95 94 94 93 93 91 87 85 86 90 90 90 77
30 30 33 38 42 48 53 53 50 51 56 56 54 55 57 57 58 58 64 68 66 68 70 72 73 75 79 85 90 92 91 93 94 93 89 86 82 82 83 85 83 85 88
39 36 40 44 49 54 58 58 55 56 56 53 52 53 53 54 53 54 55 58 58 59 62 66 67 70 74 80 85 86 84 87 87 80 76 78 79 84 84 85 78 78 81
49 48 48 51 53 55 57 59 59 57 56 54 52 53 53 52 51 52 54 53 56 56 58 60 62 65 70 72 75 77 76 74 73 74 75 78 77 79 77 74 77 80 80
57 53 52 51 51 52 54 56 56 56 56 55 53 53 54 53 53 53 54 55 56 57 59 61 64 66 68 66 66 67 68 68 69 71 72 73 74 80 84 82 84 81 77
58 54 52 51 50 52 55 55 54 53 56 56 56 56 56 56 56 57 57 58 57 59 60 62 65 69 68 68 67 66 68 69 70 73 74 75 76 78 80 79 77 71 70
60 58 54 51 51 53 53 54 54 55 55 58 60 62 63 63 63 64 64 62 61 62 64 65 68 72 74 71 74 74 75 78 80 80 75 76 78 77 72 71 74 72 68
59 56 55 51 50 50 50 54 56 58 58 59 62 65 65 66 68 67 68 66 67 67 66 70 72 76 75 87 83 78 79 80 84 86 82 80 79 76 75 74 68 60 64
53 57 54 53 51 49 49 52 53 54 58 60 62 66 66 68 69 69 70 72 74 73 76 77 77 80 81 85 86 85 94 99 100 99 96 78 68 70 67 71 69 71 67
50 52 52 52 51 48 49 48 53 57 64 62 64 65 67 69 72 76 82 90 87 89 93 100 99 94 84 82 87 89 89 79 74 71 64 59 55 55 54 51 61 60 54
45 47 48 50 51 51 49 52 58 62 68 66 69 70 68 73 76 86 94 94 98 100 100 99 94 90 87 84 86 74 67 65 61 57 58 58 58 63 62 60 66 51 62
50 52 53 54 54 52 50 54 58 62 68 67 68 66 74 77 83 86 97 100 99 100 93 96 88 83 81 80 72 54 48 48 51 53 54 58 50 68 56 42 44 50 47
59 57 58 58 58 57 58 62 62 74 73 70 72 74 78 83 87 99 100 100 98 94 91 81 68 57 53 56 64 58 46 45 49 53 55 54 60 57 65 49 37 38 46
62 64 64 69 66 65 64 71 78 78 77 73 78 81 84 86 92 97 97 93 88 82 75 63 61 59 56 58 63 61 50 50 43 42 42 45 59 55 58 61 59 70 64
60 61 63 65 65 66 65 74 72 72 72 76 78 82 84 89 91 91 92 89 80 74 68 60 59 58 59 55 63 59 60 57 41 42 48 62 65 54 55 60 61 70 55
58 61 62 64 65 64 63 57 64 66 69 70 74 81 90 94 92 88 85 86 83 76 66 58 56 54 56 56 59 58 59 63 55 61 61 54 50 55 45 56 63 59 51
62 64 60 60 60 63 65 65 62 66 70 70 77 88 88 92 91 87 86 84 78 73 63 53 50 54 54 51 56 59 59 57 56 57 50 45 45 51 49 51 52 51 52
63 65 71 67 61 69 72 74 75 72 69 73 82 88 90 90 89 92 92 86 82 79 66 60 54 49 47 50 61 67 65 61 60 56 48 40 38 40 39 44 49 52 60

GFSMW_sfc_rhum_096.txt.gz
RH
31 35 44 62 68 70 69 71 79 84 84 91 97 96 94 91 86 77 71 65 62 66 70 73 72 71 72 74 74 77 80 86 82 86 86 83 76 74 75 75 71 68 63
32 34 45 60 69 72 74 78 78 83 86 87 92 95 96 94 95 90 84 79 76 74 71 76 76 72 77 74 75 76 84 83 85 88 92 92 84 80 73 75 70 70 69
32 36 41 55 71 75 78 79 75 77 89 91 96 96 97 97 96 95 98 94 91 92 88 84 90 86 84 84 82 82 83 90 87 83 88 95 94 85 78 72 70 68 74
30 32 41 55 77 84 81 77 76 78 86 92 96 96 97 98 98 98 97 93 96 96 96 95 95 95 95 95 96 93 94 92 95 91 87 90 90 95 93 87 80 70 72
34 36 44 46 49 62 81 87 84 87 93 94 94 96 89 85 87 91 89 94 96 96 96 96 95 94 93 92 93 95 94 92 94 95 96 94 95 94 97 97 95 90 81
34 37 49 52 56 62 63 65 87 88 93 92 91 90 87 86 91 94 95 94 95 97 97 95 97 96 94 94 96 94 94 96 93 94 94 94 96 98 98 99 95 95 91
36 44 49 55 60 66 70 77 72 75 85 92 94 86 80 82 78 87 88 82 80 86 92 93 97 97 96 94 93 93 91 91 89 90 92 92 92 91 92 93 95 97 95
40 44 48 49 58 66 73 68 65 66 68 76 80 81 91 92 86 80 77 78 80 79 80 81 81 82 88 94 96 98 98 97 97 95 96 97 97 95 93 92 95 99 98
38 42 42 48 55 66 67 69 70 67 69 68 65 59 59 67 71 72 74 75 76 71 76 79 80 82 84 87 91 98 98 98 98 98 98 98 98 97 97 96 95 96 98
39 37 41 43 52 60 63 62 64 66 63 60 62 60 64 67 70 78 81 81 79 79 81 80 84 86 90 92 93 97 97 99 99 98 97 97 96 96 96 96 95 96 97
36 36 38 41 54 62 65 65 66 67 66 63 60 63 66 65 69 72 74 74 73 72 74 74 76 80 85 91 94 95 96 98 97 95 94 94 92 95 95 95 94 96 96
42 41 41 56 63 66 65 69 73 74 71 66 62 61 61 62 66 67 67 66 69 69 71 71 74 75 78 85 88 89 92 93 94 90 90 92 90 94 92 92 92 94 94
56 52 56 61 68 70 69 71 72 73 70 69 68 67 64 64 64 64 62 61 64 66 70 73 76 78 78 79 82 84 85 85 85 86 85 86 88 91 93 95 96 96 94
57 58 62 65 67 68 68 69 70 69 69 69 71 72 71 67 69 69 67 68 68 71 73 73 76 79 79 79 78 77 80 81 83 85 85 86 89 93 95 95 94 92 95
60 61 63 66 68 70 68 67 69 69 69 71 74 76 75 74 74 74 73 73 73 73 74 74 78 82 81 80 88 86 90 91 91 89 86 90 88 86 85 91 91 91 93
59 59 59 63 68 72 69 66 70 70 70 74 76 75 76 76 79 79 79 80 80 79 78 82 84 88 78 79 79 82 93 93 94 95 94 87 83 77 75 74 73 77 91
60 60 61 62 63 66 66 71 71 69 71 73 74 74 74 78 81 79 81 85 88 87 92 93 88 86 86 82 82 91 98 100 100 100 98 88 84 84 86 72 72 70 67
54 60 62 62 62 63 65 66 68 71 74 74 74 73 75 79 82 85 90 92 92 91 97 100 96 95 87 83 89 92 99 97 94 91 86 90 83 81 68 80 81 80 80
50 58 60 63 64 62 62 66 72 74 77 75 78 77 76 83 86 93 93 92 96 100 100 100 97 95 94 86 86 88 88 88 84 75 72 70 71 61 60 79 86 83 83
65 65 62 63 66 65 64 69 74 77 82 77 78 77 80 85 89 93 95 100 99 100 100 100 96 87 92 83 82 78 75 74 75 77 72 63 69 64 60 79 76 88 88
71 68 71 72 71 68 68 73 76 81 81 77 79 83 86 89 91 96 100 100 100 100 100 98 93 88 86 85 79 61 62 66 74 74 74 73 71 60 54 49 66 66 73
75 79 84 85 80 77 76 82 84 86 84 83 85 88 91 90 94 97 99 99 98 98 96 91 88 80 69 79 74 60 49 55 69 71 76 74 62 62 63 54 50 53 67
71 72 80 81 81 81 80 86 89 88 88 88 90 92 92 89 85 95 97 99 95 94 92 88 86 77 69 72 65 62 59 50 58 58 60 67 64 60 63 59 62 62 75
72 71 72 77 82 81 74 80 84 84 85 89 91 92 93 88 87 93 92 94 94 92 88 86 84 77 73 75 83 78 73 60 53 52 64 64 70 65 67 69 66 88 80
72 73 75 74 75 75 75 75 75 74 80 80 77 83 86 86 91 94 91 90 85 86 88 89 87 81 74 70 74 79 78 76 65 73 80 76 70 78 71 68 79 84 78
76 78 76 77 78 77 77 71 70 71 74 74 79 87 90 88 96 96 96 85 86 84 84 82 82 70 63 60 61 65 69 69 67 74 74 73 72 72 68 66 70 78 76

GFSMW_sfc_rhum_099.txt.gz
RH
45 48 66 76 85 86 91 84 87 90 92 94 96 96 90 92 90 78 74 65 63 71 75 80 77 73 75 76 75 80 83 86 87 86 87 84 80 79 82 81 79 76 69
43 50 69 82 81 86 85 94 89 87 86 87 95 96 96 95 94 90 83 78 76 75 77 78 80 78 76 76 78 82 88 88 89 89 94 94 87 90 83 85 79 78 69
38 50 68 82 87 89 91 89 89 89 90 92 99 99 98 98 96 96 96 97 96 95 90 86 86 88 84 84 85 84 86 91 93 90 90 96 96 93 85 79 74 70 74
36 50 60 78 89 87 90 91 92 94 94 97 96 96 97 98 97 95 96 95 96 96 97 97 97 97 96 95 96 94 93 94 97 96 93 95 92 92 90 87 76 75 78
37 49 55 64 86 91 93 91 90 93 96 96 96 97 95 92 94 96 93 94 91 92 95 97 98 98 98 97 98 97 98 98 97 97 98 98 97 93 95 95 92 82 89
36 48 50 62 71 82 77 90 94 96 97 96 96 93 89 94 95 95 97 97 96 96 96 96 97 97 97 95 96 97 97 96 95 96 97 97 97 98 98 99 96 95 88
35 50 63 66 68 71 74 83 90 98 97 94 93 90 92 90 89 90 92 90 88 89 94 95 97 97 97 93 96 97 97 97 98 97 96 94 93 93 94 96 97 97 96
40 63 60 63 61 67 74 70 80 85 92 96 95 93 90 94 90 85 80 80 82 87 91 93 92 93 94 95 96 98 98 98 98 97 97 97 98 97 96 94 96 99 99
43 60 60 56 67 72 73 69 74 73 79 82 74 78 82 85 81 80 83 85 80 76 84 84 85 88 90 90 93 97 98 99 98 99 98 98 98 98 97 96 94 94 99
44 56 52 54 66 70 75 72 73 74 76 77 76 77 78 79 82 84 84 85 82 82 84 86 89 91 92 93 94 97 96 98 99 99 99 98 98 98 98 98 98 97 96
40 42 52 63 67 73 74 75 75 74 77 76 77 76 70 76 80 83 78 74 74 77 79 79 82 86 90 92 94 95 96 98 98 97 98 97 95 97 98 97 95 97 97
45 44 68 72 72 76 77 79 82 80 80 77 75 74 70 71 69 69 71 73 75 74 74 76 80 82 83 88 92 94 96 97 98 96 96 97 94 95 94 94 93 96 96
56 60 73 75 77 80 84 85 84 82 79 76 76 77 72 75 74 70 68 65 68 71 71 76 81 82 82 84 86 91 91 93 90 90 91 91 92 95 96 96 96 97 94
60 64 76 80 81 79 82 83 81 77 76 77 78 80 79 78 77 75 72 72 77 75 77 82 82 85 84 86 85 86 86 85 86 88 88 90 91 93 94 95 94 94 97
64 64 70 77 81 81 82 80 79 78 77 79 81 82 81 81 81 80 79 80 80 76 81 83 85 88 84 83 91 90 91 90 90 90 87 90 90 89 88 91 96 95 96
62 63 66 75 82 83 82 77 79 78 78 80 82 80 80 82 84 84 85 85 85 85 86 90 89 90 83 79 81 84 94 94 95 95 92 89 85 79 76 76 78 88 95
63 64 68 72 77 78 75 79 79 79 80 82 81 80 81 84 86 85 87 90 90 92 94 95 90 91 92 80 81 89 96 98 100 100 97 92 86 84 84 76 74 74 74
62 64 67 70 73 75 76 78 77 79 82 82 82 81 83 86 88 89 92 93 93 93 96 100 99 94 91 82 88 92 98 98 95 93 90 90 90 86 82 77 81 84 79
68 64 65 68 71 73 75 75 80 82 84 83 84 83 84 89 91 93 95 94 95 100 100 96 98 96 94 86 86 93 96 97 96 86 81 77 80 72 69 81 84 87 88
73 76 69 68 70 72 74 75 81 84 85 83 83 82 86 90 92 94 95 100 97 100 99 100 97 91 93 85 84 81 81 83 75 73 70 69 68 62 66 83 84 87 93
82 82 82 81 74 72 74 80 84 86 84 83 84 86 89 91 92 96 100 100 100 100 100 99 95 91 87 88 81 77 72 71 74 76 74 79 65 63 63 70 80 80 83
78 83 87 88 86 81 78 84 86 84 87 87 88 91 92 92 94 97 98 99 99 99 98 97 96 89 85 83 82 75 58 62 71 72 75 76 71 63 57 56 58 57 71
78 80 85 85 88 86 85 87 88 90 90 90 92 93 94 95 96 96 96 98 98 98 97 96 95 89 77 73 76 75 61 52 68 71 73 70 64 64 67 55 54 61 78
76 78 81 84 85 84 80 86 91 90 91 92 94 95 96 94 90 95 94 96 97 97 96 94 92 87 78 76 76 78 75 63 61 59 69 68 74 68 71 72 66 84 76
78 80 82 83 82 80 80 86 87 89 92 92 90 89 89 90 92 93 92 93 88 91 93 91 89 91 85 74 73 76 77 77 65 73 78 79 79 82 75 70 78 90 88
88 89 89 88 86 82 82 81 80 83 83 83 82 88 91 90 96 96 96 86 87 85 85 83 89 91 82 70 78 70 72 69 65 73 79 79 76 76 78 69 69 84 82

GFSMW_sfc_rhum_102.txt.gz
RH
58 64 83 91 94 96 96 92 94 94 89 91 94 96 95 94 91 83 75 67 67 72 76 80 81 76 79 79 80 83 83 88 89 88 88 90 86 84 86 88 86 83 76
51 61 79 92 94 94 93 96 93 93 86 90 92 95 96 96 93 91 84 78 76 75 78 82 83 81 76 77 78 81 89 87 89 89 95 94 88 92 90 90 87 86 75
48 58 83 92 94 96 95 92 92 90 91 91 98 99 98 98 98 96 95 95 90 89 89 89 88 88 82 86 90 92 92 93 96 93 89 96 96 95 93 92 89 81 79
41 53 69 90 94 94 95 93 94 93 93 97 95 96 95 97 97 96 98 97 95 96 96 96 97 96 98 96 96 96 96 98 98 98 96 96 95 96 94 89 81 76 77
40 52 62 78 88 94 94 96 95 96 97 97 96 97 97 96 97 98 97 96 94 95 96 98 99 99 99 99 99 99 99 98 98 98 99 99 99 98 99 97 93 81 83
42 50 65 79 93 96 96 96 96 97 98 98 98 95 94 96 98 99 99 98 98 98 97 98 98 99 99 96 95 96 97 97 98 97 97 95 98 99 99 99 98 94 88
42 53 65 83 91 93 94 96 96 100 99 98 98 94 94 95 95 96 98 96 94 92 95 95 95 94 94 95 95 95 96 96 96 95 94 94 91 95 96 97 98 98 94
42 57 67 74 79 88 92 97 98 99 98 96 95 92 92 95 94 93 95 95 92 88 89 95 92 90 90 92 91 95 98 97 97 93 95 97 97 96 97 96 97 100 99
44 61 70 68 70 75 82 94 96 97 97 94 94 94 94 93 93 88 88 91 91 89 92 91 91 90 92 93 94 98 97 98 99 99 99 99 98 98 98 96 94 94 99
46 67 67 62 68 69 73 74 85 92 95 94 93 92 92 91 88 91 92 90 90 89 90 91 90 92 93 92 94 96 96 97 98 99 99 99 98 98 98 98 97 97 97
52 65 72 68 71 77 75 76 77 82 87 84 87 89 89 89 91 91 91 86 82 85 88 83 89 90 91 92 95 96 96 97 98 98 98 98 97 99 98 98 98 98 98
50 60 68 74 78 78 78 78 82 82 86 85 85 86 86 86 85 85 82 82 83 82 76 85 87 87 86 87 92 95 95 98 98 97 98 98 98 98 96 97 96 97 96
65 80 81 78 81 81 80 82 86 88 86 84 84 83 82 80 80 77 74 75 80 80 80 82 83 82 83 85 86 89 94 94 95 95 95 95 95 97 97 97 97 97 96
66 79 84 87 84 83 87 87 86 83 83 82 82 84 83 81 80 80 79 80 82 83 85 85 84 88 89 90 90 90 92 92 90 91 92 92 94 95 96 97 96 94 97
68 76 81 84 84 85 85 84 83 83 83 84 84 86 83 83 82 82 83 84 85 86 86 88 89 89 86 86 92 92 92 92 92 91 88 90 92 92 90 94 96 95 96
69 67 73 81 86 88 85 82 84 83 82 85 86 84 84 85 86 87 88 88 89 90 90 91 90 90 86 79 80 86 93 93 94 94 90 89 89 86 83 83 85 88 96
66 66 70 74 79 81 80 83 83 85 85 86 85 84 84 86 88 89 90 91 91 92 94 94 92 91 92 81 79 87 96 98 98 99 97 91 85 85 87 78 78 80 80
67 66 69 73 77 79 80 82 83 85 86 86 86 85 86 88 91 91 92 93 94 94 96 100 99 96 92 83 84 88 97 98 96 94 92 90 87 85 78 76 83 84 73
70 72 68 70 76 79 80 81 86 86 88 88 88 87 87 91 92 92 94 94 95 96 98 96 97 97 94 86 86 90 96 98 97 91 85 84 82 78 71 79 88 91 89
77 80 71 68 72 78 80 82 86 89 89 87 86 86 89 91 92 93 95 99 96 99 98 99 99 94 95 87 84 84 87 93 87 76 74 81 74 73 69 77 82 88 93
86 87 83 79 75 77 76 82 85 87 85 84 85 87 90 91 92 94 100 98 98 99 99 99 97 92 89 86 83 82 79 81 78 78 75 74 70 68 65 73 84 78 91
82 84 90 92 88 82 82 87 87 84 86 87 89 90 91 93 94 97 98 97 98 99 99 98 98 92 87 84 83 82 75 68 74 76 74 71 71 64 63 67 71 67 76
82 84 86 84 89 88 83 86 85 87 90 91 91 92 93 95 94 95 98 99 99 98 98 99 98 95 89 79 80 79 79 61 69 67 68 68 72 71 67 57 55 57 83
83 82 83 85 88 85 83 87 90 90 91 91 93 94 95 97 95 94 94 97 98 98 99 99 98 93 91 81 76 86 86 73 64 65 75 73 73 72 76 70 64 83 78
86 85 85 82 82 82 82 89 90 91 92 92 94 92 92 92 94 95 94 94 89 93 96 95 93 94 93 83 73 77 85 85 73 67 72 78 86 87 82 78 80 89 83
90 92 92 90 90 87 86 84 82 87 90 88 90 92 94 93 96 95 95 87 88 86 86 86 88 90 85 85 78 80 80 74 71 73 81 81 83 85 80 74 73 84 86

GFSMW_sfc_rhum_105.txt.gz
RH
62 63 93 96 98 98 96 92 95 93 92 95 96 97 93 95 90 84 75 68 65 71 79 83 82 84 85 85 86 87 86 89 91 90 87 86 84 90 91 92 91 87 83
64 56 83 99 92 94 96 97 94 96 94 94 91 96 94 96 92 93 90 79 77 78 78 83 86 80 82 82 85 85 90 85 89 89 95 94 88 93 92 96 91 91 82
76 58 81 96 98 98 98 96 96 94 92 95 98 98 98 98 98 96 95 90 84 85 84 85 91 91 87 87 88 89 87 92 96 92 90 97 95 97 95 94 95 94 93
70 56 65 90 95 95 96 95 97 96 97 97 96 96 90 95 97 97 97 98 94 92 91 92 93 94 97 95 93 94 96 97 98 99 99 99 97 98 97 94 86 82 82
69 54 56 83 91 95 97 97 96 98 99 98 96 98 98 97 98 99 98 98 98 97 96 97 99 99 99 99 99 99 99 99 99 99 99 99 100 98 99 98 97 88 88
59 41 55 77 92 96 97 98 97 97 99 98 98 97 97 97 99 100 100 99 99 99 98 98 98 98 99 99 98 98 98 98 99 98 98 96 97 99 99 99 98 94 91
42 42 68 90 95 96 96 98 98 99 99 99 98 96 95 96 96 98 99 99 99 99 98 98 98 98 96 97 95 92 92 94 98 97 96 95 94 94 94 97 97 99 98
41 44 60 85 93 94 95 98 98 99 99 99 99 97 95 97 97 96 98 97 97 95 94 95 92 91 92 93 92 94 95 94 95 97 96 96 96 96 94 88 92 100 99
47 45 62 80 92 94 95 97 97 98 99 98 97 96 96 96 96 95 94 95 92 89 92 93 92 93 93 94 96 98 99 98 99 99 99 98 98 98 98 98 97 96 99
46 48 62 71 87 91 92 95 97 99 98 97 96 95 95 94 93 93 92 91 92 92 93 92 92 92 93 93 93 95 95 97 97 99 99 98 98 98 99 99 98 98 97
46 52 63 71 80 80 87 90 94 96 98 96 94 95 95 93 92 92 92 92 91 92 91 91 93 92 92 91 94 95 96 97 97 97 97 97 97 99 99 99 99 99 98
53 59 68 73 81 80 81 82 83 92 94 93 94 94 93 94 94 93 90 88 87 81 89 89 89 89 87 87 91 94 94 96 97 97 97 98 98 98 98 98 98 98 98
79 84 83 84 82 81 82 84 86 90 91 91 92 92 92 88 88 87 84 82 83 85 80 88 88 88 88 89 90 90 92 95 96 96 97 97 96 98 98 97 98 97 97
73 85 88 88 87 88 85 90 91 91 90 89 88 89 88 85 84 84 83 82 81 79 88 89 89 90 90 91 92 92 93 94 94 94 94 95 96 97 96 97 96 97 98
74 81 87 90 90 91 92 91 90 90 88 87 87 89 87 85 86 85 87 87 87 88 89 90 91 90 88 89 93 94 94 95 94 93 93 94 92 91 91 96 97 97 98
75 79 86 87 88 90 90 87 89 88 86 87 87 85 85 86 87 89 90 90 91 91 91 92 91 91 88 80 79 86 96 94 95 96 94 92 87 86 84 85 85 89 96
78 76 80 80 85 89 87 88 87 87 86 86 86 86 86 87 89 91 91 92 92 92 94 96 95 93 93 82 81 84 96 97 99 99 97 92 84 86 88 83 82 81 82
76 76 75 78 82 81 83 83 83 84 86 86 87 87 88 90 92 92 92 93 94 93 97 99 97 97 92 83 79 86 95 96 96 96 94 93 89 86 82 78 82 78 71
74 78 79 75 82 82 81 83 87 88 88 88 88 88 88 91 92 92 93 94 95 96 96 96 98 99 95 86 84 87 95 96 97 93 87 88 86 83 78 81 86 82 85
84 89 87 73 79 85 82 82 88 89 90 89 88 88 90 91 93 92 94 99 95 98 98 99 96 98 97 87 85 88 87 95 92 85 76 85 82 82 74 74 81 86 90
86 88 87 82 81 83 81 86 89 89 86 86 87 89 91 92 92 94 99 100 97 96 99 99 96 98 94 89 82 82 84 86 86 83 80 75 82 78 74 73 74 73 84
85 87 92 93 90 85 84 88 89 86 86 87 88 90 92 93 94 97 99 97 97 99 99 98 98 96 90 84 85 82 82 76 82 80 77 74 74 74 70 76 73 67 78
86 86 88 88 89 90 85 88 86 87 89 90 90 91 93 94 95 97 98 99 98 99 99 99 98 97 96 92 81 82 81 80 77 73 70 68 69 75 67 61 59 63 89
87 85 84 82 82 80 88 90 91 89 91 92 92 94 95 96 97 96 94 98 99 99 99 99 99 96 97 94 86 79 89 84 85 71 79 71 70 69 79 76 70 84 85
90 88 85 83 88 87 87 90 92 91 92 92 94 95 96 96 97 96 95 96 93 94 98 97 97 98 97 92 82 80 81 87 82 78 74 78 85 89 85 83 84 88 85
88 91 94 92 91 92 93 92 88 88 90 92 92 94 95 97 97 97 95 87 89 86 87 87 90 93 86 83 86 86 80 78 78 88 77 81 81 85 87 83 78 86 86

GFSMW_sfc_rhum_111.txt.gz
RH
72 82 79 82 85 86 87 88 90 90 91 93 94 94 87 90 87 79 74 76 74 80 83 81 81 82 80 78 78 77 78 77 72 70 68 69 71 72 82 73 64 66 65
73 83 92 90 95 88 88 91 89 92 89 91 87 88 88 88 87 88 77 71 73 75 76 78 81 83 83 81 79 76 76 73 75 74 83 79 76 83 79 80 72 71 71
72 78 96 86 96 96 91 89 92 92 91 91 93 94 92 91 89 88 86 82 76 81 81 79 82 81 81 83 82 81 76 82 86 81 83 92 94 96 92 87 88 90 88
68 66 90 96 94 91 96 95 96 92 96 96 93 93 92 92 89 90 91 90 83 82 83 85 83 85 89 87 88 88 91 94 94 94 92 89 86 97 93 90 86 82 83
65 62 74 90 96 97 96 96 98 97 92 99 95 97 97 96 97 95 93 94 91 82 86 89 88 95 96 96 96 97 96 94 91 91 95 96 97 97 99 99 97 94 94
67 59 53 62 92 98 97 96 95 93 94 93 99 98 97 96 94 97 96 97 95 98 93 95 95 94 94 96 96 96 96 93 92 90 87 93 96 96 98 99 97 94 92
67 53 60 75 94 98 97 97 96 98 98 94 90 94 97 96 95 96 97 96 98 98 98 97 98 97 95 95 93 96 97 95 92 88 91 87 86 92 93 97 95 95 87
58 50 48 66 84 96 98 97 95 97 98 98 98 99 98 99 97 96 96 96 96 98 98 97 94 93 91 90 90 90 88 86 89 86 85 87 87 87 87 89 86 89 87
48 44 44 61 76 88 95 96 96 96 98 98 99 97 95 98 98 98 98 98 95 96 93 92 91 86 87 86 87 91 94 89 92 94 94 95 94 93 93 95 98 98 96
55 48 43 55 77 86 91 93 94 93 94 97 98 98 98 98 97 94 96 90 89 90 88 86 85 88 86 83 85 86 84 85 90 88 89 86 84 84 86 88 91 93 93
53 48 42 60 76 88 94 97 96 96 96 95 95 94 94 94 93 90 86 84 83 83 83 83 82 81 80 80 80 82 82 81 83 85 84 80 78 86 85 87 89 95 98
71 68 59 61 72 83 90 96 97 96 94 92 92 90 88 86 86 85 83 80 82 81 81 78 76 75 76 74 73 76 78 80 82 84 84 78 83 85 84 84 88 93 95
74 75 73 72 72 78 84 88 94 96 93 90 90 90 88 86 83 82 79 76 77 78 76 74 74 74 74 73 73 73 75 77 80 82 83 84 84 87 87 88 90 92 94
75 79 80 80 79 78 79 82 90 91 91 89 88 89 86 84 80 77 76 75 74 75 75 74 75 76 76 76 76 76 75 78 79 82 81 81 83 86 87 89 90 91 92
71 80 82 82 84 82 81 82 85 86 86 86 86 87 84 80 78 78 77 75 74 76 76 76 77 78 80 78 79 80 80 80 81 82 80 82 84 85 83 87 87 88 92
78 76 78 82 82 82 82 84 84 84 81 83 84 83 80 79 80 80 80 78 80 80 78 80 79 82 82 83 86 82 81 84 84 85 82 80 82 81 82 82 82 84 89
74 77 80 78 81 83 83 83 82 80 80 80 80 79 77 79 80 80 80 82 83 83 86 84 81 83 84 84 85 86 85 89 89 92 91 85 79 80 76 78 79 80 83
79 79 82 83 77 81 81 82 82 81 84 82 81 79 78 80 81 81 83 88 87 96 96 98 94 89 84 82 79 86 86 82 81 85 86 84 82 80 81 80 80 82 77
84 86 85 85 80 81 83 82 83 84 84 84 82 81 79 83 83 87 89 87 90 99 99 93 95 94 86 83 82 88 84 82 80 80 78 78 82 80 82 82 83 78 80
85 88 88 84 77 83 82 82 83 82 84 83 83 81 82 82 85 86 91 99 91 99 96 96 89 94 89 87 83 87 81 81 78 77 73 73 72 84 81 78 70 74 78
85 87 88 89 90 84 82 84 84 84 83 84 85 86 85 86 86 92 98 98 97 95 96 93 88 87 89 83 84 82 85 84 82 78 75 70 73 74 80 80 69 65 70
84 86 88 92 91 87 83 86 85 85 86 86 87 88 88 87 87 93 97 93 90 90 94 92 91 86 83 86 85 83 82 86 85 83 74 71 74 74 77 74 81 75 68
86 83 84 86 87 88 85 86 90 85 86 86 87 87 87 87 86 93 95 91 90 91 94 95 94 87 87 81 84 83 82 81 91 81 75 72 69 68 70 75 73 72 80
90 86 84 83 83 82 85 88 88 84 84 84 85 87 87 88 86 90 90 87 90 91 96 96 96 89 88 86 85 82 80 80 84 88 84 76 69 69 71 77 71 67 72
91 90 88 84 86 84 87 86 85 87 90 93 94 93 92 90 89 90 88 86 84 89 95 95 94 91 91 90 84 85 84 80 81 85 79 75 68 68 72 77 75 70 69
84 91 93 93 92 88 89 90 89 84 84 90 91 92 92 92 96 93 88 88 89 87 87 85 86 89 85 84 83 83 84 84 83 86 83 82 76 72 68 73 75 74 75

GFSMW_sfc_rhum_114.txt.gz
RH
49 51 73 90 96 80 82 83 86 82 84 82 88 84 72 68 64 60 60 58 55 58 59 57 59 61 62 61 62 64 67 67 62 57 52 53 54 56 56 55 58 55 54
51 53 65 94 96 91 84 84 85 88 85 82 82 83 76 65 63 65 63 61 61 64 63 64 65 64 64 66 66 67 72 64 57 58 61 61 59 60 59 63 65 68 67
54 60 64 91 92 94 87 86 88 90 87 83 86 85 82 81 77 76 71 68 64 70 71 67 71 70 74 76 70 67 68 66 69 71 67 70 68 68 69 67 77 78 74
56 62 63 87 92 95 93 88 93 94 87 80 89 89 86 85 76 76 78 75 65 69 73 78 73 72 76 76 76 74 78 91 90 84 77 76 75 75 72 70 66 68 78
70 64 62 82 86 96 98 99 98 97 97 90 92 93 86 81 81 80 81 81 79 70 74 73 69 76 80 89 92 93 91 85 80 82 86 88 85 82 92 98 96 93 97
76 61 66 91 92 95 95 97 99 99 98 97 97 93 95 97 96 92 90 90 90 90 87 87 86 88 94 94 86 79 83 84 83 80 82 81 86 90 93 97 93 92 90
76 53 62 91 92 91 91 89 95 97 97 98 94 98 97 98 94 93 93 91 90 91 94 92 96 96 96 93 81 79 90 93 93 88 81 76 73 70 75 79 78 84 89
69 51 54 76 96 97 94 93 92 92 95 96 97 97 97 99 100 99 97 99 98 96 96 97 97 96 93 83 89 93 91 90 88 83 80 72 71 77 82 84 79 78 65
80 50 54 66 86 94 96 95 94 92 91 92 97 98 98 97 100 99 98 99 99 99 99 98 96 95 87 81 80 81 78 74 80 80 82 83 84 87 85 86 90 86 81
52 39 50 64 73 87 96 95 94 94 92 92 94 92 94 94 93 96 99 98 99 99 98 95 89 85 80 77 75 77 77 78 79 79 76 75 77 72 74 77 78 80 90
75 48 46 60 76 78 90 93 90 92 97 94 91 88 86 87 89 94 97 94 97 92 88 84 79 77 75 72 71 71 69 68 72 72 70 70 66 68 69 75 76 83 84
82 59 50 53 70 82 88 96 94 94 93 92 92 94 96 96 97 96 90 88 85 78 76 73 71 67 66 63 63 64 62 62 64 67 66 65 67 68 73 70 75 84 81
78 61 58 53 60 76 81 91 93 88 84 87 88 90 90 89 88 85 79 76 74 71 68 64 65 63 61 58 55 55 57 59 61 65 66 69 69 74 78 77 83 82 83
70 73 68 68 60 66 74 81 91 87 85 84 84 85 83 81 80 77 74 71 66 66 64 60 59 60 57 56 57 56 59 61 64 69 68 68 69 70 73 75 73 77 83
63 65 69 68 64 63 66 72 80 82 80 80 81 80 78 76 75 74 70 64 62 62 61 60 59 59 60 60 62 62 63 65 68 73 68 72 78 82 78 72 75 78 81
59 66 61 61 64 65 62 67 75 77 74 77 78 76 72 70 71 70 68 66 63 62 61 62 63 65 65 85 78 70 68 68 68 71 70 68 78 74 79 83 83 82 81
58 67 62 62 64 63 61 62 63 64 68 70 70 69 67 68 68 66 68 68 69 67 68 67 67 70 73 86 83 79 72 75 77 78 78 72 67 73 65 70 75 74 80
61 61 64 61 59 60 60 61 62 63 67 65 66 64 64 66 66 66 70 76 75 78 79 82 76 80 77 85 84 82 73 69 69 70 71 69 66 67 72 71 74 72 67
64 65 63 63 60 61 60 61 62 65 66 65 65 64 63 66 66 74 76 75 83 93 90 83 78 78 78 85 85 78 69 71 68 65 64 65 67 74 79 80 85 68 67
66 68 65 60 59 64 61 61 60 59 63 64 64 61 64 65 68 71 78 88 79 93 83 84 80 77 71 85 83 77 64 67 64 64 60 74 67 76 82 77 72 71 62
67 65 66 70 70 65 62 66 65 68 68 65 66 66 65 68 69 77 80 83 86 89 90 84 75 73 70 69 84 85 68 64 65 66 66 59 72 73 79 81 74 71 58
65 67 70 75 73 70 66 70 74 74 71 68 70 70 70 70 70 76 84 74 74 74 76 72 76 69 65 80 81 84 81 76 72 73 68 65 70 74 76 77 79 76 67
67 63 65 68 72 77 73 74 76 69 68 68 69 69 67 66 65 65 72 67 67 65 71 82 78 70 69 63 85 83 82 81 83 83 78 73 71 70 69 75 73 77 68
70 66 63 65 73 76 79 81 83 79 69 72 71 68 67 66 64 68 67 64 67 68 74 82 80 70 70 69 68 72 73 81 80 84 85 77 73 68 62 64 70 64 60
69 68 67 67 70 68 70 76 79 86 92 94 95 93 89 83 80 78 72 69 65 72 76 78 75 76 77 74 74 74 75 72 74 78 78 76 73 74 67 61 61 62 61
64 67 70 69 71 68 70 74 72 70 70 72 82 89 90 93 98 96 96 93 92 90 89 88 87 89 81 80 82 83 84 84 84 85 79 78 79 80 75 64 59 59 65

GFSMW_sfc_rhum_117.txt.gz
RH
40 41 51 73 87 92 95 94 94 81 80 90 95 88 69 52 49 48 47 49 43 45 46 45 48 51 56 56 56 59 64 67 63 63 60 56 52 53 54 54 53 53 57
42 40 50 71 90 93 92 95 88 84 80 83 82 76 70 64 65 64 52 48 45 50 49 54 55 56 59 61 61 64 71 71 66 64 66 68 64 59 58 60 63 64 72
43 40 49 70 90 92 95 89 88 86 82 80 82 79 75 71 73 70 67 67 60 63 62 63 62 63 63 68 69 71 74 73 69 63 72 72 77 71 66 67 71 77 79
42 42 52 67 92 90 91 92 84 93 85 80 85 82 84 81 72 73 71 73 64 69 72 72 71 73 80 77 77 73 75 82 91 81 76 76 74 85 80 70 66 65 69
44 50 55 64 88 86 94 92 92 94 90 86 84 86 83 77 75 74 77 75 70 70 75 77 80 82 82 79 79 82 89 88 86 83 83 82 84 78 87 86 92 90 87
60 60 57 61 87 92 97 98 97 93 91 84 84 86 84 81 82 84 83 80 81 81 81 79 81 83 83 85 90 97 92 82 82 79 80 84 86 87 86 92 86 87 74
69 60 56 79 92 94 96 94 98 99 96 97 95 97 96 96 86 85 86 91 91 90 90 89 90 88 91 87 96 98 92 86 87 84 84 82 80 76 74 80 86 86 77
67 52 60 89 90 96 96 96 97 98 99 98 98 98 97 96 96 95 88 91 89 88 86 88 91 97 97 96 97 94 90 94 96 89 87 83 80 81 81 85 88 89 79
69 64 59 89 89 92 94 94 95 93 95 96 98 99 99 98 99 99 97 96 98 93 93 94 95 94 94 96 95 94 94 92 88 85 84 80 82 82 83 84 88 91 85
71 66 75 88 84 83 85 87 88 90 92 96 94 97 97 96 95 97 99 99 99 99 98 99 98 99 99 98 93 89 81 85 87 87 82 79 79 78 78 83 79 84 90
87 74 85 88 94 94 93 97 93 98 98 96 97 97 95 94 96 94 96 98 99 98 98 98 98 97 96 92 85 81 79 79 80 78 74 73 69 75 76 80 80 80 90
82 71 81 84 88 96 95 97 98 99 98 97 95 92 92 91 94 90 94 94 95 97 95 96 94 91 87 79 75 73 71 70 71 71 70 68 66 72 73 75 76 86 88
82 70 73 72 84 92 97 98 98 99 98 95 89 93 97 92 95 95 96 96 94 92 90 84 84 78 73 69 65 62 60 60 61 66 68 68 69 72 83 84 86 83 83
84 77 63 63 75 82 91 95 96 95 96 96 96 97 95 94 94 92 93 91 89 86 78 74 68 66 62 60 58 57 58 61 62 69 68 67 69 72 74 79 78 78 81
74 81 81 65 62 64 76 85 91 92 92 90 91 91 88 87 88 88 89 85 82 75 70 64 61 60 62 59 62 65 66 69 72 77 70 76 80 84 82 76 78 79 81
58 60 65 72 66 62 66 75 82 86 82 82 83 82 80 81 81 79 74 78 76 69 65 65 64 66 60 81 75 70 71 71 72 74 72 68 81 77 77 83 83 87 86
58 58 60 59 62 60 59 64 69 71 77 80 77 75 73 75 76 72 75 80 77 70 70 70 69 72 78 83 80 76 75 79 82 83 83 75 66 77 68 77 77 79 78
62 60 58 60 57 56 58 58 61 64 70 73 76 74 72 73 72 74 74 78 78 79 80 81 78 84 85 85 82 82 80 76 74 72 73 72 70 70 74 73 80 80 75
62 61 58 57 57 59 57 58 60 63 65 65 66 66 66 69 68 78 80 79 84 88 86 81 82 84 89 89 85 78 75 78 74 66 66 67 69 77 78 82 92 79 74
63 63 60 58 58 58 54 56 58 59 65 62 64 64 67 67 72 79 81 87 85 90 86 84 78 78 79 89 87 80 67 73 68 68 64 75 68 78 81 81 78 87 76
64 62 65 69 66 61 58 63 65 73 68 65 66 67 66 72 73 81 84 85 89 88 86 83 76 73 69 78 85 85 71 69 69 72 72 64 74 74 74 80 85 83 71
60 64 68 73 72 69 63 72 76 69 66 65 68 70 71 70 73 80 80 80 81 82 80 76 76 72 68 78 85 85 85 75 75 78 74 72 69 73 74 77 74 79 77
60 57 63 68 71 74 79 87 88 77 67 63 64 66 65 65 65 68 70 70 69 70 71 77 79 74 70 66 82 84 84 82 85 82 82 76 71 71 71 73 75 76 90
62 58 58 62 65 68 72 77 82 82 82 80 79 76 67 64 60 65 64 64 65 66 70 80 84 74 74 72 73 82 83 85 85 87 92 86 79 73 69 68 74 85 84
60 58 59 60 62 60 64 64 65 69 88 94 97 97 96 93 89 86 82 76 70 78 77 78 80 79 81 77 73 75 77 79 82 86 92 92 87 84 81 81 75 77 80
58 60 62 62 62 60 63 65 64 64 66 66 72 79 87 95 99 99 98 95 96 95 95 94 95 93 89 84 84 85 83 79 78 88 88 86 87 86 83 81 78 76 74

GFSMW_sfc_rhum_120.txt.gz
RH
26 44 54 76 91 92 95 95 96 94 87 82 78 69 62 61 64 63 59 58 57 59 62 64 58 65 72 77 75 79 81 87 84 84 83 79 72 73 74 76 77 77 77
33 50 58 83 95 94 94 94 97 92 87 81 72 61 60 61 64 68 61 64 59 62 59 61 61 71 76 77 77 82 90 90 87 86 87 87 85 81 77 86 84 91 90
54 59 53 80 95 96 96 93 90 94 91 82 79 76 75 65 68 67 66 68 64 67 68 72 69 76 79 82 84 87 88 93 92 82 90 89 94 90 88 90 92 91 94
48 46 53 76 92 95 93 92 92 99 93 87 84 84 78 78 71 67 65 69 67 69 80 79 80 84 89 90 91 88 91 94 96 91 87 91 92 96 94 89 88 88 87
52 53 58 68 88 93 94 93 92 96 97 88 84 86 84 81 77 78 84 76 79 78 87 86 91 93 95 93 94 97 96 93 95 94 95 94 93 88 96 96 96 95 96
57 54 61 70 92 94 94 96 94 89 95 97 88 88 85 91 90 88 91 90 90 92 92 91 92 94 95 96 96 96 95 96 94 93 93 95 96 96 95 96 92 96 93
79 77 75 78 94 96 93 97 95 95 94 93 95 84 87 91 88 90 89 92 94 96 95 91 93 95 95 96 96 97 97 95 96 94 95 94 94 88 86 86 87 93 87
66 71 69 76 92 93 98 97 95 97 96 98 99 98 98 96 92 90 90 88 91 93 95 96 96 96 95 96 96 98 97 96 97 96 95 93 91 89 92 93 95 97 89
75 86 71 88 91 94 96 93 96 98 99 98 98 99 99 98 99 99 91 90 89 93 94 96 97 97 97 97 96 98 98 98 97 97 95 91 92 94 95 95 96 97 96
81 90 86 95 90 93 89 87 90 95 98 98 99 99 99 99 98 98 98 98 98 96 96 98 97 98 98 98 98 99 97 96 95 94 90 90 94 92 93 94 90 90 97
91 93 97 93 90 94 95 95 96 97 97 98 98 98 99 99 99 98 97 98 99 98 98 97 98 98 98 99 98 98 96 95 92 90 88 90 88 93 93 93 91 87 92
94 93 98 98 98 98 98 98 99 98 97 97 97 98 98 99 99 99 98 98 98 98 97 98 98 98 98 98 98 97 93 89 91 92 89 88 80 86 90 94 93 91 91
90 88 90 95 97 98 98 99 99 99 98 98 98 99 99 99 98 98 98 99 98 98 98 98 98 98 98 98 96 93 88 88 87 88 86 85 83 90 94 93 94 93 86
91 91 88 87 91 96 97 97 98 99 99 98 99 99 99 99 99 99 99 98 97 98 97 96 96 92 90 86 82 80 78 78 80 81 82 81 83 87 90 90 91 90 93
84 88 89 86 88 90 94 93 93 95 94 97 98 99 98 98 98 98 97 96 93 92 88 84 84 81 80 73 76 76 80 84 87 87 84 88 86 86 87 87 93 91 92
75 76 76 77 77 82 89 89 92 91 85 89 92 92 91 91 93 94 93 90 90 91 85 81 83 79 67 80 81 79 83 85 88 87 83 84 83 82 79 84 84 89 94
72 71 73 73 77 76 74 80 81 79 83 85 83 84 85 86 86 84 86 88 90 91 91 91 82 83 84 82 81 83 83 88 90 90 90 84 78 82 84 80 78 79 79
74 72 72 71 69 70 74 76 77 78 82 85 87 85 82 83 84 86 91 92 92 93 93 94 92 92 88 84 83 86 90 90 88 87 88 84 85 85 82 84 89 89 88
74 74 71 71 71 72 70 72 73 75 78 79 78 79 82 84 83 89 91 92 95 94 93 94 96 96 96 88 86 85 88 87 87 80 80 79 80 81 78 90 93 91 88
78 80 79 75 74 74 70 75 81 82 84 80 80 79 80 83 90 90 93 95 95 96 95 93 93 92 97 90 85 82 83 88 84 81 79 77 77 82 80 93 91 93 88
81 81 83 86 85 80 77 84 85 89 83 80 80 81 82 85 89 94 93 96 97 95 95 94 91 89 93 95 85 85 80 83 84 85 84 80 75 75 77 82 93 91 79
78 82 86 88 85 84 84 92 95 88 80 80 83 85 86 84 89 93 94 95 96 96 96 94 93 91 87 88 88 86 86 79 86 88 86 83 77 75 76 80 83 79 79
76 77 83 84 86 86 89 95 95 90 81 81 83 82 80 79 84 90 91 93 92 94 94 94 95 93 87 88 86 86 85 86 91 92 87 80 76 74 76 75 76 72 93
77 74 77 82 86 84 84 88 87 93 91 90 93 92 92 87 82 82 83 88 90 90 89 93 95 93 91 88 94 91 92 84 82 90 92 89 84 81 85 78 79 93 94
75 74 77 79 81 80 82 81 80 83 91 92 94 96 97 95 92 90 89 88 89 94 93 92 90 91 93 85 81 87 91 96 93 93 97 99 97 95 92 92 91 86 90
75 79 80 80 79 80 83 82 79 80 83 85 89 91 93 95 97 98 98 94 96 96 96 96 97 96 94 92 90 87 85 85 86 96 98 98 97 96 95 93 89 83 80

GFSMW_sfc_rhum_123.txt.gz
RH
38 32 34 72 82 89 92 92 91 82 92 93 95 96 97 91 73 66 63 68 66 64 65 66 60 60 64 72 70 77 86 92 87 85 84 83 81 79 83 85 87 87 89
41 33 40 74 84 86 89 95 89 87 93 90 89 91 90 74 69 68 62 63 64 64 59 58 59 62 72 79 83 85 94 92 88 89 92 93 87 88 86 92 88 91 93
40 35 40 76 80 85 96 94 90 91 93 94 80 80 80 80 73 72 71 71 66 67 64 62 64 67 68 79 85 90 90 96 93 87 88 94 95 95 94 92 93 91 95
59 66 60 79 84 84 91 93 89 91 86 97 82 79 80 77 68 72 71 72 65 67 73 71 72 75 83 86 88 90 92 94 93 92 92 93 92 94 98 94 92 92 90
63 65 61 64 77 84 91 93 91 91 96 94 90 80 74 69 68 70 74 71 69 69 74 71 74 86 84 89 92 96 96 95 95 94 97 95 96 94 96 97 96 94 96
73 58 53 68 82 95 96 96 93 90 92 92 93 82 77 80 76 75 76 78 75 74 83 82 83 92 91 92 94 95 93 94 94 95 95 95 96 98 97 96 90 95 94
81 66 66 78 84 96 96 96 96 94 96 98 95 90 84 82 78 79 75 84 80 82 93 90 93 93 94 93 95 96 96 95 96 95 97 96 95 94 94 90 88 93 94
76 72 84 82 85 92 96 94 96 98 96 98 98 97 96 83 83 82 78 85 81 85 94 90 93 95 95 96 96 96 97 97 97 96 97 97 96 93 90 89 92 97 95
91 87 81 81 80 92 94 94 93 91 93 97 96 95 98 90 89 86 86 86 89 94 96 94 95 96 96 96 95 97 98 97 98 97 97 97 96 95 94 96 96 92 96
88 92 93 78 78 95 92 92 94 96 97 97 95 94 94 96 94 94 94 94 95 95 96 95 96 97 96 96 96 97 97 98 99 98 95 95 93 92 95 95 94 93 95
92 94 96 81 91 94 96 96 96 97 98 97 98 98 99 98 99 98 96 94 95 95 95 94 95 96 96 96 98 98 99 97 97 95 92 90 88 95 96 96 95 95 95
98 98 88 97 95 95 96 97 98 97 96 96 98 98 98 98 99 99 99 99 96 94 94 92 94 95 96 97 97 98 98 98 96 96 91 88 89 93 94 96 93 95 95
95 96 97 97 97 98 98 98 99 99 98 97 96 98 98 99 99 99 99 99 99 99 99 98 98 97 98 98 98 96 96 96 95 93 91 91 90 94 96 96 96 95 94
94 93 95 97 97 97 98 98 98 98 98 98 96 98 99 99 99 99 99 98 98 99 99 98 98 98 98 97 98 97 98 97 94 94 91 88 87 93 94 95 95 94 95
92 93 93 95 96 96 95 94 94 96 98 98 98 99 99 99 99 99 99 99 99 99 99 99 99 99 98 98 98 97 94 93 92 90 86 89 89 88 87 92 95 94 95
88 87 87 87 90 92 91 89 92 90 91 96 98 96 97 98 99 98 97 94 93 91 90 89 88 86 86 93 92 86 86 89 87 90 90 88 87 87 84 85 86 90 94
88 88 88 90 88 87 86 88 85 81 84 87 88 89 89 91 92 92 92 98 98 96 95 93 90 92 90 92 92 91 90 90 89 88 92 88 84 88 90 83 82 82 81
87 81 78 77 77 75 76 75 77 80 85 89 90 86 84 87 88 91 93 94 94 97 98 99 98 97 92 87 87 86 88 87 86 85 85 81 87 88 88 92 93 93 92
87 87 82 79 76 76 76 77 79 78 81 80 81 83 83 85 86 91 92 92 93 94 95 96 96 96 94 88 89 86 86 87 87 82 82 82 88 85 81 91 94 92 91
87 89 85 84 85 83 79 81 84 84 87 85 87 87 87 88 92 92 94 96 92 94 93 96 95 93 95 90 90 87 86 88 87 86 84 82 82 83 81 93 94 95 92
87 84 85 90 90 85 83 91 90 94 89 86 86 87 89 90 93 94 96 96 96 94 93 91 91 94 94 94 84 83 85 87 88 87 88 85 81 83 82 86 94 92 86
85 85 88 91 89 90 89 95 97 93 88 88 89 90 91 91 92 93 95 94 93 94 95 93 94 90 91 91 88 85 85 80 86 85 83 84 84 81 79 83 85 83 81
84 83 87 88 90 88 89 94 98 94 89 89 92 92 87 88 92 92 94 96 95 96 95 95 95 93 92 93 88 88 86 86 88 87 85 83 84 79 79 78 79 79 95
84 82 83 88 92 90 89 91 91 92 94 96 97 97 96 94 91 85 85 91 93 94 94 95 96 95 94 91 88 92 92 90 93 89 92 86 86 83 85 85 84 93 96
81 81 83 85 87 85 86 87 86 88 92 93 94 94 96 97 97 95 95 97 92 96 94 92 92 93 95 91 84 90 94 96 93 95 97 99 99 98 97 94 92 92 94
86 86 84 84 84 88 92 92 89 89 92 92 94 95 95 96 96 97 96 86 90 92 95 96 98 96 95 95 96 96 93 92 92 98 99 98 98 98 96 94 95 95 86

GFSMW_sfc_rhum_126.txt.gz
RH
34 34 38 44 58 62 78 89 90 87 90 98 98 98 97 94 93 95 77 73 76 71 70 69 74 72 72 70 64 77 87 94 91 89 90 89 88 85 86 87 92 92 94
33 40 44 47 66 62 76 84 85 84 83 88 92 92 92 92 93 94 91 73 77 72 66 64 69 69 67 67 68 84 95 95 92 92 94 95 91 91 90 94 92 94 95
39 43 44 48 66 78 86 83 85 86 82 82 86 90 90 90 93 96 91 87 75 75 67 64 66 67 63 67 70 82 90 96 96 86 86 97 96 96 95 93 94 92 95
45 45 48 51 67 73 86 85 86 88 84 92 94 91 91 93 90 84 93 88 76 76 72 71 68 67 67 74 78 82 90 94 96 96 94 92 93 94 99 95 94 94 92
59 67 64 49 63 76 92 89 87 89 88 93 92 92 86 91 84 83 88 89 78 73 71 70 71 72 78 79 85 92 91 94 94 94 97 96 97 95 95 97 97 95 96
67 66 64 70 83 90 86 88 85 92 90 93 95 92 90 91 96 91 90 86 82 76 74 72 73 78 82 88 89 92 94 94 93 95 95 96 95 97 97 98 95 94 93
83 78 71 79 82 91 87 88 79 86 97 90 93 93 98 91 93 91 90 85 81 81 80 75 81 87 87 90 93 94 95 94 94 94 96 94 93 94 95 95 95 95 96
93 90 82 82 86 82 85 84 86 91 91 91 94 93 97 96 91 87 84 80 78 78 83 78 83 87 92 94 94 96 96 96 96 95 96 97 96 95 93 92 94 97 97
94 93 88 92 86 88 80 85 87 91 92 95 93 95 98 100 95 93 86 81 79 79 92 84 86 93 94 94 95 96 96 96 97 97 97 97 97 95 93 92 92 94 97
92 94 92 84 85 83 94 94 92 93 94 93 92 89 94 97 97 90 84 86 84 88 92 93 93 95 95 96 95 96 97 96 98 98 98 97 97 95 95 94 95 95 94
93 94 94 86 78 92 98 97 97 98 96 92 92 90 92 96 92 96 88 90 89 94 92 93 93 95 96 96 96 95 96 98 99 99 96 94 93 97 96 95 96 96 96
95 94 94 90 94 97 97 97 99 99 99 98 97 96 94 97 93 95 96 95 94 92 92 92 94 95 96 96 95 96 97 98 98 98 95 95 92 93 96 96 95 95 96
98 98 92 95 98 97 98 98 99 99 99 98 97 96 98 95 98 98 99 98 98 98 97 96 96 96 97 96 95 95 98 96 96 95 95 94 89 94 98 97 97 97 97
95 96 97 97 97 97 98 98 99 99 97 96 98 98 98 98 99 99 99 99 97 98 99 99 96 95 96 96 96 97 97 96 95 95 94 91 88 91 94 96 96 96 97
94 96 97 98 97 96 96 96 98 98 97 98 98 99 99 99 99 99 99 100 100 99 99 99 99 99 99 98 98 97 97 98 99 98 96 95 94 92 89 93 96 96 97
93 93 94 94 95 94 94 93 95 97 94 97 98 98 98 98 99 99 99 99 99 99 99 99 99 99 99 100 100 99 98 98 98 99 97 95 95 92 90 89 90 91 94
93 93 93 92 92 92 90 92 88 85 89 90 91 94 93 96 97 95 96 99 99 97 98 98 98 98 98 98 99 100 99 98 98 97 96 94 89 91 91 89 89 88 85
94 92 90 88 85 79 77 76 77 79 85 89 88 86 88 91 90 91 94 96 98 99 99 99 99 98 100 98 98 98 99 99 97 96 93 85 88 87 89 91 94 93 92
90 90 88 85 84 82 78 77 79 80 84 85 84 84 84 88 88 93 93 94 94 96 98 97 97 96 98 96 94 93 94 95 93 88 86 82 84 86 87 91 96 96 94
89 90 88 86 86 87 83 85 87 87 91 90 92 93 94 94 93 93 95 96 94 95 96 97 96 96 98 96 96 94 93 92 89 87 85 84 83 86 84 90 94 97 95
92 89 89 94 95 90 86 92 93 97 93 90 89 91 93 95 96 97 96 96 96 94 93 91 90 92 93 95 92 92 92 92 92 89 92 91 87 87 84 84 93 91 90
89 88 91 92 90 91 92 97 98 94 90 89 91 92 95 93 92 95 96 95 94 95 92 92 94 94 94 91 88 86 83 79 86 88 86 85 87 89 87 87 85 83 82
90 89 92 91 91 91 92 96 99 96 94 95 96 96 94 94 94 94 95 96 95 95 95 96 94 91 88 86 89 91 91 94 96 94 90 85 87 87 85 85 84 84 95
89 86 88 91 93 93 92 94 93 92 92 94 94 96 97 97 96 96 96 95 96 96 96 96 96 95 94 94 92 93 94 92 94 88 92 87 88 85 87 88 88 96 97
87 87 89 91 92 92 94 94 92 92 94 94 95 95 96 96 96 97 98 98 97 98 99 98 98 98 96 93 93 90 94 97 96 96 97 98 98 98 98 95 94 96 97
86 87 87 88 90 92 94 94 93 93 94 97 97 96 98 98 98 98 96 85 85 85 88 92 96 98 95 94 95 94 95 95 93 99 99 99 98 98 98 98 97 93 90

GFSMW_sfc_rhum_129.txt.gz
RH
28 27 30 43 55 58 59 67 81 83 86 98 93 94 97 96 95 97 87 88 88 84 81 85 84 83 84 82 80 83 85 94 94 92 94 93 92 90 90 93 94 90 93
34 30 33 43 69 56 60 63 76 80 82 86 93 96 96 94 91 92 91 80 86 84 84 80 80 80 80 85 78 84 95 95 91 92 94 94 92 94 94 96 93 94 96
45 41 36 42 62 70 65 61 70 77 81 78 90 98 94 97 94 93 97 86 83 85 84 80 75 76 75 80 74 77 83 96 97 88 87 98 96 96 96 94 95 94 96
64 47 42 45 58 74 72 64 67 78 79 81 83 88 90 89 91 88 88 91 87 94 85 78 74 74 75 77 74 72 78 90 90 97 96 91 92 96 99 96 95 94 93
78 58 48 46 53 63 77 78 74 78 78 84 82 88 87 87 85 88 93 90 88 93 93 93 87 77 76 76 76 84 91 81 92 96 98 96 97 94 96 99 98 96 96
80 81 52 55 66 79 78 84 88 87 84 88 90 90 90 90 94 94 91 92 91 90 89 91 91 82 77 81 82 82 87 91 91 96 95 95 94 96 96 97 97 95 96
90 93 77 75 79 89 91 89 88 85 88 89 88 87 92 92 91 89 89 91 91 88 90 90 93 87 79 81 81 86 88 94 90 89 92 93 91 95 94 94 96 96 97
91 94 92 86 82 84 89 87 84 79 89 89 89 83 90 90 91 90 85 84 88 87 90 91 89 82 80 81 84 87 90 94 94 93 94 95 95 96 94 92 94 97 98
78 91 91 92 87 84 84 87 84 79 88 88 90 88 94 97 93 90 88 86 81 82 89 90 88 81 83 86 88 90 95 94 95 94 95 97 98 96 94 92 90 92 98
86 91 94 93 91 87 88 87 80 84 84 90 93 89 90 96 96 97 92 92 94 90 91 90 88 88 88 90 91 94 96 95 97 96 97 98 98 97 97 95 94 92 91
94 94 93 93 85 84 89 83 86 88 90 85 93 93 94 92 95 98 96 94 96 96 95 90 89 91 92 94 93 95 97 94 96 98 97 98 96 97 97 96 96 96 94
94 93 91 91 85 94 92 93 91 88 84 94 92 94 93 94 96 98 98 97 94 93 92 90 91 92 94 95 94 96 96 95 97 97 98 98 97 97 96 96 97 97 96
97 98 97 99 97 96 93 96 99 99 99 96 95 97 98 96 98 97 94 94 95 95 97 96 94 94 95 96 94 94 96 95 95 97 98 96 96 97 98 96 95 96 96
94 94 97 98 97 97 99 98 99 98 98 98 98 98 98 97 96 98 98 98 96 97 97 96 96 96 97 97 96 96 97 97 97 97 96 96 94 94 96 96 93 96 96
93 96 96 97 96 97 97 96 98 97 96 97 97 98 98 98 98 98 99 99 99 99 99 99 99 99 99 98 98 97 97 97 98 97 96 94 92 93 89 91 95 96 97
93 93 92 93 94 95 95 95 97 97 94 97 98 97 97 97 98 98 98 98 99 99 99 99 99 100 100 100 100 99 98 98 98 98 98 96 97 93 92 94 93 90 93
94 94 93 93 94 93 90 94 94 91 89 92 92 94 94 96 96 94 96 98 98 97 98 99 99 99 99 98 99 100 100 99 98 98 99 99 99 98 97 97 96 95 90
93 92 90 90 87 80 80 80 81 84 86 87 90 90 90 91 90 91 95 97 97 99 99 99 99 99 99 98 99 99 99 99 99 99 99 99 99 99 98 98 98 96 95
91 90 88 87 85 85 80 79 81 83 87 92 92 89 88 90 90 94 96 95 95 97 98 97 97 97 99 96 96 96 99 99 99 99 99 98 99 97 94 96 97 96 94
91 93 91 89 91 91 85 87 91 90 95 95 95 93 93 92 93 94 96 97 96 98 98 98 98 95 99 97 96 94 96 98 97 98 97 94 93 93 91 90 91 97 96
92 89 89 94 95 94 89 94 93 98 95 91 93 93 93 95 97 96 96 96 96 95 96 96 95 96 94 96 93 94 98 98 98 99 99 99 94 94 94 92 96 94 92
90 89 90 92 90 91 92 93 97 98 95 93 93 94 95 92 93 95 96 95 95 95 96 95 96 96 96 90 87 87 86 88 93 97 95 94 93 96 96 95 88 82 84
92 90 92 93 93 92 93 94 97 92 90 92 96 97 96 96 96 96 96 96 95 96 97 97 96 96 95 94 85 89 89 92 97 95 91 89 92 95 95 92 90 88 95
89 89 92 94 96 95 94 96 95 93 93 95 95 96 96 96 97 96 96 98 95 97 99 99 99 95 93 93 94 93 95 93 97 94 97 96 96 95 95 96 96 98 96
88 89 91 93 94 95 95 95 94 92 94 95 96 96 96 97 97 96 96 94 89 90 96 98 99 98 98 97 95 95 94 95 95 96 98 99 99 99 99 98 97 98 99
90 91 90 91 93 94 95 93 93 92 93 96 97 96 97 92 92 90 92 83 84 83 85 86 90 92 90 91 94 95 94 91 91 98 99 99 99 98 98 98 98 98 98

GFSMW_sfc_rhum_132.txt.gz
RH
35 33 32 36 59 58 59 64 65 79 83 93 94 92 91 97 99 98 90 89 86 88 90 88 84 82 81 88 91 93 92 94 95 96 96 95 93 91 92 94 89 88 92
46 44 42 38 57 56 59 59 65 69 82 81 91 96 92 91 94 93 96 95 89 89 89 89 88 83 77 90 91 88 95 95 93 95 95 96 94 96 94 96 94 96 97
72 68 66 53 54 64 63 58 61 66 79 79 90 97 98 98 97 95 95 93 92 92 90 91 90 89 79 90 86 83 84 92 95 92 90 98 96 97 98 96 96 96 97
74 74 73 64 56 68 64 62 62 66 70 80 82 86 85 92 92 88 93 93 88 91 90 91 88 88 85 83 83 78 83 92 89 97 96 91 92 96 99 98 96 95 94
72 80 76 68 57 59 77 69 68 68 71 79 78 86 84 87 88 90 91 91 91 88 90 89 88 88 86 83 80 84 86 84 84 93 98 96 96 94 96 99 99 97 97
76 80 76 80 66 76 80 79 74 71 72 80 85 82 86 88 95 96 92 88 93 91 91 88 89 90 89 89 87 82 81 81 85 86 95 94 95 96 95 97 98 97 98
77 85 90 92 79 79 80 79 78 77 76 82 86 84 85 88 90 92 92 85 89 91 91 93 91 91 91 91 85 83 84 85 86 89 88 93 89 92 93 94 97 97 99
76 82 83 93 92 81 85 83 83 85 84 87 87 86 84 90 87 87 88 88 83 83 77 91 89 89 88 87 84 85 84 85 86 90 90 89 90 93 92 91 94 97 99
76 82 81 92 93 92 89 91 89 89 85 86 84 90 89 89 90 91 92 90 84 76 81 84 86 88 87 84 83 82 84 87 87 91 92 89 94 94 94 92 91 92 98
81 81 89 92 92 92 91 91 89 87 83 85 84 86 88 89 88 87 89 84 84 81 80 86 87 87 86 84 82 81 83 87 89 92 95 94 96 94 96 96 92 92 93
91 90 94 92 91 90 92 93 91 87 88 88 87 90 90 92 90 89 87 89 86 81 82 86 87 89 90 93 90 83 86 91 93 95 94 94 96 97 98 97 96 94 93
94 95 92 94 92 94 93 91 92 92 93 86 92 86 87 88 94 98 96 88 84 83 88 88 89 90 91 91 91 88 91 90 96 95 95 95 97 98 96 97 95 94 96
88 90 94 93 93 95 95 95 90 92 89 87 89 92 92 97 96 96 97 98 95 94 95 95 96 97 96 96 94 92 94 94 93 94 95 95 97 97 99 98 98 98 98
88 90 92 95 97 98 95 90 88 88 88 84 93 90 91 96 97 95 95 96 97 98 97 97 96 98 96 96 96 97 96 96 96 95 93 95 96 95 97 97 97 98 98
91 94 95 95 95 97 97 97 97 97 96 97 98 98 99 98 99 99 98 98 99 99 99 99 99 99 99 98 99 99 98 98 98 97 96 95 95 96 93 94 96 97 96
92 93 93 92 94 94 95 94 95 96 93 96 98 97 97 97 98 98 98 98 98 98 98 99 99 99 98 100 100 100 99 99 98 99 98 98 100 99 97 96 96 91 94
94 94 94 93 92 94 90 93 90 88 90 92 92 93 93 95 97 97 97 98 98 98 99 99 98 99 99 98 99 100 99 100 99 99 98 99 99 99 97 98 97 96 93
94 92 91 89 87 82 84 83 84 84 88 89 89 88 86 88 89 91 95 97 97 98 98 99 99 98 98 98 98 98 99 99 99 99 99 99 99 99 99 99 99 99 99
92 91 90 91 88 86 81 83 87 85 87 89 89 88 85 87 88 93 96 94 94 97 98 98 98 98 99 98 98 98 99 99 99 99 99 99 99 98 98 99 99 99 100
89 92 92 91 90 95 88 90 94 92 95 94 93 90 90 93 95 96 95 94 94 95 93 93 94 94 99 96 95 95 98 98 99 99 99 97 98 97 97 99 99 99 99
93 90 87 92 93 87 84 91 92 96 97 92 91 92 92 92 95 94 94 94 94 93 96 96 96 96 95 96 90 89 95 98 98 99 99 99 95 96 96 95 98 97 98
92 92 94 95 93 92 89 94 96 95 95 95 95 96 96 94 92 94 95 94 94 94 95 95 95 95 95 87 91 89 89 86 94 96 97 97 96 97 97 97 94 95 96
91 93 94 95 96 95 95 96 98 94 93 92 95 96 95 96 94 96 97 94 94 98 99 98 98 97 96 95 87 84 87 92 97 96 92 88 90 94 97 96 95 94 98
89 91 92 95 97 96 96 97 96 93 93 95 96 96 96 96 93 88 88 92 87 91 98 98 97 98 97 98 98 96 91 88 92 97 97 95 94 93 96 97 98 99 98
89 90 93 95 96 95 94 95 94 92 94 96 96 96 98 93 93 96 88 92 89 91 95 96 94 92 88 93 93 96 99 98 95 95 98 98 99 99 99 99 99 99 99
89 90 91 91 94 94 94 93 93 92 92 94 96 94 95 95 96 96 94 76 78 81 83 81 86 90 86 85 86 88 88 90 90 96 99 99 99 99 99 99 99 99 98

GFSMW_sfc_rhum_135.txt.gz
RH
36 35 36 41 51 50 53 54 54 54 62 74 72 74 78 87 90 93 86 85 82 84 84 84 84 76 73 68 66 65 68 71 66 68 71 69 68 64 62 62 60 65 69
56 57 52 48 55 47 53 54 55 53 58 63 62 67 72 82 82 88 89 84 85 86 85 88 90 84 80 69 68 68 70 67 69 65 69 75 71 74 71 72 70 69 73
64 60 61 62 67 65 53 53 55 55 58 64 70 78 86 90 90 94 94 90 88 89 88 88 89 87 82 78 75 69 73 74 75 69 65 84 78 82 78 79 78 79 84
56 56 58 64 69 70 62 57 55 59 55 65 69 72 75 82 81 81 85 89 89 90 90 92 88 88 83 83 81 72 71 76 80 81 77 75 72 80 88 84 80 78 79
58 61 62 65 69 71 70 65 60 59 61 65 69 74 76 75 76 80 79 85 86 90 90 90 90 90 87 83 82 77 77 75 72 75 81 81 80 78 84 93 93 87 85
64 64 64 68 75 78 75 73 70 65 65 69 75 74 75 74 83 85 87 86 86 88 89 90 90 90 90 89 84 85 82 78 75 77 80 77 83 85 84 87 90 88 82
72 69 68 72 75 82 75 72 72 71 68 71 73 77 76 76 77 73 82 83 78 90 89 92 92 92 89 87 85 86 85 84 81 78 80 77 75 78 74 80 87 84 88
80 76 71 73 76 80 80 74 72 72 70 71 74 76 77 79 75 73 75 78 73 76 80 88 91 89 87 85 84 88 88 85 86 80 76 80 77 80 79 83 82 88 87
80 79 72 75 75 79 81 81 78 73 71 74 76 77 81 78 80 76 79 82 78 74 77 87 90 90 88 86 84 86 86 83 84 81 82 78 79 82 77 76 78 72 81
84 84 76 79 78 80 81 82 82 79 78 79 81 80 82 78 77 78 78 77 80 77 78 78 89 92 88 88 84 85 77 80 83 84 84 80 75 83 83 86 81 79 76
87 90 88 83 81 82 84 85 86 85 84 84 82 83 84 80 78 79 73 72 82 81 77 75 75 86 91 89 88 84 79 84 83 85 80 82 77 88 89 89 88 85 91
84 86 87 88 90 89 87 85 88 88 86 82 81 85 82 80 77 74 79 78 75 77 76 76 75 77 83 90 91 86 78 84 88 85 84 84 86 87 86 90 90 90 91
85 86 87 90 90 91 89 90 86 85 87 87 90 87 83 83 79 80 80 79 75 75 78 79 80 78 84 89 87 84 81 85 88 83 88 86 88 91 91 93 95 95 97
85 87 88 91 91 91 94 92 91 88 87 90 91 87 88 82 83 80 84 83 80 77 77 84 84 84 80 85 88 90 86 88 90 90 89 87 90 90 92 96 95 96 97
89 92 94 94 93 92 92 91 93 93 93 88 94 95 89 90 87 94 88 86 87 98 91 93 98 98 99 98 95 94 96 96 97 99 98 97 97 99 94 94 94 96 97
92 92 92 91 92 93 94 92 94 94 92 93 97 97 96 99 99 99 98 98 99 99 98 99 98 98 99 100 100 100 99 100 99 99 99 99 100 100 99 100 99 93 94
95 94 94 91 90 91 89 93 91 89 92 93 94 94 95 96 97 96 96 98 98 98 98 98 98 98 98 99 99 100 99 99 99 99 99 99 99 100 99 99 99 99 97
94 93 94 91 88 83 82 78 78 81 84 85 87 90 90 92 91 93 94 95 96 97 97 97 98 97 98 98 98 98 99 99 99 99 99 99 99 99 99 99 99 99 99
87 88 87 87 82 84 82 80 81 81 85 86 85 84 82 85 85 90 93 93 93 95 96 96 97 97 98 96 96 94 96 97 99 99 99 99 99 96 97 99 99 99 99
85 87 84 81 81 79 79 84 87 88 92 90 89 84 84 84 87 87 89 90 88 91 89 90 88 90 91 92 91 91 92 94 94 94 95 96 97 96 96 97 97 99 99
89 87 86 89 90 85 78 86 88 95 93 90 91 92 89 90 88 90 89 88 87 86 87 88 86 85 88 90 91 88 86 91 94 96 96 96 94 96 96 96 99 97 94
89 88 90 92 90 88 82 88 92 90 87 87 90 92 90 89 88 89 88 87 87 88 89 89 90 87 86 88 86 86 90 90 88 91 89 90 90 93 96 97 94 93 95
89 88 90 91 90 90 89 89 93 88 86 85 89 89 88 82 80 82 82 81 79 83 89 91 90 89 88 85 91 88 87 87 90 94 94 93 93 92 93 94 96 94 99
87 89 89 92 93 90 90 91 88 85 82 81 85 91 90 91 85 81 81 80 80 79 86 86 89 86 86 88 82 82 87 89 89 92 93 91 91 92 95 98 98 99 99
88 88 89 90 92 89 88 87 86 82 83 85 84 85 85 83 82 81 79 81 82 84 85 86 89 89 90 89 82 86 88 89 92 88 93 95 97 98 98 98 98 99 99
89 92 91 90 91 90 89 86 84 82 79 78 80 81 78 79 78 74 71 76 73 74 78 76 77 79 78 77 78 79 82 85 88 94 98 99 99 99 99 99 98 98 98

GFSMW_sfc_rhum_138.txt.gz
RH
31 33 36 40 41 40 40 39 38 35 34 31 32 32 34 38 45 61 71 70 75 79 78 72 77 67 62 56 48 43 45 48 45 50 52 52 51 53 52 52 50 51 54
35 35 37 42 50 48 44 44 44 39 36 34 30 29 28 31 36 53 63 80 85 86 80 78 86 76 62 59 54 46 47 46 50 55 51 59 54 53 50 48 49 50 51
40 38 38 40 45 52 53 51 48 46 40 37 38 41 41 42 45 57 70 82 82 85 86 83 88 86 72 68 61 56 53 53 53 51 51 56 58 50 51 54 53 57 59
40 41 42 43 46 48 51 55 54 51 44 40 41 41 44 50 47 50 59 70 85 85 86 86 86 88 84 74 69 58 58 53 60 61 54 54 51 64 67 60 58 58 60
47 48 48 48 47 50 55 59 58 53 51 45 43 42 41 41 39 42 50 60 78 86 89 88 87 89 88 81 78 75 68 57 59 64 64 63 62 59 64 68 82 74 70
56 56 54 52 53 54 58 65 64 60 54 51 47 47 42 41 43 46 50 55 67 85 78 82 90 90 90 90 85 86 80 68 65 62 65 66 71 71 76 76 80 75 73
72 70 66 61 56 57 61 65 67 65 55 51 52 50 51 44 46 47 49 51 58 68 79 89 92 92 89 87 80 90 89 84 77 69 69 68 65 60 70 64 62 75 70
76 76 76 65 60 58 60 62 62 59 52 50 54 53 54 55 50 48 47 46 48 50 63 82 88 90 87 87 83 88 86 84 82 76 76 76 76 71 68 68 67 71 69
77 79 76 61 59 58 59 61 65 59 52 51 54 54 54 58 57 53 50 48 47 46 50 65 81 87 90 86 86 85 86 83 81 77 75 80 76 77 74 68 65 70 72
77 77 78 74 62 60 60 60 63 64 60 56 53 53 52 53 57 56 58 55 52 51 53 56 66 80 89 89 87 88 85 83 82 76 77 76 71 69 77 78 69 71 74
84 83 79 79 77 70 65 66 66 66 67 64 59 60 61 57 57 63 60 58 56 52 56 57 58 65 81 88 91 88 87 87 83 82 77 73 64 77 76 80 78 79 79
86 85 85 85 85 85 81 70 69 71 70 63 62 65 65 65 65 65 63 61 53 50 51 55 56 56 57 77 87 90 87 90 84 79 78 70 70 79 76 84 85 85 82
83 84 85 87 89 90 92 82 75 75 78 76 71 68 68 67 65 65 62 59 57 46 47 50 52 56 61 64 73 84 88 88 84 79 79 80 74 87 90 90 92 90 90
85 85 86 87 88 88 90 90 89 89 86 85 76 74 72 69 65 60 58 52 50 52 48 50 54 61 61 66 73 85 88 88 90 86 83 83 84 88 90 92 90 84 89
89 90 91 90 89 89 89 89 90 92 88 87 86 75 70 73 72 66 58 56 60 58 56 57 61 65 72 77 79 85 88 88 90 90 93 94 97 99 94 94 88 94 98
92 92 91 89 90 90 90 88 89 89 89 92 96 89 90 88 91 85 83 76 78 76 88 75 73 96 99 100 100 96 98 99 99 99 99 99 100 99 100 100 100 100 98
90 90 89 88 88 86 79 86 90 82 86 87 91 94 94 95 93 92 95 97 98 95 98 97 96 98 98 99 100 100 99 99 98 99 99 99 99 100 99 99 100 100 100
72 72 73 72 70 70 70 65 67 81 86 89 92 92 93 94 96 95 98 98 96 97 96 97 97 96 97 98 97 96 95 96 97 98 98 98 98 98 99 99 99 99 98
63 62 59 58 57 60 64 66 71 70 75 80 80 80 86 90 92 95 94 93 92 94 95 94 93 93 94 95 95 92 94 95 98 96 96 96 98 97 97 98 99 97 97
62 63 60 57 55 58 54 59 70 77 88 87 83 74 73 74 79 79 85 85 84 84 82 82 79 87 90 93 90 83 83 88 88 89 89 93 93 93 94 98 98 98 94
65 62 59 61 64 61 57 65 67 78 76 84 83 82 80 82 76 77 77 80 81 80 82 81 78 80 78 83 89 87 79 80 84 85 87 87 89 91 93 94 99 98 98
67 68 65 68 66 65 58 63 70 69 66 67 74 75 72 71 70 73 71 69 69 75 76 78 82 79 77 85 85 86 86 79 73 82 82 84 92 92 90 88 93 94 94
66 66 65 65 64 65 62 63 67 59 54 59 68 69 70 65 65 66 66 64 64 68 73 76 79 78 75 75 82 81 84 86 78 80 87 89 89 87 86 90 93 94 99
66 67 66 65 65 64 63 62 61 57 51 51 55 59 64 65 63 70 66 67 66 68 72 74 80 76 69 67 71 73 73 76 75 80 74 82 83 84 87 90 92 98 99
65 68 66 65 65 65 62 60 60 56 56 57 57 56 52 52 57 63 62 59 64 66 62 64 62 64 65 68 74 74 77 79 76 78 76 81 86 90 94 96 96 98 99
63 68 69 66 66 66 65 62 60 57 52 50 54 53 47 50 54 58 67 73 73 76 77 75 69 65 73 74 72 74 81 81 84 87 96 93 90 88 92 97 97 96 98

GFSMW_sfc_rhum_141.txt.gz
RH
24 26 28 32 38 39 39 40 42 38 35 36 33 33 37 38 40 46 50 76 74 72 76 77 71 68 64 63 55 52 47 47 43 48 52 51 50 52 53 54 50 52 53
27 26 29 32 40 41 44 45 45 43 39 38 35 32 31 34 36 42 48 55 72 78 78 78 81 70 68 62 58 53 50 46 46 52 56 64 57 55 53 54 53 52 51
31 31 32 34 40 46 42 46 50 48 45 42 40 39 36 39 39 39 46 58 61 77 80 76 82 81 69 72 64 59 56 53 49 50 56 63 63 60 56 57 54 53 54
37 38 39 40 42 46 48 46 49 55 50 48 44 42 43 44 39 40 43 53 58 71 83 85 84 86 83 76 71 62 57 55 58 58 50 56 53 58 64 59 58 54 55
44 47 50 51 50 51 54 53 51 54 59 54 50 46 43 41 38 36 40 45 55 62 80 88 92 91 89 83 76 71 65 57 59 62 66 59 62 65 68 71 75 65 62
52 55 56 58 61 59 56 59 58 59 59 59 56 52 48 43 43 41 40 42 49 59 71 83 89 90 91 90 87 78 70 62 59 58 60 65 67 69 70 70 72 77 69
64 68 69 71 76 69 59 55 59 64 60 59 59 56 53 48 43 42 41 42 46 58 70 78 91 92 91 88 86 87 82 80 74 65 68 66 65 68 69 71 62 66 67
77 74 71 77 78 55 55 54 58 62 61 60 62 58 56 53 46 42 41 42 42 46 54 67 76 90 91 90 89 90 88 88 87 81 73 72 69 71 68 74 77 75 79
77 72 73 73 77 66 53 54 56 57 56 52 54 56 54 55 53 48 45 44 43 39 42 54 63 73 83 90 92 90 90 88 86 83 84 83 80 82 82 77 77 75 81
76 78 76 76 76 80 68 55 54 57 58 52 47 48 51 52 53 52 50 47 45 45 44 44 54 64 78 88 90 92 89 89 88 85 82 82 78 76 79 83 79 78 80
87 88 85 82 82 80 83 83 58 58 61 59 53 52 51 49 48 52 50 49 49 47 47 46 46 54 65 80 92 95 92 89 86 86 83 82 77 81 80 80 78 82 82
88 87 87 87 86 87 86 81 85 78 67 58 57 59 57 57 52 52 54 56 52 52 50 47 48 52 58 69 83 88 91 92 89 89 88 84 80 80 77 77 82 86 84
88 88 87 88 89 88 88 86 87 87 82 74 72 63 61 61 59 60 60 60 60 54 50 50 50 56 61 63 72 83 90 93 90 88 89 89 87 85 82 80 83 84 86
86 88 89 87 86 83 85 87 90 90 90 86 87 82 73 67 62 60 60 61 58 58 53 51 49 53 51 58 64 69 78 83 86 87 86 84 84 85 82 85 85 86 91
83 85 86 85 84 81 81 86 89 90 88 89 92 92 86 75 73 68 64 62 63 56 54 54 52 54 59 60 65 69 74 84 86 89 90 89 90 96 94 94 97 99 98
67 69 71 72 76 78 77 81 87 87 86 91 94 91 92 87 86 85 78 78 83 71 75 70 60 62 74 91 98 88 80 91 93 97 99 99 100 100 100 100 100 99 99
59 62 61 62 66 69 70 75 80 80 84 89 91 92 95 90 89 92 93 95 95 95 97 95 93 97 98 99 99 100 98 99 99 99 99 99 98 98 99 99 99 99 100
55 54 53 53 53 51 56 61 65 72 78 79 82 88 91 92 87 92 96 95 94 96 97 96 96 97 98 98 97 96 96 96 97 97 97 98 97 97 97 97 99 98 97
52 51 49 48 49 49 48 55 62 73 82 84 80 79 86 88 86 93 96 96 93 96 97 95 95 96 96 95 95 91 92 95 96 94 94 93 94 96 94 96 98 96 96
52 54 51 49 50 53 49 51 58 64 78 82 81 76 78 83 91 94 96 96 94 94 92 90 88 89 91 93 90 84 82 86 85 85 84 90 88 91 93 93 97 99 97
56 57 51 56 56 55 49 57 58 66 64 64 66 69 70 74 72 76 78 81 82 80 83 82 80 82 84 86 88 86 77 80 83 85 87 88 90 90 89 89 97 98 97
58 59 58 57 56 57 52 56 60 54 53 60 63 65 63 63 62 68 66 64 68 72 74 77 81 77 77 83 82 83 86 80 75 78 79 86 90 90 89 88 90 92 94
56 56 58 56 54 57 56 57 57 50 44 47 55 58 56 58 58 57 58 59 60 65 69 74 75 73 68 67 74 77 77 77 77 82 86 86 86 81 80 87 90 92 98
57 57 59 57 56 56 56 54 53 49 47 46 47 45 52 50 52 53 52 54 55 57 61 64 65 61 62 67 65 64 69 72 72 78 79 80 79 82 83 82 84 92 98
54 58 60 58 56 57 56 54 54 51 50 51 52 51 50 50 56 63 63 58 72 74 60 61 64 64 69 73 72 74 72 75 77 75 81 82 86 86 85 84 88 92 90
54 59 62 60 58 58 58 56 55 53 50 46 49 48 45 50 57 64 67 74 76 76 77 77 69 69 74 73 71 74 73 72 76 81 85 82 84 83 83 89 88 88 84

GFSMW_sfc_rhum_144.txt.gz
RH
27 31 33 41 49 52 52 54 56 54 52 55 54 52 50 54 58 60 59 86 85 83 86 89 80 83 83 69 61 60 63 66 62 68 73 73 69 71 73 75 74 70 70
38 33 38 42 50 54 56 60 59 56 56 54 52 52 48 50 50 60 53 66 86 84 83 85 86 80 85 72 65 63 69 62 65 65 78 85 77 76 71 76 73 74 74
46 44 42 45 50 58 58 55 61 62 58 58 59 56 57 57 59 52 56 59 70 87 85 82 85 85 82 83 69 66 66 65 63 64 77 88 90 85 80 74 74 75 78
53 52 49 55 58 58 63 62 60 64 62 62 63 57 54 54 51 57 57 63 69 77 88 89 88 87 87 84 78 66 64 66 66 69 58 73 74 80 92 82 81 76 72
60 61 58 58 63 61 64 64 64 64 66 69 67 63 57 53 53 53 55 50 63 68 81 91 92 90 88 87 85 82 76 60 62 63 64 63 77 83 89 95 93 87 83
62 62 63 60 64 64 68 70 66 66 65 69 70 67 62 55 59 57 55 53 63 66 77 90 90 88 92 91 89 90 89 76 61 68 64 65 64 83 89 93 94 93 91
67 72 72 68 69 75 78 71 70 68 68 69 71 71 66 60 54 58 58 58 58 67 66 80 89 88 88 92 90 88 91 90 78 73 69 71 67 69 71 80 79 88 90
83 80 69 72 72 74 79 73 64 63 71 68 76 73 69 69 59 60 54 57 48 57 67 72 84 93 86 90 89 90 92 92 92 85 76 78 76 78 82 84 87 92 89
83 79 76 76 78 76 82 87 72 65 62 76 80 77 72 68 66 60 60 56 59 52 56 67 78 84 86 88 89 94 93 91 92 90 91 91 91 95 94 93 93 91 91
88 86 86 84 81 80 80 85 85 72 72 75 70 68 71 69 68 68 65 62 62 60 58 57 61 81 86 85 93 90 82 91 94 93 93 91 86 93 97 96 94 93 95
90 91 90 87 84 82 82 83 84 88 78 76 71 66 70 68 67 69 69 65 63 61 63 61 61 61 75 88 87 85 87 95 95 94 94 92 87 88 92 94 94 96 96
91 91 90 85 84 82 83 84 85 86 86 86 77 75 70 68 67 64 66 68 65 64 64 62 62 58 62 79 87 84 82 89 90 92 93 92 87 90 87 90 90 91 88
86 82 82 85 84 82 84 87 88 90 88 84 90 83 74 76 73 70 68 70 72 69 68 65 66 64 63 67 82 80 80 92 93 94 95 92 91 93 91 92 92 90 90
74 76 77 79 78 78 81 88 90 89 92 91 94 92 91 83 83 78 78 78 78 80 77 73 72 69 66 73 80 83 87 94 92 93 94 95 95 92 94 94 92 90 91
71 74 75 74 73 75 78 81 86 86 85 88 91 93 94 92 88 90 93 87 81 84 84 79 74 72 75 68 77 86 88 87 90 94 96 95 95 96 92 93 92 92 93
69 68 66 66 65 68 74 77 82 82 80 86 93 92 94 90 94 97 97 95 96 96 93 92 97 98 96 98 98 93 89 92 90 95 96 96 100 100 100 100 100 98 99
66 67 67 65 65 66 67 76 83 83 83 85 88 91 90 93 95 94 94 95 96 96 97 98 97 98 98 98 99 100 99 99 99 100 99 98 95 96 97 97 98 97 97
66 66 68 65 63 59 60 65 71 81 84 84 85 88 89 91 93 95 96 95 95 97 96 96 95 96 97 97 96 96 96 97 98 98 97 97 98 97 97 96 97 97 96
68 67 65 63 66 65 61 65 70 74 81 79 80 82 87 89 90 96 97 95 93 95 96 95 94 95 97 97 97 93 94 94 96 94 95 95 97 95 94 95 98 96 96
68 72 67 67 72 71 64 68 72 74 78 81 81 74 78 84 90 91 94 94 92 93 92 94 94 92 95 95 94 94 92 93 93 91 91 91 90 90 90 96 96 98 99
72 75 74 76 75 72 68 75 74 76 78 78 79 80 79 82 83 87 82 85 86 86 88 89 90 89 88 88 87 86 80 84 86 88 93 94 87 86 86 84 94 98 97
70 73 79 74 72 73 71 76 78 70 65 74 76 78 79 74 74 81 81 82 86 91 92 91 90 84 81 78 79 81 82 83 88 95 96 93 84 82 85 85 88 90 93
73 71 76 76 75 76 73 76 74 66 60 61 66 70 71 71 70 75 78 80 81 87 88 86 86 79 76 75 74 74 77 77 81 88 85 82 80 80 80 82 83 85 89
72 73 76 78 77 76 71 73 71 65 63 65 65 62 70 74 77 73 74 90 92 80 77 82 84 85 85 84 83 80 83 81 86 82 83 77 75 74 77 78 81 87 91
70 73 78 80 77 74 76 72 70 68 67 66 66 68 69 76 83 91 94 94 93 88 86 86 88 88 93 82 79 79 84 91 85 88 90 93 95 93 92 86 91 92 90
71 76 78 81 79 76 77 74 69 68 68 64 65 64 63 70 80 85 90 75 76 75 77 76 82 81 76 72 69 69 68 65 70 88 94 94 93 92 92 89 80 82 82

GFSMW_sfc_rhum_147.txt.gz
RH
34 32 39 47 49 54 56 56 55 55 58 60 62 64 53 53 63 65 56 82 92 90 91 91 92 89 85 75 73 62 60 69 71 74 77 76 75 75 76 77 77 75 74
54 51 52 53 57 58 59 63 64 60 60 66 62 60 59 59 46 57 54 60 81 92 91 89 89 88 89 80 77 72 65 58 70 71 82 86 78 82 77 80 76 80 78
64 59 56 56 64 68 67 64 68 67 62 62 65 65 66 66 65 59 51 58 57 77 93 90 90 90 88 89 82 81 70 66 66 62 76 91 89 86 82 78 78 81 83
66 62 59 60 62 66 73 67 66 66 64 67 64 63 59 60 53 64 62 60 69 67 83 92 91 91 90 89 88 79 81 70 71 75 60 77 80 88 89 89 79 81 79
74 69 64 62 65 64 66 68 72 72 69 69 66 70 64 61 59 62 58 64 65 69 82 94 95 94 88 91 91 88 86 76 70 66 67 62 82 81 92 95 94 94 87
79 76 67 62 66 67 63 67 73 75 74 71 71 73 71 69 68 65 60 54 67 67 83 81 95 95 94 90 94 91 90 82 73 67 67 66 66 68 91 95 95 92 92
76 80 77 72 68 73 69 71 75 82 74 69 68 76 77 76 66 62 60 61 55 61 74 84 86 91 94 92 91 91 91 92 86 77 68 66 64 64 65 82 85 90 93
90 88 81 75 75 73 77 76 79 84 71 69 72 83 84 78 74 66 61 61 57 67 60 76 79 91 94 89 89 90 89 90 98 91 83 76 75 77 77 74 78 92 92
90 85 81 82 81 82 82 81 82 86 78 69 68 74 79 78 77 70 69 69 67 56 61 72 84 81 90 91 90 92 90 95 97 96 89 85 90 93 91 95 96 90 95
85 86 88 88 87 85 82 80 79 83 85 70 76 80 83 78 75 76 69 64 66 66 63 61 67 80 90 91 94 90 93 93 88 91 90 91 87 93 97 98 97 96 92
87 85 87 88 86 85 85 85 84 84 86 93 84 78 79 80 78 76 73 68 68 68 69 68 66 68 72 84 93 93 91 94 91 95 97 94 89 92 92 94 94 97 98
81 78 84 84 78 86 87 87 87 88 88 86 92 81 72 75 76 76 76 76 74 70 70 68 68 68 68 73 86 92 92 92 93 94 94 91 92 94 92 93 95 94 92
78 71 74 78 73 79 82 86 87 88 89 88 89 90 82 73 76 75 72 73 73 71 71 70 72 71 73 73 78 87 90 91 86 94 94 95 94 96 96 96 97 96 96
75 76 72 70 68 70 76 81 86 84 85 87 90 94 95 94 82 77 77 77 77 78 79 78 78 78 73 75 75 79 89 90 89 83 90 91 94 93 96 96 95 95 96
75 75 75 76 71 69 74 80 85 85 83 89 92 95 94 94 94 96 95 94 96 94 92 90 90 90 87 84 90 88 89 92 92 91 89 92 96 100 97 96 96 98 98
73 74 72 70 70 71 74 79 83 85 83 89 93 91 92 93 95 95 97 97 97 98 98 99 98 98 93 95 96 98 94 92 91 90 96 99 100 100 99 99 99 99 99
72 73 74 74 74 75 72 80 80 80 81 87 90 90 89 92 94 94 94 96 95 91 94 96 94 98 98 96 94 94 96 98 99 99 98 97 96 98 98 98 97 96 95
71 73 77 74 74 74 71 73 76 77 80 82 85 88 89 93 93 94 96 96 96 96 96 96 96 97 97 97 97 97 97 98 98 98 97 97 98 97 96 95 96 97 97
72 75 76 74 77 78 73 74 78 82 77 78 78 80 87 91 92 96 96 95 94 95 96 94 95 96 98 96 95 92 93 95 96 94 94 94 96 94 92 94 98 98 98
72 76 77 73 78 80 76 76 76 85 88 86 80 76 80 83 90 92 94 94 91 91 90 91 92 91 95 94 95 92 91 93 94 93 94 92 92 91 91 95 98 99 99
72 76 83 81 80 78 77 79 78 78 81 81 81 83 83 86 89 90 89 90 92 85 85 85 87 88 88 90 90 90 90 92 90 92 94 91 88 87 87 88 94 97 95
73 75 82 84 79 77 77 80 79 76 69 73 77 80 82 76 78 88 90 91 92 94 94 93 90 83 82 80 81 80 82 80 88 95 90 84 80 80 80 82 85 86 88
77 78 82 83 83 80 78 80 78 72 66 66 67 73 74 77 78 84 86 88 91 93 92 91 94 93 88 90 78 78 80 77 92 91 82 78 77 77 76 76 76 83 90
77 78 82 85 85 83 78 77 76 72 69 71 70 69 81 83 92 86 90 94 93 87 86 88 93 94 94 94 92 90 95 86 90 84 85 78 77 77 80 86 88 93 91
77 78 82 85 85 84 81 78 75 72 72 70 70 72 75 83 93 95 94 95 94 89 88 92 91 93 95 90 79 86 94 96 86 88 89 91 92 94 94 93 93 93 91
76 80 81 85 84 86 84 82 76 74 74 72 72 70 70 81 89 86 90 75 75 75 76 77 83 85 74 67 67 66 67 68 70 85 92 94 93 93 93 94 94 92 91

GFSMW_sfc_rhum_153.txt.gz
RH
63 64 62 64 65 66 66 67 69 66 70 72 71 70 67 63 64 64 60 61 65 65 77 87 92 89 97 94 93 93 93 95 95 88 82 92 87 81 76 74 70 78 87
77 69 68 69 72 71 72 73 71 71 70 78 76 72 69 69 62 65 61 63 66 69 64 75 83 90 90 94 93 94 94 90 91 88 87 85 82 82 75 78 75 72 70
86 79 74 73 75 77 74 69 69 70 71 71 73 79 82 79 78 70 69 66 66 71 74 71 77 88 96 92 92 94 95 95 90 85 89 91 86 85 87 74 72 72 81
88 84 79 77 77 75 74 74 71 73 70 74 79 85 80 79 70 67 71 65 66 70 75 79 75 74 82 92 93 87 94 92 94 95 86 88 81 82 80 86 85 73 77
91 88 85 78 74 71 77 75 75 75 76 79 82 84 85 80 76 71 73 69 69 72 74 80 81 80 80 82 92 94 89 96 93 93 94 91 91 98 91 86 85 96 90
87 86 82 79 77 76 72 73 74 74 69 84 85 88 86 81 80 80 79 71 74 71 74 76 84 88 85 86 89 94 94 92 90 93 88 88 93 90 96 97 94 92 87
91 90 85 76 73 75 76 73 75 79 75 71 72 76 80 80 80 76 77 75 76 78 74 76 82 83 88 87 95 95 94 94 93 90 88 91 88 83 84 87 84 91 93
91 88 82 72 72 73 78 79 82 82 79 82 79 78 81 84 79 73 71 72 73 75 70 72 77 80 86 89 94 96 96 96 96 96 94 91 89 87 86 87 90 92 90
89 91 84 71 75 79 80 84 86 83 81 80 79 80 83 79 78 74 78 76 80 70 73 73 76 79 82 89 92 96 98 98 97 96 96 95 92 92 89 92 91 92 96
92 90 85 80 78 77 77 80 83 86 84 82 82 82 87 76 76 80 88 89 84 79 74 72 74 78 83 88 92 95 95 96 97 98 98 98 96 96 95 94 91 92 92
90 86 81 79 77 78 77 78 81 85 86 84 87 96 94 86 85 94 94 91 87 82 80 77 75 75 78 81 92 95 94 95 95 96 97 96 95 95 95 94 92 93 94
86 81 79 82 82 81 78 76 81 86 86 84 87 93 97 96 88 90 90 90 90 85 82 79 78 78 78 81 82 83 84 88 91 93 96 96 95 96 93 90 90 90 91
84 78 79 82 83 83 79 76 80 86 86 87 92 92 97 98 92 86 82 82 84 84 83 82 82 79 79 80 82 82 82 85 88 90 92 93 96 96 96 95 90 88 88
83 79 80 82 83 82 82 80 80 84 85 90 92 93 94 94 95 96 93 92 89 86 85 83 82 82 82 84 86 87 89 90 89 90 92 91 93 93 94 95 92 90 92
79 76 79 83 83 83 83 80 78 81 84 88 91 92 90 90 91 94 93 93 94 96 98 97 96 96 96 95 96 97 98 95 94 92 93 93 94 95 93 91 92 95 95
78 74 76 78 81 82 83 80 79 80 81 84 91 89 89 89 92 92 90 91 91 91 89 87 88 90 88 88 88 91 94 93 98 97 95 95 100 97 99 99 99 99 99
77 74 75 80 81 82 83 82 82 78 81 88 88 90 90 92 93 92 93 95 96 94 95 95 94 95 92 88 89 89 88 91 93 96 95 96 99 99 98 96 94 94 94
78 74 77 81 81 83 85 82 76 84 85 86 86 86 87 92 92 94 96 95 94 96 96 95 95 97 96 94 94 96 97 98 98 97 98 98 99 99 98 97 98 98 98
75 73 76 82 83 83 85 81 76 79 85 86 86 84 88 89 94 97 98 97 96 94 94 93 93 96 97 95 93 93 96 97 98 96 95 96 97 95 93 95 98 98 98
76 77 83 85 85 83 85 83 77 79 78 86 86 87 86 91 95 96 96 95 95 93 89 86 86 88 94 93 91 90 92 95 95 93 92 91 93 94 93 94 95 98 99
78 78 82 84 83 84 85 84 80 78 74 79 82 83 85 86 91 93 94 94 94 92 91 85 83 83 87 86 87 90 92 94 94 95 95 94 91 91 92 92 96 97 96
76 80 86 88 86 87 87 84 84 77 78 74 73 78 83 79 80 90 92 93 93 92 92 90 88 90 91 86 82 84 87 84 86 88 84 80 79 80 80 83 84 84 85
79 80 86 87 87 88 90 88 83 79 79 75 71 72 82 85 88 89 89 93 92 92 92 90 87 90 91 92 87 78 83 82 82 76 75 74 78 83 83 76 79 83 94
80 82 85 88 88 89 90 89 85 81 82 80 77 74 78 85 88 92 94 93 92 92 92 88 81 90 90 92 93 94 92 87 93 89 90 83 82 79 83 87 86 87 94
79 85 86 86 83 87 88 89 89 86 87 86 83 79 78 85 89 92 92 95 94 93 90 92 87 85 85 91 77 90 97 94 84 83 82 85 88 92 93 92 92 91 91
80 85 87 88 82 88 87 88 89 89 89 88 85 82 81 86 88 91 94 84 80 79 79 76 85 88 76 69 66 71 73 74 70 80 88 92 92 90 89 88 88 91 90